     2              OBSERVATION DATA    GPS                 RINEX VERSION / TYPE
teqc 2000Feb29 Duncan Agnew 20031030 00:44:48UTC            PGM / RUN BY / DATE
                                                            COMMENT
L2: 1 -> 1; 150 -> 5; 250 -> 9                              COMMENT
L2: 1 -> 1; 150 -> 5; 250 -> 9                              COMMENT
L2: 1 -> 1; 150 -> 5; 250 -> 9                              COMMENT
L2: 1 -> 1; 150 -> 5; 250 -> 9                              COMMENT
L2: 1 -> 1; 150 -> 5; 250 -> 9                              COMMENT
Original Marker Name: U471                                  COMMENT
Campaign Name: CSUSB 2002-2003                              COMMENT
4-Character Station Name: U471                              COMMENT
6-Character Antenna Code: DMRCHT                            COMMENT
Vertical Measurement Point: BPA                             COMMENT
Vertical Offset to Rinex Ref. Point: 0.0000                 COMMENT
Radial Measurement Point: RRP                               COMMENT
Radial Offset to Rinex Ref. Point: 0.0000                   COMMENT
Antenna Height from Field Measurement: 1.5000 m             COMMENT
Additional Antenna Identification Info.:                    COMMENT
Turborogue and Ashtech Choke Ring                           COMMENT
Original XYZ: -2424955.0964 -4697566.6771 3556922.7586      COMMENT
New XYZ position is based on association with SCEC monument COMMENT
E1D0S4K0+0011. Position of that monument is believed to be  COMMENT
valid to within 1 m horizontally; vertical accuracy         COMMENT
should be no worse than 3-times this value.                 COMMENT
                                                            COMMENT
Revised Rinex header created by UCSD GPS archive for        COMMENT
GSAC on 09-Nov-2004 (2004:314) 22:43:15 GMT                 COMMENT
For assistance contact dagnew@ucsd.edu                      COMMENT
or anderson@python.ucsd.edu                                 COMMENT
                                                            COMMENT
U471                                                        MARKER NAME
AMS CAL STATE SAN BERNARDINO                                OBSERVER / AGENCY
2403 ASHTECH Z-XII3 CD00                                    REC # / TYPE / VERS
1401 DORNE-MARGOL. TYPE T                                   ANT # / TYPE
 -2424947.0000 -4697568.0000  3556921.0000                  APPROX POSITION XYZ
        1.5000        0.0000        0.0000                  ANTENNA: DELTA H/E/N
     1     1     0                                          WAVELENGTH FACT L1/2
     7    C1    L1    L2    P1    P2    S1    S2            # / TYPES OF OBSERV
     0                                                      INTERVAL
  2002     7     9    15    20    0.000000                  TIME OF FIRST OBS
  2002     7     9    23    56    0.000000                  TIME OF LAST OBS
                                                            END OF HEADER
 02  7  9 15 20  0.0000000  0  9G23G15G30G29G 6G26G10G18G17
                     59181.56649     26666.61446                  20178342.095
       247.000         176.000
                     18527.10349      2809.21943
       234.000          74.000
                     98348.81049     43087.45745                  22111388.606
       231.000         136.000
                     28551.73749     13592.42245                  22371401.109
       227.000         137.000
                     70037.84449     33929.35747                  19776955.506
       246.000         194.000
                     16479.49249      8410.40143
       225.000          74.000
                    100229.16649     42625.25045                  22305618.702
       228.000         141.000
                      4955.66349       585.53143
       233.000          74.000
                     32493.89049     14201.83945                  20987244.054
       238.000         160.000
 02  7  9 15 20 30.0000000  0 10G22G23G15G30G29G 6G26G10G18G17
                     41751.13749     23816.08143
       214.000          74.000
  20201983.585      183448.22149    123497.75347  20201982.878    20201988.939
       247.000         212.000
  21568568.740       66349.85349     40073.44646  21568567.312    21568575.158
       230.000         177.000
  22149522.651      298790.66949    199275.86946  22149522.764    22149530.808
       227.000         170.000
  22383488.014       92100.51849     63110.98446  22383487.604    22383493.774
       230.000         174.000
  19794340.787      161426.79749    105141.52748  19794340.293    19794346.361
       246.000         213.000
                     55943.89349     39161.63745                  22085252.256
       227.000         151.000
  22343353.924      298562.59749    197170.73146  22343352.469    22343360.190
       226.000         174.000
  22116321.979       15150.26749      8529.69446  22116322.489    22116329.893
       231.000         176.000
  20999830.521       98673.98149     65770.71947  20999830.170    20999837.683
       237.000         196.000
 02  7  9 15 21  0.0000000  0 10G22G23G15G30G29G 6G26G10G18G17
                     87559.25349     59511.06244                  24306988.835
       214.000         131.000
  20825338.057      308358.33649    220830.29948  20825337.379    20825343.469
       247.000         216.000
  22177317.757      114513.62049     77603.68146  22177317.213    22177326.210
       227.000         179.000
  22787315.052      499565.56449    355723.74846  22787314.820    22787321.843
       225.000         172.000
  22995277.899      156240.54849    113090.25246  22995277.401    22995285.228
       229.000         179.000
  20411427.673      253399.02549    176808.19748  20411427.303    20411433.298
       247.000         216.000
  22692449.934       95983.28849     70361.22746  22692449.214    22692456.135
       228.000         169.000
  22980754.207      497282.05849    352017.00146  22980752.546    22980760.669
       225.000         176.000
  22717933.535       25794.24749     16823.77746  22717932.413    22717939.630
       234.000         183.000
  21612072.315      165181.46349    117594.73547  21612071.394    21612079.043
       238.000         201.000
 02  7  9 15 21 29.9990000  0 10G22G23G15G30G29G 6G26G10G18G17
  24016015.946      133943.25149     95654.39845  24016010.702    24016021.128
       213.000         146.000
  20549429.287      433869.19249    318630.96048  20549428.667    20549434.700
       248.000         217.000
  21886745.966      162967.12649    115359.66946  21886745.112    21886754.887
       229.000         182.000
  22525787.139      700639.52149    512404.64046  22525786.493    22525793.204
       228.000         173.000
  22707795.193      220924.77049    163493.55646  22707794.571    22707801.443
       227.000         178.000
  20129239.716      345910.14649    248894.78048  20129239.228    20129244.929
       247.000         217.000
  22400376.325      136548.51849    101970.56046  22400376.412    22400382.788
       229.000         174.000
  22718841.995      696353.49149    507137.53046  22718842.343    22718850.855
       224.000         175.000
  22420242.002       36833.01349     25425.44946  22420241.050    22420247.899
       234.000         185.000
  21324989.182      231967.15349    169635.54147  21324987.678    21324995.452
       239.000         203.000
 02  7  9 15 22  0.0000000  0 10G22G23G15G30G29G 6G26G10G18G17
  24148546.322     -745008.11249   -589242.71545  24148544.271    24148551.250
       210.000         148.000
  20697023.696     -365937.15249   -304594.76948  20697022.849    20697029.420
       247.000         217.000
  22019618.626     -714202.77449   -568149.33546  22019619.275    22019628.180
       235.000         187.000
  22687701.470      -23910.68949    -52180.03046  22687701.011    22687707.202
       224.000         172.000
  22843805.102     -639758.43549   -507168.68446  22843804.653    22843810.491
       228.000         177.000
  20270543.463     -486953.48949   -400089.87148  20270543.345    20270548.597
       248.000         217.000
  22531793.825     -748270.02049   -587498.37646  22531793.134    22531800.568
       229.000         176.000
  22880385.444      -30146.14549    -58966.12346  22880386.258    22880393.904
       223.000         174.000
  22546015.380     -877642.80449   -687153.06746  22546014.779    22546020.986
       234.000         183.000
  21461347.394     -626883.03749   -499598.37047  21461346.719    21461353.738
       239.000         202.000
 02  7  9 15 22 30.0000000  0 10G22G23G15G30G29G 6G26G10G18G17
  24137750.768     -801731.91949   -633443.06845  24137751.832    24137759.319
       216.000         151.000
  20701292.730     -343503.61449   -287114.09848  20701292.374    20701298.669
       248.000         217.000
  22009109.242     -769435.14749   -611187.52847  22009109.301    22009116.945
       237.000         192.000
  22706231.334       73467.42749     23698.94646  22706232.173    22706237.470
       227.000         170.000
  22836481.227     -678246.31049   -537159.20746  22836481.083    22836486.914
       229.000         178.000
  20268511.788     -497630.87449   -408409.91548  20268511.501    20268517.142
       248.000         218.000
  22519874.045     -810907.53649   -636306.76846  22519871.887    22519880.782
       226.000         175.000
  22898555.568       65336.12849     15435.61946  22898556.529    22898563.885
       226.000         173.000
  22528427.247     -970068.99849   -759173.43446  22528425.925    22528433.016
       232.000         182.000
  21454320.787     -663808.96449   -528371.83347  21454319.823    21454327.216
       237.000         202.000
 02  7  9 15 23  0.0000000  0 10G22G23G15G30G29G 6G26G10G18G17
  24127045.925     -857988.39249   -677279.27645  24127044.025    24127056.103
       210.000         155.000
  20705652.819     -320592.33749   -269261.15548  20705652.555    20705658.499
       248.000         218.000
  21998632.760     -824491.80749   -654088.78647  21998632.454    21998639.889
       238.000         194.000
  22724794.077      171011.77449     99707.42846  22724793.073    22724800.539
       226.000         169.000
  22829239.995     -716298.31649   -566810.09546  22829239.746    22829245.884
       227.000         179.000
  20266561.042     -507881.78949   -416397.64548  20266559.913    20266566.676
       245.000         217.000
  22508034.594     -873122.91349   -684786.24846  22508034.882    22508041.760
       229.000         177.000
  22916767.801      161038.41949     90008.79346  22916768.471    22916775.564
       228.000         173.000
  22510893.771    -1062205.85349   -830968.34746  22510892.533    22510899.069
       230.000         182.000
  21447324.613     -700572.62449   -557018.81147  21447323.807    21447331.060
       237.000         202.000
 02  7  9 15 23 30.0000000  0 10G22G23G15G30G29G 6G26G10G18G17
  24116429.035     -913777.99049   -720751.67345  24116428.974    24116438.979
       211.000         155.000
  20710103.036     -297206.83149   -251038.68448  20710102.165    20710108.771
       247.000         217.000
  21988188.948     -879375.11949   -696854.98747  21988187.565    21988195.129
       236.000         193.000
  22743386.950      268717.09349    175841.34146  22743386.951    22743394.921
       224.000         169.000
  22822081.773     -753914.40649   -596121.30046  22822081.452    22822087.541
       227.000         179.000
  20264691.119     -517706.89049   -424053.56448  20264690.557    20264696.955
       246.000         217.000
  22496276.038     -934915.12949   -732935.97146  22496276.182    22496282.245
       231.000         179.000
  22935020.813      256955.65649    164749.44346  22935020.556    22935027.988
       226.000         173.000
  22493415.468    -1154053.64849   -902537.98846  22493414.813    22493421.562
       235.000         183.000
  21440359.207     -737176.00549   -585540.91247  21440358.758    21440365.509
       240.000         203.000
 02  7  9 15 24  0.0000000  0 10G22G23G15G30G29G 6G26G10G18G17
  24105902.323     -969097.72149   -763857.96545  24105902.901    24105909.929
       217.000         153.000
  20714643.185     -273347.42149   -232446.94248  20714642.701    20714648.753
       248.000         217.000
  21977778.083     -934083.81049   -739485.09847  21977776.462    21977784.768
       233.000         191.000
  22762009.756      366581.74149    252099.44146  22762009.908    22762017.997
       225.000         171.000
  22815007.266     -791091.20349   -625090.23746  22815006.739    22815013.795
       228.000         178.000
  20262902.975     -527103.51149   -431375.60348  20262902.415    20262908.897
       245.000         217.000
  22484598.878     -996279.80749   -780752.52846  22484599.266    22484605.240
       231.000         178.000
  22953314.249      353086.79649    239656.78646  22953314.401    22953319.606
       225.000         172.000
  22475993.218    -1245609.28349   -973880.00046  22475992.644    22475999.380
       233.000         184.000
  21433424.560     -773618.39149   -613937.59347  21433423.540    21433431.155
       238.000         203.000
 02  7  9 15 24 30.0000000  0 10G22G23G15G30G29G 6G26G10G18G17
  24095466.168    -1023946.08449   -806596.93345  24095466.286    24095470.942
       218.000         152.000
  20719273.459     -249015.58749   -213487.06848  20719272.486    20719279.207
       248.000         218.000
  21967400.534     -988617.73249   -781979.06547  21967398.996    21967406.856
       232.000         189.000
  22780662.674      464602.89049    328479.42346  22780663.415    22780669.947
       229.000         172.000
  22808016.618     -827826.65449   -653715.23046  22808015.999    22808023.351
       227.000         178.000
  20261196.524     -536070.29049   -438362.69948  20261196.356    20261202.648
       246.000         217.000
  22473003.973    -1057213.77149   -828233.52346  22473003.264    22473010.650
       229.000         179.000
  22971647.888      449429.11749    314728.67346  22971648.029    22971654.300
       223.000         170.000
  22458626.759    -1336870.75949  -1044992.78346  22458625.727    22458633.567
       233.000         185.000
  21426520.249     -809899.89849   -642208.89447  21426519.529    21426526.397
       238.000         201.000
 02  7  9 15 25  0.0000000  0 10G22G23G15G30G29G 6G26G10G18G17
  24085118.621    -1078322.73149   -848968.38345  24085117.870    24085126.543
       215.000         154.000
  20723992.944     -224214.24749   -194161.36148  20723992.359    20723998.519
       248.000         218.000
  21957055.946    -1042978.50149   -824338.07546  21957055.227    21957062.783
       233.000         187.000
  22799345.007      562776.05449    404977.88746  22799345.581    22799351.390
       229.000         172.000
  22801110.326     -864119.97649   -681995.72146  22801109.890    22801115.990
       227.000         177.000
  20259572.183     -544607.19049   -445014.84048  20259572.020    20259577.985
       246.000         217.000
  22461490.706    -1117715.35349   -875377.56546  22461489.644    22461496.472
       228.000         178.000
  22990020.813      545978.61149    389961.98246  22990019.431    22990026.961
       223.000         170.000
  22441316.307    -1427837.74749  -1115876.10946  22441316.220    22441321.952
       234.000         185.000
  21419646.433     -846022.33049   -670356.23947  21419645.918    21419653.117
       238.000         201.000
 02  7  9 15 25 30.0000000  0 10G22G23G15G30G29G 6G26G10G18G17
  24074861.311    -1132224.56449   -890969.79945  24074860.411    24074869.918
       219.000         160.000
  20728801.898     -198943.18649   -174469.63148  20728800.820    20728807.567
       247.000         217.000
  21946744.955    -1097164.53449   -866560.91547  21946744.375    21946751.233
       234.000         188.000
  22818055.418      661099.87449    481593.79046  22818055.149    22818061.280
       228.000         172.000
  22794288.859     -899967.60249   -709928.90946  22794288.472    22794294.075
       227.000         177.000
  20258030.095     -552711.18749   -451329.64448  20258029.618    20258035.848
       247.000         217.000
  22450060.574    -1177779.62949   -922180.85346  22450060.177    22450067.403
       230.000         179.000
  23008432.705      642734.13049    465355.83846  23008431.844    23008439.178
       223.000         171.000
  22424062.463    -1518506.65949  -1186527.16046  22424060.376    22424068.573
       230.000         184.000
  21412803.213     -881984.06849   -698378.36947  21412802.885    21412809.729
       240.000         203.000
 02  7  9 15 26  0.0000000  0 10G22G23G15G30G29G 6G26G10G18G17
  24064694.602    -1185651.28249   -932601.03745  24064693.549    24064701.190
       212.000         157.000
  20733699.551     -173205.41449   -154414.22548  20733698.589    20733705.702
       249.000         218.000
  21936466.774    -1151177.34049   -908648.79047  21936465.661    21936473.587
       233.000         189.000
  22836793.424      759570.15249    558323.76946  22836791.818    22836800.394
       223.000         171.000
  22787552.001     -935368.79549   -737514.25846  22787549.828    22787558.180
       223.000         176.000
  20256570.361     -560382.39549   -457307.22848  20256570.258    20256575.788
       246.000         216.000
  22438713.988    -1237404.98149   -968642.11946  22438713.542    22438720.868
       229.000         180.000
  23026883.030      739691.66449    540907.09646  23026882.961    23026890.108
       227.000         174.000
  22406865.289    -1608876.90449  -1256945.46846  22406865.510    22406871.636
       236.000         185.000
  21405990.265     -917786.92849   -726276.70047  21405989.862    21405996.832
       239.000         204.000
 02  7  9 15 26 30.0000000  0 10G22G23G15G30G29G 6G26G10G18G17
  24054618.198    -1238600.72749   -973860.33145  24054617.825    24054626.923
       217.000         154.000
  20738685.894     -147001.84149   -133995.86448  20738685.337    20738691.780
       249.000         218.000
  21926221.461    -1205016.48149   -950601.34547  21926220.463    21926228.495
       235.000         189.000
  22855558.830      858184.58049    635166.04246  22855559.545    22855567.038
       226.000         173.000
  22780900.470     -970321.02549   -764749.72646  22780900.611    22780906.806
       225.000         175.000
  20255193.365     -567618.86949   -462946.03848  20255193.042    20255199.118
       246.000         216.000
  22427451.983    -1296587.70549  -1014758.49846  22427451.898    22427458.960
       228.000         178.000
  23045372.122      836849.12049    616614.13846  23045372.391    23045379.268
       230.000         176.000
  22389726.032    -1698946.25749  -1327129.32946  22389725.446    22389732.116
       234.000         186.000
  21399207.438     -953430.47449   -754050.87147  21399206.548    21399213.041
       238.000         202.000
 02  7  9 15 27  0.0000000  0 10G22G23G15G30G29G 6G26G10G18G17
  24044633.742    -1291072.98549  -1014747.83645  24044633.627    24044643.131
       219.000         158.000
  20743760.386     -120335.72349   -113217.07548  20743760.164    20743766.258
       250.000         219.000
  21916008.823    -1258683.55149   -992419.83347  21916007.134    21916015.507
       233.000         189.000
  22874351.461      956938.31349    712116.89246  22874353.055    22874359.650
       228.000         174.000
  22774335.039    -1004823.73349   -791634.95246  22774334.946    22774341.928
       228.000         176.000
  20253899.080     -574420.79049   -468246.24648  20253898.538    20253904.523
       246.000         216.000
  22416274.269    -1355326.45149  -1060528.91746  22416274.016    22416280.750
       226.000         176.000
  23063898.419      934201.97449    692473.44946  23063896.657    23063904.450
       227.000         177.000
  22372643.624    -1788714.48549  -1397078.53546  22372643.121    22372648.944
       234.000         186.000
  21392454.618     -988916.62949   -781702.40647  21392453.363    21392460.653
       237.000         200.000
 02  7  9 15 27 30.0000000  0 10G22G23G15G30G29G 6G26G10G18G17
  24034739.957    -1343065.30449  -1055261.34745  24034738.347    24034749.731
       213.000         161.000
  20748922.839      -93207.27449    -92078.02648  20748922.560    20748928.652
       250.000         219.000
  21905829.116    -1312177.01949  -1034103.03647  21905828.520    21905836.068
       234.000         189.000
  22893170.399     1055829.86749    789175.13546  22893170.278    22893177.695
       228.000         174.000
  22767855.772    -1038873.75149   -818167.40146  22767855.532    22767861.480
       227.000         175.000
  20252687.904     -580785.60149   -473205.83648  20252687.676    20252693.551
       246.000         216.000
  22405181.993    -1413616.68449  -1105949.81046  22405182.175    22405188.638
       229.000         177.000
  23082460.713     1031749.19049    768484.22346  23082459.476    23082467.487
       224.000         176.000
  22355619.192    -1878178.38649  -1466790.61646  22355618.567    22355624.965
       234.000         185.000
  21385731.857    -1024244.20349   -809230.38147  21385730.787    21385738.358
       238.000         201.000
 02  7  9 15 28  0.0000000  0 10G22G23G15G30G29G 6G26G10G18G17
  24024937.135    -1394575.63949  -1095399.26345  24024934.654    24024945.884
       212.000         159.000
  20754173.004      -65617.70949    -70579.66548  20754172.495    20754178.817
       250.000         218.000
  21895682.857    -1365496.77849  -1075650.87547  21895682.285    21895688.799
       235.000         190.000
  22912014.594     1154856.67349    866338.77246  22912015.022    22912022.279
       227.000         174.000
  22761462.867    -1072468.55549   -844345.15846  22761463.147    22761468.650
       226.000         173.000
  20251560.314     -586711.80349   -477823.66348  20251559.827    20251565.995
       246.000         217.000
  22394175.970    -1471455.01149  -1151018.59146  22394176.164    22394182.445
       228.000         177.000
  23101059.669     1129488.32149    844644.52946  23101058.960    23101065.692
       225.000         174.000
  22338653.211    -1967335.66649  -1536263.77846  22338652.203    22338659.049
       234.000         186.000
  21379039.523    -1059413.07849   -836634.70547  21379039.449    21379046.166
       240.000         203.000
 02  7  9 15 28 30.0000000  0 10G22G23G15G30G29G 6G26G10G18G17
  24015226.703    -1445603.31149  -1135161.09745  24015226.864    24015234.274
       218.000         159.000
  20759510.511      -37569.15249    -48723.63548  20759509.730    20759516.258
       250.000         218.000
  21885569.530    -1418643.53549  -1117063.87647  21885567.947    21885575.852
       234.000         190.000
  22930883.686     1254015.02149    943604.94546  22930884.379    22930892.144
       230.000         175.000
  22755156.870    -1105607.06849   -870167.35746  22755157.222    22755163.719
       225.000         174.000
  20250516.113     -592198.69749   -482099.16548  20250515.950    20250521.661
       247.000         217.000
  22383256.232    -1528839.10349  -1195733.44046  22383255.265    22383262.242
       227.000         177.000
  23119694.699     1227416.12549    920951.84246  23119694.299    23119701.235
       223.000         172.000
  22321745.526    -2056185.26049  -1605497.17046  22321744.568    22321751.480
       233.000         185.000
  21372377.289    -1094424.30349   -863916.17747  21372376.142    21372383.885
       238.000         203.000
 02  7  9 15 29  0.0000000  0 10G22G23G15G30G29G 6G26G10G18G17
  24005608.955    -1496147.07949  -1174545.86045  24005608.473    24005617.681
       215.000         157.000
  20764935.035       -9063.47149    -26511.42248  20764934.685    20764940.855
       251.000         218.000
  21875488.760    -1471617.67349  -1158342.38947  21875487.425    21875495.957
       234.000         191.000
  22949777.569     1353301.82349   1020971.16946  22949777.330    22949783.627
       225.000         174.000
  22748937.904    -1138287.46949   -895632.57046  22748937.578    22748944.512
       225.000         173.000
  20249555.860     -597245.23249   -486031.52648  20249555.414    20249561.063
       247.000         217.000
  22372423.212    -1585766.20349  -1240092.20346  22372421.605    22372429.405
       226.000         175.000
  23138365.135     1325529.98549    997404.13846  23138365.793    23138372.413
       227.000         171.000
  22304896.991    -2144725.53349  -1674489.54046  22304896.711    22304902.078
       236.000         184.000
  21365744.741    -1129278.33749   -891075.13847  21365743.983    21365751.954
       238.000         204.000
 02  7  9 15 29 30.0000000  0 10G22G23G15G30G29G 6G26G10G18G17
  23996082.531    -1546205.60249  -1213552.53245  23996081.548    23996091.423
       210.000         157.000
  20770446.212       19897.47649     -3944.45048  20770445.290    20770452.012
       249.000         218.000
  21865440.743    -1524419.48049  -1199486.64547  21865439.791    21865448.524
       236.000         192.000
  22968694.730     1452714.01649   1098435.04746  22968694.324    22968702.541
       220.000         169.000
  22742806.789    -1170507.90249   -920739.37946  22742806.792    22742813.515
       228.000         174.000
  20248679.583     -601850.14649   -489619.78348  20248679.451    20248685.289
       247.000         217.000
  22361677.705    -1642233.38249  -1284092.56146  22361676.653    22361683.405
       224.000         172.000
  23157071.280     1423827.26849   1073999.34446  23157070.504    23157077.290
       227.000         173.000
  22288107.611    -2232954.79249  -1743239.56246  22288106.175    22288112.796
       232.000         184.000
  21359142.091    -1163975.29149   -918111.72347  21359141.504    21359149.068
       240.000         204.000
 02  7  9 15 30  0.0000000  0 10G22G23G15G30G29G 6G26G10G18G17
  23986649.383    -1595777.47449  -1252179.95545  23986650.587    23986658.894
       218.000         160.000
  20776043.552       49311.91049     18975.89448  20776043.045    20776049.167
       250.000         218.000
  21855425.709    -1577049.00649  -1240496.65347  21855424.834    21855432.439
       236.000         192.000
  22987635.340     1552248.58849   1175994.32846  22987636.051    22987643.622
       224.000         170.000
  22736763.669    -1202266.46249   -945486.26846  22736763.126    22736769.471
       227.000         176.000
  20247887.601     -606012.32249   -492863.03748  20247887.159    20247893.032
       247.000         217.000
  22351020.203    -1698237.78349  -1327732.28046  22351019.481    22351026.829
       223.000         172.000
  23175811.084     1522304.98849   1150735.15946  23175810.081    23175818.125
       224.000         172.000
  22271377.233    -2320871.74349  -1811746.20346  22271375.598    22271383.091
       231.000         184.000
  21352569.383    -1198515.60649   -945026.26047  21352568.794    21352576.135
       238.000         204.000
 02  7  9 15 30 30.0000000  0 10G22G23G15G30G29G 6G26G10G18G17
  23977309.906    -1644861.31849  -1290427.08245  23977309.534    23977318.257
       219.000         162.000
  20781727.079       79178.39649     42248.48148  20781726.780    20781732.372
       249.000         218.000
  21845443.319    -1629506.27049  -1281372.43847  21845441.895    21845449.729
       233.000         189.000
  23006599.188     1651902.51149   1253646.62846  23006600.682    23006607.792
       225.000         172.000
  22730808.289    -1233561.62449   -969872.10346  22730807.839    22730814.439
       226.000         176.000
  20247180.033     -609730.50549   -495760.32548  20247179.229    20247185.566
       245.000         217.000
  22340451.537    -1753776.43149  -1371009.12146  22340451.617    22340458.214
       225.000         173.000
  23194584.168     1620960.56649   1227609.58746  23194583.084    23194591.353
       224.000         172.000
  22254706.822    -2408474.33549  -1880007.91546  22254706.267    22254713.340
       233.000         185.000
  21346026.420    -1232899.38849   -971818.80047  21346025.794    21346032.773
       239.000         203.000
 02  7  9 15 31  0.0000000  0 10G22G23G15G30G29G 6G26G10G18G17
  23968062.884    -1693455.50149  -1328292.68345  23968061.746    23968071.420
       218.000         161.000
  20787496.312      109495.50749     65872.20248  20787495.386    20787501.778
       248.000         218.000
  21835493.778    -1681791.06149  -1322113.81947  21835494.182    21835501.243
       238.000         191.000
  23025585.114     1751673.25949   1331389.95046  23025585.579    23025592.995
       222.000         169.000
  22724941.616    -1264390.87149   -993894.87646  22724941.231    22724947.275
       225.000         175.000
  20246557.098     -613003.25149   -498310.52248  20246556.591    20246563.003
       246.000         217.000
  22329972.244    -1808845.99349  -1413920.42446  22329971.862    22329977.924
       227.000         172.000
  23213391.358     1719791.96649   1304620.97746  23213390.264    23213397.407
       227.000         171.000
  22238096.825    -2495760.26649  -1948022.88946  22238096.716    22238103.049
       234.000         185.000
  21339513.216    -1267126.80949   -998489.50947  21339512.803    21339519.069
       240.000         203.000
 02  7  9 15 31 30.0000000  0 10G22G23G15G30G29G 6G26G10G18G17
  23958908.766    -1741559.49349  -1365776.33645  23958907.943    23958916.904
       212.000         159.000
  20793350.580      140260.29949     89844.77448  20793349.943    20793355.915
       248.000         218.000
  21825577.391    -1733904.67149  -1362721.79447  21825576.358    21825584.529
       235.000         193.000
  23044592.555     1851556.77449   1409221.16546  23044594.249    23044600.838
       223.000         166.000
  22719163.755    -1294753.44649  -1017553.99946  22719163.031    22719168.979
       226.000         173.000
  20246019.190     -615830.35149   -500513.46848  20246019.213    20246025.004
       247.000         217.000
  22319582.776    -1863444.72749  -1456464.84746  22319582.794    22319589.144
       226.000         171.000
  23232231.454     1818795.35349   1381766.42146  23232230.272    23232236.122
       227.000         170.000
  22221547.384    -2582729.06849  -2015790.74246  22221546.284    22221553.740
       235.000         186.000
  21333029.616    -1301198.87749  -1025039.16647  21333028.951    21333036.126
       239.000         204.000
 02  7  9 15 32  0.0000000  0 10G22G23G15G30G29G 6G26G10G18G17
  23949847.640    -1789171.06349  -1402876.27345  23949847.346    23949855.361
       213.000         155.000
  20799290.048      171472.14249    114165.68448  20799289.521    20799295.537
       248.000         218.000
  21815692.862    -1785846.13549  -1403195.63847  21815691.451    21815700.233
       231.000         191.000
  23063621.055     1951551.22449   1487138.80146  23063621.657    23063629.239
       220.000         166.000
  22713475.287    -1324646.65949  -1040847.38146  22713475.128    22713481.842
       228.000         175.000
  20245566.640     -618209.58249   -502367.40748  20245566.466    20245572.530
       248.000         217.000
  22309283.229    -1917568.62549  -1498639.28346  22309284.144    22309289.957
       228.000         172.000
  23251103.653     1917969.35049   1459044.80946  23251102.417    23251108.724
       227.000         170.000
  22205058.618    -2669377.80149  -2083309.18646  22205057.848    22205064.294
       235.000         186.000
  21326575.638    -1335114.89249  -1051467.22247  21326574.660    21326582.543
       238.000         204.000
 02  7  9 15 32 30.0000000  0 10G22G23G15G30G29G 6G26G10G18G17
  23940882.034    -1836288.05249  -1439590.78845  23940881.453    23940889.952
       217.000         154.000
  20805314.511      203130.12349    138834.24148  20805313.641    20805320.207
       248.000         218.000
  21805841.520    -1837614.52149  -1443534.60547  21805841.470    21805848.890
       235.000         191.000
  23082670.133     2051654.36449   1565141.12346  23082669.990    23082679.022
       221.000         165.000
  22707876.725    -1354067.85649  -1063772.97046  22707876.414    22707882.617
       228.000         176.000
  20245199.690     -620138.98749   -503870.84448  20245199.580    20245205.255
       248.000         217.000
  22299075.022    -1971213.82249  -1540440.71546  22299074.562    22299081.341
       226.000         174.000
  23270007.896     2017312.05149   1536454.64246  23270005.530    23270014.301
       224.000         169.000
  22188631.267    -2755704.20549  -2150576.46847  22188631.290    22188637.448
       237.000         188.000
  21320151.374    -1368874.17149  -1077773.13647  21320150.287    21320157.760
       238.000         203.000
 02  7  9 15 33  0.0000000  0 10G22G23G15G30G29G 6G26G10G18G17
  23932010.354    -1882911.12749  -1475920.46045  23932009.515    23932018.711
       215.000         155.000
  20811422.979      235230.59649    163847.60248  20811422.032    20811428.705
       247.000         217.000
  21796023.138    -1889211.72749  -1483740.16847  21796022.338    21796030.075
       236.000         193.000
  23101739.051     2151861.27649   1643224.30146  23101737.750    23101746.777
       218.000         163.000
  22702367.999    -1383017.11049  -1086330.79046  22702367.638    22702374.031
       228.000         177.000
  20244918.054     -621619.48949   -505024.49548  20244917.655    20244923.070
       247.000         217.000
  22288957.766    -2024379.66549  -1581868.58446  22288958.215    22288963.056
       229.000         175.000
  23288943.090     2116818.96449   1613992.45546  23288941.621    23288948.655
       224.000         166.000
  22172265.616    -2841708.38449  -2217592.66047  22172265.170    22172271.293
       234.000         190.000
  21313756.454    -1402479.06749  -1103958.77647  21313755.774    21313762.114
       240.000         202.000
 02  7  9 15 33 30.0000000  0 10G22G23G15G30G29G 6G26G10G18G17
  23923232.232    -1929040.14149  -1511865.15345  23923231.082    23923240.628
       213.000         156.000
  20817615.182      267770.89449    189203.66848  20817614.725    20817620.775
       249.000         217.000
  21786236.917    -1940639.03949  -1523813.36847  21786236.752    21786243.686
       237.000         193.000
  23120827.139     2252168.06549   1721385.30846  23120827.694    23120834.723
       225.000         163.000
  22696949.113    -1411493.88549  -1108520.45746  22696948.290    22696954.903
       228.000         177.000
  20244721.788     -622650.86149   -505828.17148  20244720.931    20244727.380
       246.000         217.000
  22278932.440    -2077064.19349  -1622921.42746  22278931.836    22278939.238
       225.000         174.000
  23307909.178     2216486.41249   1691655.33646  23307908.441    23307915.173
       223.000         165.000
  22155960.796    -2927389.87849  -2284357.42147  22155960.238    22155966.110
       236.000         189.000
  21307391.007    -1435930.78849  -1130025.05547  21307390.491    21307397.110
       241.000         203.000
 02  7  9 15 34  0.0000000  0 10G22G23G15G30G29G 6G26G10G18G17
  23914548.927    -1974671.43549  -1547422.00445  23914549.872    23914557.331
       220.000         158.000
  20823891.376      300751.44849    214902.79548  20823891.210    20823896.886
       250.000         218.000
  21776483.414    -1991894.36349  -1563752.57547  21776482.705    21776490.771
       236.000         193.000
  23139934.101     2352573.80149   1799623.41746  23139933.887    23139941.313
       224.000         164.000
  22691620.715    -1439494.08149  -1130338.75946  22691619.419    22691626.455
       225.000         176.000
  20244611.575     -623229.66049   -506279.18148  20244611.087    20244617.201
       247.000         216.000
  22268999.360    -2129262.55549  -1663595.44446  22268999.413    22269005.880
       230.000         174.000
  23326905.833     2316313.79349   1769442.83046  23326905.210    23326911.517
       224.000         165.000
  22139718.417    -3012744.54849  -2350867.51747  22139718.082    22139724.112
       236.000         190.000
  21301055.055    -1469227.24649  -1155970.31747  21301054.407    21301061.423
       240.000         204.000
 02  7  9 15 34 30.0000000  0 10G22G23G15G30G29G 6G26G10G18G17
  23905961.305    -2019804.26949  -1582590.43645  23905960.308    23905969.307
       220.000         161.000
  20830250.865      334170.02149    240943.23848  20830249.748    20830256.369
       248.000         218.000
  21766762.472    -2042978.12549  -1603558.09547  21766761.784    21766769.609
       237.000         193.000
  23159058.860     2453075.46249   1877936.25446  23159057.708    23159066.326
       221.000         163.000
  22686383.228    -1467016.31649  -1151784.64446  22686382.194    22686389.151
       228.000         177.000
  20244587.764     -623355.23049   -506377.03948  20244587.494    20244593.182
       247.000         216.000
  22259159.464    -2180971.99249  -1703888.47246  22259157.916    22259165.138
       227.000         175.000
  23345932.504     2416298.56849   1847352.97546  23345931.298    23345939.040
       223.000         164.000
  22123538.425    -3097770.92949  -2417121.79047  22123537.264    22123543.580
       235.000         190.000
  21294748.422    -1502369.09949  -1181795.14347  21294747.973    21294754.458
       241.000         204.000
 02  7  9 15 35  0.0000000  0 11G22G23G15G30G29G 6G26G21G10G18G17
  23897467.733    -2064437.08949  -1617369.25945  23897466.918    23897474.780
       217.000         159.000
  20836693.187      368025.26649    267323.94948  20836692.468    20836698.688
       248.000         217.000
  21757074.360    -2093889.98349  -1643229.67747  21757073.421    21757080.338
       235.000         192.000
  23178201.139     2553670.25349   1956321.67545  23178199.846    23178210.047
       222.000         162.000
  22681236.990    -1494058.76049  -1172856.66846  22681235.807    22681242.559
       226.000         176.000
  20244650.465     -623026.18449   -506120.64148  20244650.120    20244655.725
       247.000         217.000
  22249412.923    -2232189.58849  -1743798.25946  22249412.502    22249419.235
       227.000         175.000
  24845259.720     -405485.23849   -318312.56545  24845257.746    24845272.078
       209.000         147.000
  23364988.575     2516438.15949   1925383.75746  23364986.646    23364996.006
       223.000         164.000
  22107421.120    -3182467.41449  -2483119.01247  22107420.421    22107426.443
       235.000         189.000
  21288471.263    -1535356.10649  -1207499.30747  21288469.959    21288477.352
       238.000         204.000
 02  7  9 15 35 30.0000000  0 11G22G23G15G30G29G 6G26G21G10G18G17
  23889068.918    -2108573.49149  -1651761.25645  23889068.532    23889075.231
       216.000         155.000
  20843217.541      402310.50749    294039.72048  20843216.881    20843222.689
       248.000         217.000
  21747417.840    -2144634.93149  -1682771.15147  21747416.927    21747424.683
       235.000         191.000
  23197360.356     2654350.55649   2034773.72846  23197361.501    23197368.108
       227.000         165.000
  22676181.515    -1520624.53249  -1193557.23946  22676180.377    22676187.691
       225.000         175.000
  20244798.917     -622246.20249   -505512.87248  20244798.308    20244804.155
       247.000         217.000
  22239759.953    -2282917.37849  -1783326.36546  22239759.305    22239764.226
       230.000         175.000
  24827323.194     -499741.27449   -391758.76545  24827322.992    24827334.791
       213.000         144.000
  23384072.459     2616725.38949   2003529.59446  23384070.775    23384080.045
       222.000         165.000
  22091366.002    -3266837.20749  -2548861.64047  22091365.216    22091371.943
       235.000         189.000
  21282222.474    -1568193.51949  -1233086.88947  21282221.535    21282228.825
       239.000         204.000
 02  7  9 15 36  0.0000000  0 11G22G23G15G30G29G 6G26G21G10G18G17
  23880765.945    -2152204.89049  -1685759.79545  23880766.469    23880773.731
       218.000         153.000
  20849824.689      437031.23449    321094.82448  20849823.797    20849829.908
       247.000         217.000
  21737794.660    -2195205.76449  -1722176.95647  21737793.888    21737800.576
       236.000         193.000
  23216536.662     2755120.62649   2113295.73646  23216537.426    23216544.381
       225.000         166.000
  22671218.579    -1546704.34049  -1213879.14446  22671218.842    22671224.796
       225.000         175.000
  20245034.709     -621006.93649   -504547.22748  20245034.364    20245039.579
       248.000         216.000
  22230201.933    -2333145.32349  -1822464.99046  22230201.142    22230207.609
       229.000         174.000
  24809413.713     -593856.38049   -465095.11245  24809413.660    24809424.362
       210.000         144.000
  23403185.349     2717165.05449   2081794.19846  23403184.852    23403192.771
       222.000         166.000
  22075374.976    -3350871.31949  -2614342.71747  22075374.766    22075380.743
       238.000         190.000
  21276003.614    -1600874.05149  -1258552.22847  21276003.269    21276010.154
       241.000         205.000
 02  7  9 15 36 30.0000000  0 11G22G23G15G30G29G 6G26G21G10G18G17
  23872559.343    -2195332.48549  -1719365.71845  23872557.043    23872567.436
       214.000         155.000
  20856513.912      472183.33949    348486.06848  20856513.036    20856519.192
       249.000         217.000
  21728203.995    -2245604.82349  -1761448.92347  21728202.538    21728209.215
       236.000         192.000
  23235728.574     2855975.28849   2191883.68646  23235728.520    23235738.787
       224.000         166.000
  22666347.913    -1572299.00349  -1233823.01146  22666347.034    22666354.346
       226.000         175.000
  20245357.792     -619309.55349   -503224.59148  20245357.211    20245362.991
       248.000         216.000
  22220739.163    -2382872.65749  -1861213.53546  22220738.883    22220744.211
       229.000         175.000
  24791531.251     -687831.16749   -538322.18845  24791530.740    24791542.189
       208.000         141.000
  23422326.542     2817752.35249   2160173.84246  23422326.631    23422334.396
       224.000         166.000
  22059447.775    -3434570.01249  -2679562.43347  22059446.133    22059453.275
       237.000         190.000
  21269814.170    -1633400.11949  -1283897.21847  21269813.365    21269820.637
       241.000         205.000
 02  7  9 15 37  0.0000000  0 11G22G23G15G30G29G 6G26G21G10G18G17
  23864448.274    -2237955.17949  -1752578.17445  23864447.417    23864455.988
       215.000         156.000
  20863284.960      507765.00149    376212.03148  20863283.999    20863290.750
       248.000         217.000
  21718646.196    -2295831.99749  -1800586.95347  21718645.844    21718652.842
       238.000         193.000
  23254936.242     2956911.64549   2270535.26446  23254935.263    23254944.777
       220.000         166.000
  22661569.950    -1597407.06649  -1253387.73446  22661569.992    22661576.499
       226.000         175.000
  20245768.179     -617152.99149   -501544.16348  20245767.867    20245773.780
       249.000         217.000
  22211371.994    -2432096.93849  -1899570.05546  22211370.908    22211378.268
       229.000         176.000
  24773675.899     -781663.77949   -611438.47145  24773674.622    24773684.587
       207.000         134.000
  23441495.567     2918484.68549   2238666.50646  23441495.031    23441503.303
       224.000         167.000
  22043584.429    -3517932.09249  -2744519.83747  22043583.755    22043589.538
       239.000         191.000
  21263653.968    -1665772.13749  -1309122.15847  21263652.929    21263660.162
       239.000         204.000
 02  7  9 15 37 30.0000000  0 11G22G23G15G30G29G 6G26G21G10G18G17
  23856433.728    -2280071.67449  -1785396.28545  23856433.874    23856440.589
       216.000         154.000
  20870137.253      543774.29749    404271.22048  20870136.595    20870143.229
       247.000         217.000
  21709121.033    -2345887.64349  -1839591.32947  21709120.059    21709128.267
       238.000         195.000
  23274158.574     3057926.89949   2349248.26246  23274158.345    23274167.495
       221.000         165.000
  22656885.188    -1622026.83949  -1272571.94346  22656885.315    22656890.839
       228.000         175.000
  20246266.209     -614536.34149   -499505.22448  20246266.152    20246271.560
       250.000         217.000
  22202100.994    -2480815.31049  -1937532.38446  22202100.126    22202106.465
       227.000         177.000
  24755847.441     -875352.68649   -684442.73244  24755845.485    24755857.566
       197.000         127.000
  23460691.505     3019359.75449   2317270.38446  23460690.502    23460698.568
       222.000         166.000
  22027785.552    -3600955.68649  -2809213.50947  22027784.032    22027790.256
       236.000         190.000
  21257523.099    -1697990.12449  -1334227.06847  21257522.324    21257529.496
       240.000         203.000
 02  7  9 15 38  0.0000000  0 11G22G23G15G30G29G 6G26G21G10G18G17
  23848516.161    -2321681.17349  -1817819.25345  23848515.966    23848523.182
       217.000         153.000
  20877070.638      580209.50049    432662.28148  20877069.536    20877075.910
       247.000         217.000
  21699628.393    -2395771.77549  -1878462.06947  21699627.850    21699634.671
       240.000         195.000
  23293395.670     3159018.01249   2428020.39346  23293396.837    23293405.622
       224.000         167.000
  22652293.613    -1646156.85149  -1291374.52446  22652292.584    22652298.947
       226.000         175.000
  20246851.918     -611458.62649   -497107.01248  20246851.257    20246857.323
       248.000         217.000
  22192927.024    -2529025.25449  -1975098.55646  22192927.466    22192932.831
       230.000         177.000
  24738045.994     -968897.01749   -757334.28844  24738046.956    24738055.608
       202.000         125.000
  23479913.933     3120374.74549   2395983.30946  23479912.835    23479920.939
       223.000         166.000
  22012051.317    -3683639.32049  -2873642.27747  22012050.594    22012056.214
       238.000         191.000
  21251421.430    -1730054.39049  -1359212.19447  21251420.378    21251427.830
       240.000         204.000
 02  7  9 15 38 30.0000000  0 11G22G23G15G30G29G 6G26G21G10G18G17
  23840694.506    -2362783.77249  -1849847.23545  23840693.841    23840701.109
       216.000         156.000
  20884084.237      617067.35649    461382.68048  20884083.420    20884089.886
       247.000         216.000
  21690168.334    -2445485.65849  -1917200.14047  21690167.060    21690174.160
       239.000         195.000
  23312646.708     3260180.71749   2506848.35146  23312646.241    23312655.848
       216.000         166.000
  22647795.033    -1669796.82949  -1309795.25846  22647794.468    22647801.345
       226.000         174.000
  20247525.211     -607920.30149   -494349.87848  20247524.590    20247530.756
       248.000         217.000
  22183850.162    -2576725.43349  -2012267.49546  22183849.511    22183855.502
       229.000         177.000
  24720272.709    -1062296.35249   -830112.95544  24720271.902    24720284.626
       205.000         124.000
  23499162.280     3221525.85249   2474802.29246  23499161.549    23499170.885
       223.000         168.000
  21996381.830    -3765982.83149  -2937805.99747  21996381.012    21996387.434
       238.000         192.000
  21245348.773    -1761966.41649  -1384078.72747  21245348.501    21245354.388
       241.000         204.000
 02  7  9 15 39  0.0000000  0 11G22G23G15G30G29G 6G26G21G10G18G17
  23832969.437    -2403377.42049  -1881478.67745  23832968.189    23832978.112
       211.000         157.000
  20891178.378      654346.96749    490431.71748  20891177.559    20891184.336
       247.000         217.000
  21680740.627    -2495028.35949  -1955804.82547  21680739.396    21680746.360
       238.000         195.000
  23331909.939     3361413.08449   2585730.52945  23331909.855    23331919.768
       215.000         161.000
  22643390.190    -1692944.29149  -1327832.22746  22643389.378    22643396.221
       227.000         175.000
  20248286.512     -603919.19449   -491232.13948  20248285.584    20248291.708
       248.000         216.000
  22174870.867    -2623912.12949  -2049036.32746  22174870.846    22174877.387
       230.000         178.000
  24702527.788    -1155547.61649   -902776.24044  24702528.895    24702538.156
       210.000         128.000
  23518436.170     3322811.42849   2553726.02846  23518435.536    23518445.088
       225.000         170.000
  21980777.641    -3847983.62349  -3001702.68947  21980777.145    21980782.662
       239.000         193.000
  21239305.222    -1793725.29549  -1408825.89147  21239303.816    21239311.774
       238.000         204.000
 02  7  9 15 39 30.0000000  0 11G22G23G15G30G29G 6G26G21G10G18G17
  23825341.805    -2443460.25449  -1912712.10345  23825342.489    23825349.436
       220.000         158.000
  20898352.465      692047.22449    519808.52748  20898351.862    20898357.984
       247.000         216.000
  21671345.364    -2544399.27649  -1994275.64047  21671343.631    21671351.450
       235.000         193.000
  23351186.921     3462713.04049   2664665.38945  23351188.788    23351196.663
       222.000         162.000
  22639079.474    -1715596.92049  -1345483.60046  22639079.112    22639085.876
       225.000         174.000
  20249136.215     -599453.56949   -487752.44248  20249135.435    20249141.418
       248.000         216.000
  22165989.934    -2670581.94349  -2085402.38846  22165990.424    22165996.192
       232.000         180.000
  24684811.573    -1248649.12949   -975322.80245  24684813.589    24684819.234
       214.000         134.000
  23537735.535     3424229.79849   2632753.27546  23537735.455    23537743.245
       225.000         170.000
  21965239.076    -3929639.30149  -3065330.45047  21965238.122    21965244.710
       238.000         193.000
  21233290.686    -1825330.56149  -1433453.35547  21233290.339    21233297.103
       241.000         205.000
 02  7  9 15 40  0.0000000  0 11G22G23G15G30G29G 6G26G21G10G18G17
  23817811.730    -2483034.56849  -1943549.28845  23817812.062    23817818.954
       217.000         157.000
  20905605.736      730163.02449    549509.13848  20905605.101    20905611.130
       247.000         216.000
  21661982.241    -2593601.70449  -2032615.14647  21661981.412    21661987.949
       236.000         191.000
  23370476.017     3564074.51849   2743648.16046  23370477.135    23370485.376
       220.000         164.000
  22634862.711    -1737756.36249  -1362750.67246  22634862.051    22634869.202
       226.000         175.000
  20250073.912     -594525.74649   -483912.58348  20250073.666    20250079.464
       249.000         216.000
  22157207.040    -2716735.64249  -2121366.26046  22157206.655    22157212.645
       230.000         180.000
  24667122.694    -1341602.14349  -1047753.63445  24667121.127    24667131.398
       210.000         134.000
  23557059.461     3525775.44849   2711879.68246  23557059.807    23557065.904
       227.000         169.000
  21949765.954    -4010951.45749  -3128690.51847  21949764.934    21949771.361
       238.000         193.000
  21227305.307    -1856785.62749  -1457963.78947  21227305.162    21227311.052
       243.000         205.000
 02  7  9 15 40 30.0000000  0 11G22G23G15G30G29G 6G26G21G10G18G17
  23810378.005    -2522098.42849  -1973988.62145  23810377.719    23810387.362
       214.000         158.000
  20912937.878      768693.37149    579532.77448  20912937.095    20912943.495
       247.000         216.000
  21652651.679    -2642634.38849  -2070822.42147  21652651.301    21652657.719
       240.000         193.000
  23389775.906     3665495.46249   2822677.29946  23389776.155    23389784.733
       223.000         165.000
  22630739.844    -1759420.29749  -1379631.63646  22630739.545    22630745.769
       227.000         175.000
  20251100.062     -589133.75949   -479711.04748  20251099.406    20251105.766
       248.000         217.000
  22148523.153    -2762369.37449  -2156924.99546  22148522.537    22148528.222
       231.000         179.000
  24649462.937    -1434403.91749  -1120066.47145  24649459.934    24649474.659
       210.000         134.000
  23576407.607     3627446.90649   2791104.11346  23576406.314    23576412.735
       223.000         168.000
  21934358.332    -4091917.87749  -3191781.18647  21934356.861    21934363.668
       238.000         192.000
  21221348.593    -1888089.57449  -1482356.47347  21221347.027    21221354.023
       239.000         204.000
 02  7  9 15 41  0.0000000  0 11G22G23G15G30G29G 6G26G21G10G18G17
  23803042.139    -2560648.36249  -2004027.52545  23803041.617    23803049.542
       214.000         159.000
  20920348.944      807638.89649    609879.93348  20920348.084    20920355.076
       247.000         216.000
  21643353.970    -2691495.23849  -2108895.78847  21643353.298    21643360.682
       240.000         195.000
  23409087.316     3766975.57249   2901752.52746  23409086.986    23409096.158
       222.000         165.000
  22626712.547    -1780584.80149  -1396123.44346  22626711.803    22626719.123
       227.000         176.000
  20252215.065     -583274.31049   -475145.25148  20252214.723    20252220.451
       248.000         216.000
  22139939.444    -2807478.42249  -2192074.87546  22139938.579    22139944.309
       230.000         179.000
  24631832.424    -1527051.28249  -1192259.08745  24631832.917    24631843.739
       212.000         136.000
  23595778.639     3729243.96749   2870426.43746  23595777.913    23595785.203
       224.000         165.000
  21919017.413    -4172534.40149  -3254599.20347  21919016.960    21919022.688
       240.000         193.000
  21215420.585    -1919240.22249  -1506629.69847  21215420.250    21215426.431
       242.000         203.000
 02  7  9 15 41 30.0000000  0 11G22G23G15G30G29G 6G26G21G10G18G17
  23795803.982    -2598685.06049  -2033666.52145  23795802.049    23795812.669
       212.000         157.000
  20927838.320      846996.10949    640547.88448  20927837.410    20927844.133
       246.000         215.000
  21634088.522    -2740185.78749  -2146836.42547  21634086.444    21634095.062
       234.000         195.000
  23428408.746     3868510.20249   2980870.28546  23428409.120    23428418.136
       224.000         164.000
  22622780.232    -1801249.92749  -1412226.11946  22622780.145    22622786.532
       227.000         177.000
  20253418.865     -576948.05549   -470215.70148  20253418.120    20253424.399
       248.000         216.000
  22131455.634    -2852061.71249  -2226815.08046  22131455.202    22131461.021
       231.000         180.000
  24614231.757    -1619544.41349  -1264331.56445  24614232.851    24614243.897
       213.000         138.000
  23615173.443     3831162.64949   2949843.52245  23615173.016    23615180.149
       226.000         162.000
  21903743.298    -4252801.19649  -3317144.70447  21903742.595    21903748.267
       241.000         194.000
  21209521.916    -1950239.05149  -1530784.61747  21209521.264    21209527.820
       241.000         205.000
 02  7  9 15 42  0.0000000  0 11G22G23G15G30G29G 6G26G21G10G18G17
  23788663.651    -2636207.03449  -2062904.45245  23788661.203    23788671.389
       210.000         155.000
  20935405.738      886763.50949    671535.45248  20935405.161    20935411.554
       246.000         216.000
  21624855.095    -2788705.67249  -2184644.11447  21624853.885    21624861.985
       234.000         194.000
  23447740.204     3970097.13849   3060028.76846  23447742.466    23447748.718
       223.000         164.000
  22618942.897    -1821413.99649  -1427938.34346  22618942.022    22618949.336
       225.000         177.000
  20254711.718     -570153.71049   -464921.41648  20254711.485    20254717.146
       248.000         216.000
  22123072.235    -2896116.32549  -2261143.32646  22123071.147    22123077.376
       229.000         179.000
  24596660.734    -1711880.87949  -1336281.98745  24596661.146    24596668.757
       211.000         133.000
  23634591.257     3933200.87349   3029353.74245  23634588.925    23634597.889
       223.000         160.000
  21888536.075    -4332716.02149  -3379415.93847  21888535.202    21888541.126
       239.000         194.000
  21203652.048    -1981086.12149  -1554821.27547  21203650.968    21203657.933
       240.000         206.000
 02  7  9 15 42 30.0000000  0 11G22G23G15G30G29G 6G26G21G10G18G17
  23781621.442    -2673212.76549  -2091740.08245  23781620.007    23781629.383
       214.000         154.000
  20943051.153      926939.84849    702841.67548  20943050.408    20943056.985
       247.000         216.000
  21615654.555    -2837054.03149  -2222318.14547  21615653.315    21615660.892
       238.000         193.000
  23467081.144     4071734.07549   3139226.19345  23467079.709    23467090.350
       218.000         159.000
  22615201.551    -1841074.68549  -1443258.34946  22615201.422    22615208.548
       228.000         178.000
  20256094.142     -562889.60549   -459261.08648  20256093.858    20256099.648
       248.000         216.000
  22114789.900    -2939638.99349  -2295057.07646  22114789.590    22114794.868
       231.000         180.000
  24579119.656    -1804058.57249  -1408108.73244  24579118.700    24579129.945
       207.000         130.000
  23654030.938     4035357.13749   3108955.94745  23654028.037    23654037.299
       220.000         159.000
  21873396.198    -4412276.69849  -3441411.22147  21873395.204    21873401.262
       237.000         194.000
  21197810.960    -2011780.72549  -1578739.14647  21197809.992    21197816.842
       240.000         205.000
 02  7  9 15 43  0.0000000  0 11G22G23G15G30G29G 6G26G21G10G18G17
  23774677.912    -2709701.87449  -2120173.13545  23774677.413    23774685.290
       215.000         154.000
  20950773.827      967522.54049    734464.54648  20950772.912    20950779.587
       247.000         216.000
  21606486.703    -2885231.60449  -2259859.09847  21606486.591    21606492.331
       240.000         194.000
  23486430.720     4173417.66249   3218460.00045  23486429.543    23486439.523
       216.000         153.000
  22611556.075    -1860231.40049  -1458185.63746  22611555.526    22611562.042
       226.000         177.000
  20257565.901     -555155.54549   -453234.55148  20257565.569    20257571.179
       247.000         216.000
  22106609.275    -2982627.76149  -2328554.79246  22106608.314    22106615.439
       227.000         181.000
  24561609.203    -1896076.98049  -1479811.23745  24561609.831    24561620.163
       215.000         138.000
  23673492.200     4137628.45349   3188647.80545  23673490.234    23673499.182
       221.000         160.000
  21858323.622    -4491482.71449  -3503130.15647  21858323.078    21858328.487
       240.000         195.000
  21191998.877    -2042323.63949  -1602538.82247  21191997.915    21192004.860
       239.000         204.000
 02  7  9 15 43 30.0000000  0 11G22G23G15G30G29G 6G26G21G10G18G17
  23767832.937    -2745673.64049  -2148203.09745  23767832.342    23767840.391
       212.000         152.000
  20958573.343     1008509.39049    766402.34048  20958572.522    20958579.099
       246.000         215.000
  21597351.541    -2933238.57849  -2297267.11447  21597351.135    21597357.723
       241.000         196.000
  23505788.733     4275144.76149   3297727.71945  23505789.241    23505796.967
       216.000         151.000
  22608006.745    -1878882.91749  -1472719.28846  22608007.032    22608012.907
       229.000         177.000
  20259127.345     -546950.75549   -446841.22448  20259126.978    20259133.095
       246.000         216.000
  22098530.599    -3025080.40249  -2361634.75046  22098530.016    22098536.843
       229.000         180.000
  24544129.575    -1987934.57949  -1551388.41245  24544127.554    24544141.138
       209.000         142.000
  23692974.924     4240012.06949   3268427.15845  23692973.866    23692982.323
       223.000         161.000
  21843319.032    -4570332.64449  -3564571.61647  21843318.795    21843324.173
       241.000         196.000
  21186215.547    -2072715.07849  -1626220.45247  21186214.949    21186222.244
       241.000         205.000
 02  7  9 15 44  0.0000000  0 11G22G23G15G30G29G 6G26G21G10G18G17
  23761086.338    -2781127.25449  -2175829.36945  23761086.712    23761094.496
       214.000         151.000
  20966449.566     1049898.45349    798653.54348  20966449.119    20966455.416
       248.000         215.000
  21588248.694    -2981075.09549  -2334542.27947  21588247.697    21588254.440
       237.000         195.000
  23525154.428     4376912.43749   3377027.03145  23525155.953    23525163.053
       220.000         153.000
  22604553.959    -1897028.10149  -1486858.37346  22604553.903    22604560.532
       229.000         177.000
  20260778.330     -538274.51349   -440080.50948  20260777.935    20260783.967
       247.000         217.000
  22090554.549    -3066994.57249  -2394295.11546  22090553.828    22090560.105
       228.000         180.000
  24526679.936    -2079630.05649  -1622839.30845  24526680.233    24526691.508
       211.000         142.000
  23712478.583     4342505.55549   3348292.13845  23712476.594    23712485.069
       218.000         160.000
  21828382.583    -4648824.93749  -3625734.41047  21828381.486    21828387.532
       240.000         197.000
  21180461.006    -2102955.30349  -1649784.23347  21180459.923    21180467.313
       239.000         206.000
 02  7  9 15 44 30.0000000  0 11G22G23G15G30G29G 6G26G21G10G18G17
  23754438.487    -2816062.88149  -2203051.92545  23754436.176    23754445.444
       212.000         153.000
  20974401.806     1091686.89149    831215.95348  20974400.934    20974407.593
       248.000         216.000
  21579177.878    -3028742.12649  -2371685.40147  21579176.787    21579184.367
       237.000         195.000
  23544527.825     4478717.20049   3456355.21645  23544530.251    23544536.970
       218.000         153.000
  22601197.809    -1914666.33449  -1500602.42646  22601197.097    22601204.233
       227.000         178.000
  20262519.063     -529126.94249   -432952.54148  20262518.470    20262524.967
       247.000         217.000
  22082681.289    -3108368.57449  -2426534.56446  22082680.708    22082687.442
       228.000         181.000
  24509262.283    -2171162.89249  -1694163.54645  24509264.419    24509271.302
       212.000         142.000
  23732002.193     4445105.26549   3428239.90645  23732000.668    23732010.991
       221.000         158.000
  21813513.882    -4726959.19749  -3686618.18047  21813512.769    21813519.057
       238.000         196.000
  21174734.933    -2133045.32449  -1673231.00247  21174734.187    21174741.134
       241.000         205.000
 02  7  9 15 45  0.0000000  0 11G22G23G15G30G29G 6G26G21G10G18G17
  23747889.375    -2850479.35749  -2229869.97945  23747889.938    23747898.126
       219.000         157.000
  20982429.504     1133872.98649    864088.22248  20982428.537    20982434.828
       247.000         216.000
  21570139.178    -3076239.39049  -2408696.23447  21570137.894    21570146.379
       237.000         196.000
  23563907.351     4580556.27849   3535710.15645  23563907.546    23563917.395
       216.000         152.000
  22597938.196    -1931796.00249  -1513950.21446  22597938.413    22597944.170
       229.000         178.000
  20264349.741     -519506.74949   -425456.29848  20264349.483    20264355.594
       247.000         217.000
  22074911.304    -3149199.72549  -2458351.04646  22074911.017    22074917.506
       230.000         181.000
  24491875.568    -2262531.22649  -1765359.47645  24491873.009    24491885.230
       203.000         140.000
  23751546.441     4547809.50249   3508269.09745  23751546.237    23751554.386
       221.000         158.000
  21798713.803    -4804733.68849  -3747221.64047  21798713.065    21798719.076
       239.000         197.000
  21169037.588    -2162984.87649  -1696560.52147  21169036.361    21169043.842
       239.000         204.000
 02  7  9 15 45 30.0000000  0 11G22G23G15G30G29G 6G26G21G10G18G17
  23741439.281    -2884375.72549  -2256282.72145  23741437.835    23741446.603
       212.000         156.000
  20990532.543     1176454.86249    897268.89148  20990531.957    20990537.988
       247.000         216.000
  21561133.073    -3123566.69549  -2445574.64347  21561133.568    21561139.443
       240.000         198.000
  23583293.090     4682427.08249   3615089.82545  23583293.446    23583300.861
       216.000         154.000
  22594775.670    -1948415.76249  -1526900.68146  22594775.303    22594781.096
       229.000         179.000
  20266270.557     -509413.05949   -417591.08748  20266269.953    20266276.264
       246.000         217.000
  22067245.299    -3189485.67949  -2489742.67146  22067244.574    22067250.915
       229.000         180.000
  24474519.690    -2353733.88449  -1836426.29345  24474516.735    24474532.868
       201.000         139.000
  23771110.238     4650615.94649   3588377.93045  23771109.074    23771117.571
       220.000         158.000
  21783982.493    -4882146.75549  -3807543.46847  21783981.264    21783987.728
       237.000         197.000
  21163368.846    -2192774.19149  -1719772.95847  21163368.605    21163375.519
       241.000         205.000
 02  7  9 15 46  0.0000000  0 11G22G23G15G30G29G 6G26G21G10G18G17
  23735088.321    -2917750.84549  -2282289.30045  23735087.751    23735096.796
       216.000         156.000
  20998710.719     1219430.99449    930756.77448  20998709.636    20998716.602
       246.000         215.000
  21552159.862    -3170723.55549  -2482320.21447  21552158.501    21552166.125
       239.000         197.000
  23602683.809     4784326.94549   3694492.14345  23602684.172    23602693.619
       216.000         156.000
  22591710.550    -1964523.94549  -1539452.50846  22591709.295    22591716.442
       228.000         180.000
  20268281.572     -498844.64049   -409355.96748  20268281.231    20268287.506
       245.000         217.000
  22059683.294    -3229223.58949  -2520707.25746  22059682.580    22059688.852
       228.000         180.000
  24457196.551    -2444768.55349  -1907362.27045  24457196.615    24457208.370
       207.000         142.000
  23790692.489     4753522.63149   3668564.90645  23790691.577    23790698.145
       221.000         158.000
  21769320.264    -4959196.50949  -3867582.20247  21769319.524    21769325.677
       239.000         197.000
  21157729.033    -2222412.64049  -1742867.84147  21157728.429    21157735.588
       241.000         207.000
 02  7  9 15 46 30.0000000  0 11G22G23G15G30G29G 6G26G21G10G18G17
  23728836.436    -2950604.84549  -2307889.85545  23728834.530    23728845.180
       213.000         154.000
  21006963.201     1262798.51949    964549.65048  21006962.083    21006968.720
       247.000         215.000
  21543218.244    -3217711.13949  -2518933.89547  21543216.981    21543224.420
       238.000         195.000
  23622079.756     4886252.47749   3773914.46045  23622080.114    23622090.912
       217.000         157.000
  22588742.565    -1980120.25049  -1551605.46946  22588742.069    22588748.255
       226.000         179.000
  20270382.920     -487801.70449   -400751.08848  20270382.626    20270388.603
       247.000         217.000
  22052225.978    -3268411.98449  -2551243.65246  22052225.452    22052231.636
       227.000         180.000
  24439905.382    -2535634.59049  -1978166.83745  24439904.046    24439916.694
       210.000         147.000
  23810293.812     4856526.17149   3748827.33045  23810292.667    23810301.711
       223.000         161.000
  21754727.431    -5035882.59149  -3927337.55247  21754727.006    21754732.997
       240.000         198.000
  21152117.470    -2251901.47249  -1765846.14247  21152116.165    21152123.221
       240.000         205.000
 02  7  9 15 47  0.0000000  0 11G22G23G15G30G29G 6G26G21G10G18G17
  23722684.193    -2982936.04449  -2333082.96045  23722683.478    23722692.759
       212.000         155.000
  21015290.071     1306556.52249    998646.78448  21015289.868    21015295.194
       250.000         215.000
  21534309.102    -3264528.44349  -2555414.90447  21534307.299    21534315.117
       237.000         194.000
  23641480.388     4988201.64849   3853355.15445  23641481.213    23641489.991
       220.000         158.000
  22585872.474    -1995202.59449  -1563357.93846  22585871.946    22585877.777
       227.000         178.000
  20272574.997     -476282.64749   -391775.20848  20272574.469    20272580.531
       246.000         216.000
  22044873.905    -3307047.57249  -2581349.28446  22044873.222    22044880.824
       230.000         180.000
  24422646.360    -2626330.03549  -2048838.53445  24422646.434    24422656.740
       212.000         151.000
  23829913.697     4959625.52749   3829164.39946  23829912.945    23829920.570
       225.000         163.000
  21740204.278    -5112202.52249  -3986807.58647  21740203.890    21740209.368
       242.000         199.000
  21146534.415    -2281239.77349  -1788707.14847  21146533.639    21146540.223
       240.000         204.000
 02  7  9 15 47 30.0000000  0 11G22G23G15G30G29G 6G26G21G10G18G17
  23716631.634    -3014744.05549  -2357868.48345  23716631.118    23716638.651
       218.000         156.000
  21023691.092     1350702.52749   1033046.26748  21023690.052    21023696.394
       248.000         216.000
  21525432.179    -3311175.75949  -2591763.44947  21525431.494    21525438.523
       238.000         195.000
  23660884.809     5090171.21649   3932811.73445  23660883.871    23660894.858
       216.000         158.000
  22583100.008    -2009770.36449  -1574709.45046  22583099.855    22583106.259
       226.000         178.000
  20274857.585     -464287.27549   -382428.17548  20274857.298    20274863.291
       247.000         216.000
  22037627.266    -3345128.53949  -2611022.75846  22037627.598    22037634.036
       231.000         180.000
  24405419.762    -2716853.69349  -2119376.25645  24405415.652    24405430.190
       207.000         148.000
  23849550.426     5062817.65049   3909573.77446  23849548.781    23849556.524
       221.000         163.000
  21725750.883    -5188155.20049  -4045991.44047  21725750.056    21725756.238
       240.000         199.000
  21140980.103    -2310427.94649  -1811451.17147  21140979.175    21140985.809
       241.000         204.000
 02  7  9 15 48  0.0000000  0 11G22G23G15G30G29G 6G26G21G10G18G17
  23710678.886    -3046029.03949  -2382246.39745  23710678.049    23710686.639
       219.000         157.000
  21032164.941     1395233.76949   1067745.92448  21032163.896    21032170.636
       247.000         215.000
  21516587.837    -3357653.62649  -2627979.95047  21516587.616    21516594.167
       240.000         197.000
  23680292.328     5192157.85949   4012281.63445  23680292.105    23680301.950
       214.000         157.000
  22580425.829    -2023822.67249  -1585659.30846  22580425.407    22580431.410
       228.000         179.000
  20277231.013     -451815.37649   -372709.82248  20277230.575    20277236.634
       246.000         217.000
  22030486.708    -3382653.17049  -2640262.71046  22030486.122    22030493.698
       230.000         181.000
  24388225.311    -2807205.14149  -2189779.77445  24388223.814    24388237.341
       213.000         147.000
  23869203.783     5166099.62049   3990053.17545  23869202.575    23869211.013
       218.000         161.000
  21711367.639    -5263740.17549  -4104888.78447  21711367.273    21711372.885
       240.000         200.000
  21135454.216    -2339466.81749  -1834078.83847  21135453.730    21135460.376
       241.000         205.000
 02  7  9 15 48 30.0000000  0 11G22G23G15G30G29G 6G26G21G10G18G17
  23704825.397    -3076788.19549  -2406214.57245  23704824.601    23704833.165
       213.000         156.000
  21040712.304     1440150.25149   1102745.76348  21040711.668    21040718.013
       247.000         215.000
  21507776.209    -3403960.25749  -2664062.99747  21507775.157    21507782.699
       241.000         199.000
  23699702.989     5294160.73149   4091764.16645  23699703.187    23699712.785
       214.000         156.000
  22577850.568    -2037356.64149  -1596205.27746  22577850.399    22577856.611
       227.000         179.000
  20279695.578     -438864.18049   -362617.99148  20279695.229    20279700.856
       246.000         216.000
  22023452.561    -3419617.23349  -2669065.85846  22023451.642    22023458.588
       230.000         181.000
  24371065.699    -2897380.38949  -2260046.03345  24371065.972    24371076.342
       220.000         150.000
  23888874.112     5269471.38949   4070602.52445  23888873.337    23888882.373
       219.000         159.000
  21697054.951    -5338953.88849  -4163496.82647  21697054.462    21697059.728
       240.000         198.000
  21129957.131    -2368354.37549  -1856588.60847  21129956.286    21129963.071
       240.000         205.000
 02  7  9 15 49  0.0000000  0 11G22G23G15G30G29G 6G26G21G10G18G17
  23699071.783    -3107021.92949  -2429773.30245  23699069.635    23699078.088
       215.000         155.000
  21049332.381     1485448.82949   1138043.36448  21049331.511    21049338.153
       248.000         215.000
  21498996.867    -3450096.80249  -2700013.54247  21498995.795    21499002.986
       242.000         200.000
  23719115.510     5396175.95849   4171256.33845  23719115.258    23719125.728
       207.000         154.000
  22575373.916    -2050372.09649  -1606347.18546  22575373.604    22575379.815
       228.000         179.000
  20282251.344     -425434.02349   -352152.93948  20282251.290    20282256.700
       247.000         216.000
  22016525.517    -3456019.58149  -2697431.33046  22016525.297    22016531.407
       230.000         180.000
  24353939.590    -2987379.55549  -2330175.04145  24353937.090    24353951.086
       211.000         150.000
  23908561.628     5372929.31149   4151219.01445  23908561.487    23908569.248
       220.000         157.000
  21682812.931    -5413796.21949  -4221815.49147  21682812.161    21682818.154
       241.000         198.000
  21124488.553    -2397091.81749  -1878981.40947  21124487.681    21124494.455
       240.000         204.000
 02  7  9 15 49 30.0000000  0 11G22G23G15G30G29G 6G26G21G10G18G17
  23693418.343    -3136729.12849  -2452921.81445  23693415.909    23693426.295
       214.000         157.000
  21058024.921     1531128.09749   1173637.58248  21058024.083    21058029.799
       248.000         215.000
  21490249.786    -3496062.64349  -2735831.08247  21490248.900    21490255.041
       239.000         197.000
  23738530.318     5498201.27649   4250756.34745  23738532.246    23738540.309
       216.000         154.000
  22572996.155    -2062867.36849  -1616083.77846  22572995.710    22573001.840
       229.000         179.000
  20284898.515     -411523.79249   -341313.81348  20284897.708    20284904.159
       246.000         216.000
  22009706.002    -3491857.55449  -2725357.01146  22009705.168    22009711.770
       230.000         182.000
  24336846.525    -3077200.71949  -2400165.42845  24336845.922    24336856.771
       215.000         147.000
  23928265.072     5476471.51949   4231901.18245  23928263.668    23928272.884
       219.000         156.000
  21668641.960    -5488265.23249  -4279843.26947  21668640.552    21668646.856
       238.000         198.000
  21119048.517    -2425678.71649  -1901256.91647  21119047.588    21119054.791
       240.000         205.000
 02  7  9 15 50  0.0000000  0 11G22G23G15G30G29G 6G26G21G10G18G17
  23687865.246    -3165910.61249  -2475660.64145  23687862.284    23687871.452
       213.000         158.000
  21066789.131     1577184.55149   1209525.72248  21066788.246    21066793.944
       247.000         214.000
  21481535.066    -3541858.92049  -2771516.48147  21481533.574    21481540.589
       236.000         194.000
  23757947.032     5600232.58649   4330261.00845  23757947.525    23757955.917
       215.000         151.000
  22570717.230    -2074842.85549  -1625415.34246  22570715.968    22570723.576
       226.000         180.000
  20287636.699     -397134.13049   -330101.09448  20287636.102    20287641.902
       247.000         216.000
  22002993.747    -3527130.21549  -2752842.18546  22002992.965    22002999.270
       229.000         181.000
  24319787.835    -3166843.68749  -2470016.96345  24319787.012    24319798.178
       216.000         146.000
  23947983.557     5580094.52949   4312646.34345  23947983.446    23947993.669
       218.000         155.000
  21654541.588    -5562361.03549  -4337580.22047  21654540.504    21654547.502
       239.000         197.000
  21113637.102    -2454116.44049  -1923416.16747  21113636.574    21113643.329
       242.000         205.000
 02  7  9 15 50 30.0000000  0 11G22G23G15G30G29G 6G26G21G10G18G17
  23682411.891    -3194565.45549  -2497989.11945  23682410.948    23682419.487
       217.000         157.000
  21075624.752     1623616.59749   1245706.53848  21075624.029    21075630.487
       248.000         214.000
  21472852.411    -3587485.52049  -2807069.64147  21472851.284    21472859.403
       237.000         195.000
  23777363.849     5702267.25749   4409768.31245  23777365.083    23777373.486
       214.000         150.000
  22568537.078    -2086297.30749  -1634340.92446  22568537.257    22568543.389
       228.000         180.000
  20290466.413     -382264.23349   -318514.16748  20290465.633    20290472.052
       246.000         216.000
  21996389.520    -3561835.34049  -2779885.13446  21996389.077    21996394.985
       231.000         180.000
  24302763.594    -3256307.15049  -2539728.58945  24302763.117    24302773.966
       220.000         147.000
  23967717.798     5683796.15749   4393452.72445  23967717.614    23967726.017
       220.000         155.000
  21640512.874    -5636082.02749  -4395025.12247  21640512.075    21640518.571
       238.000         198.000
  21108254.090    -2482404.89749  -1945459.11047  21108253.350    21108259.916
       241.000         205.000
 02  7  9 15 51  0.0000000  0 11G22G23G15G30G29G 6G26G21G10G18G17
  23677059.354    -3222693.74349  -2519907.30045  23677058.334    23677066.766
       217.000         158.000
  21084531.519     1670421.60349   1282177.95848  21084530.803    21084537.357
       246.000         215.000
  21464202.173    -3632942.73949  -2842490.81147  21464201.493    21464208.449
       241.000         198.000
  23796780.688     5804302.27749   4489275.88345  23796780.572    23796790.137
       213.000         151.000
  22566456.782    -2097230.22649  -1642860.08446  22566457.087    22566464.151
       228.000         180.000
  20293387.415     -366913.95849   -306552.92448  20293387.080    20293393.030
       247.000         216.000
  21989893.565    -3595971.11549  -2806484.46346  21989892.934    21989899.268
       227.000         180.000
  24285774.202    -3345589.86349  -2609299.38945  24285774.628    24285785.265
       220.000         150.000
  23987466.825     5787573.80149   4474318.32445  23987466.353    23987473.630
       216.000         153.000
  21626555.725    -5709427.31549  -4452177.26047  21626554.968    21626561.243
       238.000         198.000
  21102899.298    -2510544.67849  -1967386.19947  21102898.308    21102904.637
       240.000         205.000
 02  7  9 15 51 30.0000000  0 11G22G23G15G30G29G 6G26G21G10G18G17
  23671807.363    -3250294.12649  -2541414.08645  23671806.539    23671815.491
       217.000         158.000
  21093508.752     1717598.01049   1318938.78148  21093507.998    21093514.274
       247.000         214.000
  21455584.530    -3678230.20749  -2877779.73947  21455583.209    21455590.524
       240.000         200.000
  23816196.778     5906335.30849   4568781.95045  23816197.919    23816207.222
       219.000         153.000
  22564476.019    -2107639.82349  -1650971.47646  22564475.818    22564483.027
       227.000         181.000
  20296400.173     -351082.07649   -294216.40548  20296399.815    20296405.806
       247.000         216.000
  21983506.467    -3629534.86149  -2832637.99946  21983505.916    21983512.479
       229.000         181.000
  24268819.285    -3434690.18449  -2678728.04745  24268816.058    24268829.631
       213.000         148.000
  24007229.061     5891425.67349   4555241.79345  24007227.952    24007237.062
       213.000         151.000
  21612670.465    -5782395.14149  -4509035.26547  21612669.300    21612676.112
       238.000         199.000
  21097572.926    -2538535.08449  -1989196.88647  21097572.045    21097578.849
       241.000         205.000
 02  7  9 15 52  0.0000000  0 11G22G23G15G30G29G 6G26G21G10G18G17
  23666655.836    -3277365.96149  -2562509.05345  23666655.475    23666663.894
       220.000         157.000
  21102556.540     1765144.16849   1355987.72548  21102555.585    21102562.051
       247.000         214.000
  21446998.837    -3723347.55649  -2912936.11247  21446997.662    21447005.305
       237.000         198.000
  23835612.750     6008363.95449   4648284.57445  23835614.877    23835620.746
       221.000         153.000
  22562594.973    -2117524.80349  -1658674.06846  22562595.460    22562601.877
       228.000         180.000
  20299504.706     -334767.78749   -281503.98848  20299504.346    20299510.125
       247.000         216.000
  21977228.641    -3662524.19149  -2858343.97946  21977228.022    21977233.955
       228.000         180.000
  24251898.160    -3523606.22849  -2748013.09145  24251893.733    24251911.259
       203.000         144.000
  24027005.328     5995349.83449   4636221.55445  24027004.751    24027011.981
       215.000         149.000
  21598857.133    -5854983.80449  -4565597.82747  21598857.052    21598863.074
       241.000         201.000
  21092275.057    -2566375.76949  -2010890.92447  21092274.502    21092281.295
       242.000         206.000
 02  7  9 15 52 30.0000000  0 11G22G23G15G30G29G 6G26G21G10G18G17
  23661605.672    -3303908.78149  -2583191.76045  23661605.292    23661613.624
       218.000         158.000
  21111674.245     1813057.82349   1393323.03748  21111673.682    21111680.362
       248.000         215.000
  21438445.484    -3768294.92549  -2947960.04047  21438444.284    21438451.791
       236.000         196.000
  23855027.345     6110385.42649   4727781.62345  23855028.358    23855037.019
       219.000         153.000
  22560814.091    -2126884.37449  -1665967.27246  22560813.014    22560820.519
       228.000         180.000
  20302701.262     -317970.57849   -268415.25748  20302700.823    20302706.648
       247.000         216.000
  21971060.920    -3694937.12249  -2883600.80946  21971061.081    21971066.401
       231.000         181.000
  24235012.347    -3612336.73049  -2817153.59345  24235012.450    24235022.866
       212.000         143.000
  24046795.417     6099344.11649   4717255.97445  24046794.531    24046801.994
       214.000         147.000
  21585116.423    -5927192.20949  -4621864.07847  21585115.885    21585121.968
       240.000         201.000
  21087005.640    -2594067.07249  -2032468.53747  21087004.151    21087011.510
       240.000         205.000
 02  7  9 15 53  0.0000000  0 11G22G23G15G30G29G 6G26G21G10G18G17
  23656655.074    -3329923.01649  -2603462.65245  23656653.470    23656663.833
       217.000         159.000
  21120861.390     1861336.08849   1430942.45548  21120860.493    21120866.789
       247.000         214.000
  21429924.373    -3813073.20749  -2982852.17347  21429923.583    21429930.353
       239.000         196.000
  23874439.198     6212396.01249   4807270.16945  23874439.859    23874448.036
       216.000         151.000
  22559133.001    -2135718.61049  -1672851.10646  22559133.037    22559139.081
       229.000         179.000
  20305989.505     -300690.71549   -254950.44448  20305988.946    20305994.511
       246.000         216.000
  21965002.964    -3726772.54049  -2908407.60446  21965003.235    21965007.989
       231.000         181.000
  24218163.498    -3700881.65849  -2886149.43945  24218163.005    24218174.323
       214.000         147.000
  24066598.183     6203405.49449   4798342.67945  24066596.932    24066604.542
       215.000         146.000
  21571447.926    -5999020.02949  -4677833.77947  21571447.028    21571453.711
       239.000         200.000
  21081764.154    -2621609.73749  -2053930.35147  21081763.179    21081770.059
       241.000         205.000
 02  7  9 15 53 30.0000000  0 11G22G23G15G30G29G 6G26G21G10G18G17
  23651805.241    -3355408.06849  -2623321.19545  23651804.506    23651811.195
       217.000         157.000
  21130117.361     1909976.97849   1468844.43148  21130116.375    21130122.786
       246.000         213.000
  21421435.694    -3857682.07549  -3017612.27947  21421434.749    21421441.683
       239.000         197.000
  23893848.833     6314393.05749   4886748.17945  23893850.102    23893858.141
       215.000         150.000
  22557552.234    -2144026.39249  -1679324.72546  22557552.142    22557559.452
       228.000         179.000
  20309369.675     -282927.53349   -241109.01048  20309369.136    20309375.212
       246.000         215.000
  21959055.527    -3758028.26449  -2932762.70646  21959055.382    21959061.421
       230.000         182.000
  24201349.834    -3789238.78049  -2954998.98645  24201350.074    24201358.989
       214.000         148.000
  24086412.781     6307531.77349   4879479.96245  24086411.145    24086418.190
       215.000         144.000
  21557852.124    -6070466.09949  -4733505.99047  21557851.650    21557857.903
       240.000         200.000
  21076551.236    -2649003.79749  -2075276.36947  21076550.388    21076557.040
       241.000         205.000
 02  7  9 15 54  0.0000000  0 11G22G23G15G30G29G 6G26G21G10G18G17
  23647056.815    -3380362.50449  -2642766.21545  23647056.543    23647063.235
       220.000         157.000
  21139442.207     1958979.41549   1507028.13348  21139441.419    21139447.976
       247.000         214.000
  21412979.346    -3902120.29449  -3052239.44647  21412978.384    21412985.570
       239.000         198.000
  23913255.634     6416375.03349   4966214.47245  23913255.308    23913263.712
       212.000         146.000
  22556071.532    -2151805.56949  -1685386.42846  22556070.957    22556077.856
       226.000         179.000
  20312842.201     -264679.47749   -226889.75348  20312841.393    20312847.275
       246.000         215.000
  21953218.513    -3788701.29649  -2956663.76946  21953218.933    21953223.854
       232.000         182.000
  24184572.199    -3877406.30049  -3023700.83245  24184570.960    24184584.206
       211.000         148.000
  24106239.328     6411721.55849   4960666.72745  24106238.488    24106247.050
       216.000         144.000
  21544329.667    -6141527.81849  -4788878.72847  21544328.492    21544335.087
       238.000         199.000
  21071366.839    -2676248.07449  -2096505.67247  21071365.597    21071372.556
       241.000         205.000
 02  7  9 15 54 30.0000000  0 11G22G23G15G30G29G 6G26G21G10G18G17
  23642408.923    -3404786.37849  -2661797.84145  23642406.792    23642416.189
       214.000         158.000
  21148835.387     2008340.76549   1545491.51648  21148834.936    21148840.908
       249.000         214.000
  21404555.465    -3946388.25749  -3086733.96447  21404554.515    21404561.184
       239.000         198.000
  23932658.550     6518338.62449   5045666.38645  23932661.113    23932669.174
       212.000         143.000
  22554691.667    -2159056.03949  -1691036.16746  22554691.912    22554698.697
       227.000         179.000
  20316406.848     -245946.61549   -212292.73248  20316406.434    20316412.179
       247.000         215.000
  21947492.973    -3818790.25349  -2980109.69046  21947491.368    21947499.064
       229.000         182.000
  24167830.910    -3965383.78449  -3092254.61345  24167831.119    24167841.286
       215.000         150.000
  24126077.506     6515972.14549   5041900.89245  24126075.905    24126086.978
       214.000         145.000
  21530880.082    -6212204.66749  -4843951.55347  21530879.352    21530885.602
       240.000         200.000
  21066210.720    -2703343.31849  -2117618.83247  21066209.976    21066216.751
       242.000         205.000
 02  7  9 15 55  0.0000000  0 11G22G23G15G30G29G 6G26G21G10G18G17
  23637861.702    -3428680.87349  -2680416.94445  23637858.881    23637870.478
       213.000         155.000
  21158296.274     2058057.48549   1584231.80348  21158295.397    21158302.028
       247.000         214.000
  21396163.715    -3990487.42649  -3121096.95447  21396162.275    21396170.317
       238.000         198.000
  23952058.460     6620279.74249   5125100.80445  23952052.709    23952071.147
       207.000         137.000
  22553412.510    -2165778.49449  -1696274.44346  22553411.798    22553419.480
       228.000         179.000
  20320063.594     -226729.93249   -197318.71248  20320063.123    20320068.991
       247.000         215.000
  21941878.569    -3848294.52949  -3003100.04546  21941878.084    21941884.549
       232.000         182.000
  24151125.626    -4053171.28249  -3160660.30845  24151124.944    24151134.541
       217.000         151.000
  24145926.496     6620280.15149   5123179.75445  24145925.104    24145932.373
       215.000         146.000
  21517503.902    -6282496.81549  -4898724.62147  21517503.302    21517509.547
       240.000         200.000
  21061082.804    -2730290.98949  -2138617.00147  21061081.996    21061088.671
       241.000         205.000
 02  7  9 15 55 30.0000000  0 11G22G23G15G30G29G 6G26G21G10G18G17
  23633415.435    -3452043.95349  -2698621.94145  23633413.558    23633423.056
       214.000         154.000
  21167824.543     2108129.24849   1623248.75248  21167823.731    21167830.656
       247.000         214.000
  21387804.322    -4034416.18449  -3155327.12347  21387802.802    21387810.175
       237.000         197.000
  23971452.393     6722197.32749   5204516.88944  23971451.889    23971460.135
       205.000         129.000
  22552234.341    -2171970.09249  -1701099.07546  22552234.063    22552241.405
       229.000         179.000
  20323812.900     -207027.22649   -181965.96548  20323812.148    20323818.632
       246.000         215.000
  21936376.285    -3877210.57749  -3025632.00546  21936375.243    21936382.024
       231.000         182.000
  24134457.119    -4140765.19349  -3228915.13145  24134454.385    24134465.829
       215.000         152.000
  24165785.962     6724645.01549   5204502.96945  24165784.735    24165793.406
       212.000         145.000
  21504201.574    -6352401.32949  -4953195.62647  21504201.091    21504207.032
       241.000         202.000
  21055983.189    -2757089.10949  -2159498.64247  21055981.897    21055989.260
       240.000         205.000
 02  7  9 15 56  0.0000000  0 11G22G23G15G30G29G 6G26G21G10G18G17
  23629071.246    -3474874.14249  -2716411.73245  23629071.784    23629078.730
       217.000         155.000
  21177420.279     2158554.85749   1662541.43047  21177419.548    21177426.024
       246.000         212.000
  21379477.547    -4078173.54849  -3189423.73447  21379476.876    21379483.034
       241.000         198.000
  23990841.722     6824089.51149   5283913.24744  23990844.234    23990853.094
       203.000         125.000
  22551157.643    -2177629.32049  -1705508.86046  22551156.999    22551164.709
       229.000         179.000
  20327654.876     -186837.25849   -166233.53548  20327654.528    20327660.604
       246.000         215.000
  21930986.122    -3905535.66349  -3047703.48746  21930985.635    21930991.626
       232.000         182.000
  24117825.278    -4228163.71449  -3297017.77945  24117825.347    24117835.430
       216.000         152.000
  24185656.011     6829065.32749   5285869.37845  24185654.770    24185666.102
       212.000         146.000
  21490973.305    -6421916.32549  -5007363.11847  21490972.479    21490978.849
       241.000         202.000
  21050912.128    -2783737.09249  -2180263.29147  21050911.447    21050918.288
       241.000         205.000
 02  7  9 15 56 30.0000000  0 11G22G23G15G30G29G 6G26G21G10G18G17
  23624828.209    -3497172.51449  -2733787.15645  23624827.802    23624835.876
       214.000         155.000
  21187082.618     2209330.89149   1702107.15147  21187081.499    21187088.352
       246.000         211.000
  21371183.379    -4121760.77649  -3223387.79547  21371182.428    21371189.783
       242.000         200.000
  24010225.858     6925952.41249   5363286.67044  24010225.936    24010235.175
       207.000         125.000
  22550181.945    -2182756.66649  -1709504.20246  22550181.684    22550188.824
       229.000         180.000
  20331589.600     -166160.81849   -150122.03448  20331589.244    20331595.463
       247.000         216.000
  21925708.489    -3933269.17649  -3069313.99146  21925707.159    21925713.911
       229.000         182.000
  24101231.397    -4315366.53749  -3364967.87845  24101229.736    24101240.131
       220.000         155.000
  24205536.333     6933537.54849   5367276.21245  24205534.487    24205545.763
       209.000         146.000
  21477819.193    -6491041.67449  -5061226.98547  21477818.456    21477824.967
       240.000         201.000
  21045869.670    -2810236.09049  -2200911.86247  21045868.938    21045875.619
       242.000         206.000
 02  7  9 15 57  0.0000000  0 11G22G23G15G30G29G 6G26G21G10G18G17
  23620685.963    -3518939.31549  -2750748.28045  23620684.251    23620693.246
       214.000         155.000
  21196811.159     2260455.01149   1741944.12047  21196810.573    21196816.846
       247.000         212.000
  21362921.246    -4165178.10649  -3257219.45847  21362919.549    21362927.633
       237.000         199.000
  24029604.130     7027783.19649   5442635.12144  24029603.502    24029612.184
       201.000         124.000
  22549307.587    -2187351.62749  -1713084.68146  22549307.459    22549314.234
       229.000         179.000
  20335617.011     -144997.73649   -133631.32648  20335616.626    20335622.598
       247.000         216.000
  21920543.554    -3960409.54549  -3090462.31246  21920542.994    21920549.480
       229.000         182.000
  24084674.388    -4402373.06449  -3432765.02145  24084672.078    24084683.576
       215.000         157.000
  24225426.060     7038059.27949   5448721.62345  24225424.967    24225435.400
       208.000         146.000
  21464739.302    -6559776.70749  -5114786.70347  21464738.091    21464745.006
       237.000         200.000
  21040855.313    -2836586.45049  -2221444.58647  21040854.669    21040861.764
       241.000         206.000
 02  7  9 15 57 30.0000000  0 11G22G23G15G30G29G 6G26G21G10G18G17
  23616645.248    -3540172.67849  -2767293.77045  23616646.016    23616655.012
       222.000         158.000
  21206605.915     2311926.24049   1782051.57048  21206604.883    21206611.292
       246.000         213.000
  21354691.613    -4208424.10749  -3290917.60947  21354690.365    21354697.776
       236.000         197.000
  24048975.520     7129580.08649   5521957.20144  24048977.559    24048984.456
       204.000         127.000
  22548535.015    -2191412.37149  -1716248.90546  22548535.254    22548542.508
       230.000         180.000
  20339737.128     -123346.37149   -116760.14248  20339736.493    20339742.430
       247.000         216.000
  21915492.085    -3986953.78449  -3111146.11846  21915492.210    21915497.417
       231.000         181.000
  24068154.632    -4489180.62049  -3500407.12245  24068153.574    24068166.269
       219.000         159.000
  24245324.875     7142629.69749   5530204.98045  24245324.141    24245334.350
       209.000         147.000
  21451734.209    -6628119.08949  -5168040.48447  21451732.824    21451739.777
       239.000         200.000
  21035869.556    -2862786.78349  -2241860.40547  21035868.941    21035875.965
       243.000         206.000
 02  7  9 15 58  0.0000000  0 11G22G23G15G30G29G 6G26G21G10G18G17
  23612706.336    -3560874.25449  -2783424.90345  23612706.054    23612714.316
       219.000         161.000
  21216465.934     2363740.97549   1822426.67547  21216464.817    21216471.222
       245.000         212.000
  21346494.468    -4251500.27149  -3324483.42847  21346493.800    21346500.486
       241.000         199.000
  24068339.415     7231339.09149   5601249.79144  24068339.265    24068352.361
       201.000         131.000
  22547863.909    -2194939.71049  -1718997.46246  22547863.749    22547870.264
       230.000         180.000
  20343949.790     -101208.08949    -99509.54748  20343949.177    20343955.452
       246.000         216.000
  21910554.330    -4012901.61549  -3131365.19146  21910553.879    21910560.139
       230.000         181.000
  24051673.468    -4575789.85849  -3567894.69345  24051673.893    24051684.225
       220.000         160.000
  24265232.580     7247245.18749   5611723.45145  24265231.440    24265240.415
       209.000         148.000
  21438803.559    -6696069.16749  -5220988.56347  21438803.045    21438809.769
       240.000         202.000
  21030912.104    -2888838.69249  -2262160.59747  21030911.753    21030917.998
       243.000         205.000
 02  7  9 15 58 30.0000000  0 11G22G23G15G30G29G 6G26G21G10G18G17
  23608868.508    -3581044.68649  -2799142.12645  23608867.751    23608876.023
       216.000         160.000
  21226390.683     2415896.30049   1863067.16547  21226390.016    21226396.730
       244.000         211.000
  21338329.629    -4294407.33449  -3357917.49147  21338328.682    21338336.426
       241.000         201.000
  24087695.643     7333056.40549   5680509.82545  24087696.685    24087707.823
       206.000         135.000
  22547294.184    -2197933.68649  -1721330.42046  22547294.083    22547300.193
       229.000         178.000
  20348255.144      -78583.21149    -81879.79448  20348254.616    20348260.582
       247.000         216.000
  21905730.259    -4038252.25549  -3151118.90946  21905729.889    21905735.792
       232.000         182.000
  24035230.476    -4662200.17749  -3635227.24145  24035229.377    24035238.760
       219.000         159.000
  24285148.659     7351902.60249   5693274.60945  24285149.441    24285157.083
       210.000         149.000
  21425947.759    -6763626.98849  -5273630.97847  21425947.046    21425953.898
       240.000         203.000
  21025982.757    -2914743.09749  -2282345.83947  21025982.175    21025989.000
       243.000         206.000
 02  7  9 15 59  0.0000000  0 11G22G23G15G30G29G 6G26G21G10G18G17
  23605131.435    -3600683.51249  -2814445.14545  23605128.290    23605138.235
       209.000         153.000
  21236379.985     2468390.01049   1903971.34347  21236379.550    21236386.082
       245.000         211.000
  21330196.957    -4337145.06449  -3391219.60747  21330195.403    21330203.650
       238.000         201.000
  24107043.873     7434729.61049   5759735.50745  24107043.491    24107050.027
       198.000         134.000
  22546826.159    -2200393.74549  -1723247.33946  22546825.448    22546832.743
       229.000         179.000
  20352653.167      -55471.48049    -63870.66848  20352652.392    20352658.831
       246.000         216.000
  21901020.346    -4063003.84049  -3170405.84846  21901020.209    21901025.540
       230.000         182.000
  24018825.229    -4748410.06949  -3702403.59245  24018823.594    24018834.835
       217.000         157.000
  24305072.929     7456599.83449   5774856.75645  24305071.939    24305080.662
       211.000         148.000
  21413166.871    -6830791.13849  -5325966.64747  21413166.114    21413172.657
       241.000         203.000
  21021081.420    -2940499.80149  -2302415.99047  21021080.149    21021087.374
       241.000         205.000
 02  7  9 15 59 30.0000000  0 11G22G23G15G30G29G 6G26G21G10G18G17
  23601495.342    -3619788.93649  -2829332.48445  23601494.026    23601503.436
       215.000         150.000
  21246433.597     2521221.56249   1945138.78047  21246432.371    21246438.876
       245.000         211.000
  21322096.497    -4379712.11049  -3424388.69847  21322095.101    21322102.412
       237.000         199.000
  24126383.544     7536357.81649   5838926.10445  24126383.462    24126392.664
       199.000         132.000
  22546459.931    -2202317.49749  -1724746.34346  22546458.921    22546465.558
       229.000         179.000
  20357144.154      -31870.90349    -45480.63048  20357143.913    20357149.754
       247.000         216.000
  21896424.903    -4087153.09649  -3189223.42646  21896424.990    21896430.168
       232.000         183.000
  24002458.459    -4834416.85149  -3769421.68345  24002458.134    24002468.337
       220.000         157.000
  24325004.327     7561336.65149   5856469.73245  24325002.471    24325011.251
       207.000         148.000
  21400461.476    -6897558.91949  -5377993.44447  21400461.119    21400466.984
       241.000         203.000
  21016208.355    -2966107.09849  -2322369.70647  21016206.873    21016214.372
       241.000         205.000
 02  7  9 16  0  0.0000000  0 11G22G23G15G30G29G 6G26G21G10G18G17
  23597960.779    -3638361.02149  -2843804.23145  23597960.372    23597970.035
       214.000         151.000
  21256550.827     2574388.89349   1986567.86047  21256550.486    21256556.408
       247.000         211.000
  21314028.798    -4422108.31749  -3457424.67047  21314028.255    21314034.388
       241.000         199.000
  24145714.069     7637938.35849   5918079.53044  24145711.262    24145725.476
       196.000         130.000
  22546196.223    -2203704.41849  -1725827.04546  22546196.693    22546202.219
       230.000         180.000
  20361728.270       -7781.23549    -26709.47648  20361728.009    20361734.492
       247.000         216.000
  21891944.192    -4110698.43349  -3207570.42046  21891943.633    21891950.334
       231.000         183.000
  23986130.727    -4920219.49749  -3836280.74045  23986129.788    23986141.375
       221.000         158.000
  24344942.451     7666110.86649   5938111.89945  24344940.948    24344949.774
       209.000         147.000
  21387831.587    -6963929.33849  -5429710.61647  21387830.533    21387837.156
       241.000         203.000
  21011363.797    -2991564.94049  -2342206.98747  21011362.886    21011369.812
       241.000         206.000
 02  7  9 16  0 30.0000000  0 11G22G23G15G30G29G 6G26G21G10G18G17
  23594528.021    -3656400.02349  -2857860.55345  23594526.789    23594536.838
       213.000         153.000
  21266731.918     2627889.58149   2028256.68947  21266731.138    21266737.986
       245.000         212.000
  21305993.587    -4464333.80249  -3490327.63247  21305992.498    21305999.162
       239.000         199.000
  24165034.519     7739468.14249   5997193.42744  24165034.625    24165043.999
       201.000         131.000
  22546034.644    -2204554.40649  -1726489.35946  22546034.805    22546039.416
       230.000         178.000
  20366405.584       16797.44449     -7557.27848  20366405.491    20366411.289
       248.000         217.000
  21887578.767    -4133638.42949  -3225445.73146  21887577.635    21887585.122
       230.000         182.000
  23969841.748    -5005817.18049  -3902980.07445  23969839.156    23969852.645
       217.000         155.000
  24364887.408     7770920.02249   6019781.28145  24364887.339    24364894.246
       206.000         145.000
  21375277.373    -7029901.60449  -5481117.54147  21375276.634    21375282.831
       243.000         204.000
  21006547.691    -3016873.88649  -2361928.23747  21006547.140    21006554.186
       242.000         207.000
 02  7  9 16  1  0.0000000  0 11G22G23G15G30G29G 6G26G21G10G18G17
  23591196.989    -3673905.27049  -2871501.09445  23591196.934    23591203.039
       216.000         153.000
  21276975.665     2681721.57249   2070203.69747  21276974.687    21276981.645
       244.000         212.000
  21297990.735    -4506388.41249  -3523097.43147  21297989.988    21297996.757
       240.000         199.000
  24184344.989     7840944.66949   6076265.84444  24184346.535    24184353.278
       202.000         128.000
  22545975.401    -2204866.35549  -1726732.40446  22545975.716    22545980.542
       231.000         179.000
  20371176.066       41865.76249     11976.45948  20371175.699    20371181.765
       247.000         217.000
  21883328.819    -4155971.24449  -3242847.90346  21883327.987    21883335.560
       230.000         183.000
  23953592.223    -5091208.12249  -3969518.33745  23953592.053    23953599.011
       220.000         151.000
  24384837.871     7875762.38048   6101476.51245  24384834.990    24384845.023
       194.000         142.000
  21362799.267    -7095474.66249  -5532213.39147  21362798.792    21362804.897
       242.000         204.000
  21001760.068    -3042033.40349  -2381533.03147  21001759.454    21001765.804
       242.000         206.000
 02  7  9 16  1 30.0000000  0 11G22G23G15G30G29G 6G26G21G10G18G17
  23587967.686    -3690876.62949  -2884725.57045  23587966.551    23587975.620
       214.000         153.000
  21287282.367     2735883.17349   2112407.51847  21287282.121    21287287.845
       245.000         211.000
  21290020.729    -4548271.52449  -3555733.59847  21290019.646    21290027.085
       239.000         200.000
  24203645.279     7942365.89149   6155295.17944  24203646.214    24203654.525
       200.000         127.000
  22546018.765    -2204639.61749  -1726555.69246  22546018.586    22546023.541
       230.000         179.000
  20376039.726       67424.31849     31892.19748  20376038.992    20376044.720
       246.000         216.000
  21879194.929    -4177694.98449  -3259775.46546  21879194.719    21879200.961
       233.000         183.000
  23937382.504    -5176391.04049  -4035894.49545  23937381.616    23937388.302
       223.000         152.000
  24404792.862     7980636.28648   6183196.38445  24404789.386    24404801.907
       189.000         138.000
  21350397.474    -7160646.85749  -5582996.87547  21350397.188    21350402.277
       243.000         204.000
  20997001.005    -3067043.02149  -2401021.04547  20997000.189    20997006.914
       242.000         206.000
 02  7  9 16  2  0.0000000  0 11G22G23G15G30G29G 6G26G21G10G18G17
  23584839.462    -3707316.01549  -2897535.51545  23584838.936    23584847.057
       215.000         155.000
  21297650.948     2790370.02149   2154864.78147  21297649.574    21297656.603
       243.000         211.000
  21282082.867    -4589985.31149  -3588237.83347  21282081.591    21282089.219
       239.000         201.000
  24222933.008     8043726.92749   6234277.58244  24222931.773    24222941.555
       196.000         122.000
  22546164.224    -2203875.76749  -1725960.46946  22546163.536    22546168.549
       230.000         179.000
  20380996.178       93471.09449     52188.37748  20380995.550    20381001.702
       247.000         216.000
  21875176.957    -4198810.30749  -3276228.95046  21875176.990    21875182.737
       232.000         184.000
  23921212.047    -5261366.69949  -4102109.16045  23921209.971    23921220.559
       221.000         155.000
  24424754.357     8085537.38949   6264937.35545  24424754.754    24424764.224
       196.000         138.000
  21338071.741    -7225419.74849  -5633469.21247  21338071.461    21338077.239
       244.000         205.000
  20992269.802    -3091905.13549  -2420394.10047  20992269.134    20992276.320
       241.000         206.000
 02  7  9 16  2 30.0000000  0 11G22G23G15G30G29G 6G26G21G10G18G17
  23581812.741    -3723221.92849  -2909929.74445  23581812.291    23581820.670
       217.000         156.000
  21308081.023     2845181.64349   2197575.13047  21308080.343    21308087.108
       245.000         211.000
  21274177.532    -4631527.68749  -3620608.49847  21274176.694    21274183.447
       240.000         201.000
  24242210.435     8145026.81048   6313212.36644  24242214.484    24242217.859
       194.000         115.000
  22546412.285    -2202572.61549  -1724944.99746  22546411.764    22546416.821
       229.000         178.000
  20386046.000      120007.94249     72866.42448  20386045.734    20386051.318
       247.000         215.000
  21871275.246    -4219313.97449  -3292205.79846  21871274.772    21871281.158
       231.000         183.000
  23905081.288    -5346132.68949  -4168160.45545  23905080.777    23905090.245
       221.000         155.000
  24444721.972     8190465.21349   6346699.19545  24444723.090    24444730.326
       204.000         140.000
  21325822.461    -7289790.27149  -5683628.02947  21325821.731    21325827.873
       244.000         206.000
  20987567.253    -3116617.61649  -2439650.57447  20987566.800    20987573.038
       241.000         207.000
 02  7  9 16  3  0.0000000  0 11G22G23G15G30G29G 6G26G21G10G18G17
  23578887.323    -3738596.01649  -2921909.56145  23578887.096    23578895.094
       219.000         158.000
  21318572.577     2900314.18049   2240535.52847  21318572.449    21318577.790
       247.000         212.000
  21266304.724    -4672900.55049  -3652847.06647  21266303.874    21266310.338
       240.000         200.000
  24261475.357     8246261.23648   6392096.13344                  24261476.539
       189.000         109.000
  22546762.693    -2200731.32949  -1723510.20546  22546761.262    22546767.368
       228.000         178.000
  20391188.941      147033.49249     93925.27648  20391188.404    20391194.671
       247.000         216.000
  21867490.058    -4239206.03549  -3307706.09446  21867489.652    21867496.336
       232.000         184.000
  23888990.981    -5430688.97149  -4234048.33945  23888990.046    23888999.517
       220.000         153.000
  24464693.715     8295416.24149   6428479.13845  24464693.555    24464703.529
       204.000         145.000
  21313649.406    -7353759.51849  -5733474.16547  21313648.538    21313654.956
       241.000         205.000
  20982892.650    -3141182.44349  -2458791.98847  20982892.016    20982898.983
       241.000         207.000
 02  7  9 16  3 30.0000000  0 11G22G23G15G30G29G 6G26G21G10G18G17
  23576063.524    -3753436.06749  -2933473.27945  23576062.362    23576070.971
       218.000         158.000
  21329125.195     2955767.63149   2283746.00047  21329123.915    21329130.877
       244.000         211.000
  21258464.354    -4714101.59049  -3684951.73347  21258463.372    21258470.161
       240.000         200.000
  24280727.693     8347430.09148   6470928.76544                  24280732.239
       193.000         105.000
  22547215.847    -2198349.36049  -1721654.09446  22547215.178    22547221.299
       228.000         178.000
  20396425.258      174549.89549    115366.60648  20396424.789    20396430.783
       246.000         216.000
  21863821.903    -4258483.13649  -3322727.17746  21863821.182    21863828.058
       230.000         183.000
  23872940.563    -5515032.79849  -4299770.63145  23872939.818    23872948.771
       220.000         150.000
  24484669.436     8400390.49549   6510277.20745  24484668.727    24484678.896
       207.000         149.000
  21301553.390    -7417324.30449  -5783005.13447  21301552.062    21301558.395
       240.000         204.000
  20978246.724    -3165597.15949  -2477816.43247  20978245.923    20978252.745
       242.000         207.000
 02  7  9 16  4  0.0000000  0 11G22G23G15G30G29G 6G26G21G10G18G17
  23573341.105    -3767742.74749  -2944621.34545  23573339.617    23573347.841
       221.000         159.000
  21339737.998     3011539.15249   2327204.32847  21339737.077    21339744.392
       245.000         211.000
  21250656.630    -4755131.32949  -3716922.95847  21250655.727    21250662.889
       240.000         200.000
                   8448529.86248   6549707.71144
       189.000          99.000
  22547771.623    -2195426.98049  -1719376.91146  22547770.993    22547777.222
       228.000         179.000
  20401754.607      202556.63149    137190.01448  20401754.020    20401760.670
       246.000         216.000
  21860270.705    -4277144.16349  -3337268.22246  21860270.829    21860276.415
       233.000         184.000
  23856930.793    -5599163.37649  -4365326.76545  23856930.451    23856937.975
       222.000         151.000
  24504649.559     8505385.31649   6592091.30345  24504649.114    24504658.231
       209.000         149.000
  21289534.370    -7480484.09449  -5832220.52147  21289533.143    21289539.518
       239.000         204.000
  20973629.220    -3189862.26249  -2496724.29547  20973628.609    20973635.571
       242.000         208.000
 02  7  9 16  4 30.0000000  0 11G22G23G15G30G29G 6G26G21G10G18G17
  23570719.912    -3781517.01849  -2955354.55345  23570717.662    23570727.757
       221.000         161.000
  21350411.091     3067625.78849   2370908.17647  21350410.648    21350416.532
       244.000         210.000
  21242881.355    -4795990.53949  -3748761.28947  21242880.250    21242887.874
       240.000         201.000
                   8549556.85548   6628429.97444
       189.000         105.000
  22548430.285    -2191964.78749  -1716679.06746  22548429.697    22548435.138
       229.000         178.000
  20407177.316      231053.00249    159394.95848  20407177.055    20407182.692
       247.000         215.000
  21856837.040    -4295188.88849  -3351329.02946  21856836.797    21856843.050
       233.000         185.000
  23840961.859    -5683080.53749  -4430716.64645  23840960.477    23840970.285
       218.000         154.000
  24524633.667     8610397.53249   6673918.90645  24524633.370    24524642.609
       211.000         149.000
  21277592.244    -7543238.96849  -5881120.37447  21277591.450    21277598.305
       240.000         204.000
  20969040.008    -3213978.80549  -2515516.38847  20969039.506    20969046.215
       242.000         207.000
 02  7  9 16  5  0.0000000  0 11G22G23G15G30G29G 6G26G21G10G18G17
  23568200.232    -3794757.78449  -2965672.00145  23568197.366    23568209.041
       219.000         160.000
  21361143.729     3124026.63249   2414856.86747  21361142.199    21361149.087
       243.000         210.000
  21235138.910    -4836677.87749  -3780465.68247  21235137.690    21235144.755
       240.000         202.000
                   8650510.12448  -7892133.15943
       193.000          74.000
  22549192.388    -2187960.87449  -1713559.13546  22549191.979    22549197.215
       230.000         178.000
  20412693.478      260040.61549    181982.69348  20412693.147    20412698.847
       247.000         215.000
  21853521.056    -4312614.59749  -3364907.45946  21853520.493    21853527.320
       233.000         185.000
  23825033.791    -5766781.80049  -4495938.26745  23825033.912    23825043.044
       219.000         154.000
  24544620.452     8715426.83749   6755759.82945  24544620.233    24544628.628
       211.000         148.000
  21265727.786    -7605586.74249  -5929703.01447  21265726.714    21265733.621
       240.000         205.000
  20964479.433    -3237945.15749  -2534191.45847  20964478.643    20964484.909
       242.000         206.000
 02  7  9 16  5 30.0000000  0 11G22G23G15G30G29G 6G26G21G10G18G17
  23565781.721    -3807465.78249  -2975574.40645  23565781.219    23565790.391
       220.000         159.000
  21371935.493     3180738.72249   2459048.09647  21371935.117    21371941.517
       245.000         210.000
  21227428.975    -4877194.05449  -3812036.70647  21227427.628    21227435.208
       240.000         202.000
                   8751386.30348  -7813524.48543
       193.000          74.000
  22550057.411    -2183415.84949  -1710017.52346  22550057.870    22550061.841
       230.000         179.000
  20418303.085      289518.77949    204952.67548  20418302.533    20418307.836
       247.000         215.000
  21850322.875    -4329420.56549  -3378003.00646  21850321.797    21850328.206
       232.000         185.000
  23809147.177    -5850266.60349  -4560991.26945  23809145.691    23809156.760
       220.000         154.000
  24564609.650     8820470.58249   6837612.02345  24564609.914    24564618.299
       212.000         148.000
  21253940.927    -7667527.39949  -5977968.44547  21253940.103    21253946.621
       241.000         204.000
  20959947.263    -3261762.12449  -2552750.12547  20959946.111    20959952.921
       241.000         206.000
 02  7  9 16  6  0.0000000  0 11G22G23G15G30G29G 6G26G21G10G18G17
  23563464.927    -3819641.97049  -2985062.34645  23563461.665    23563473.929
       214.000         157.000
  21382786.331     3237759.20949   2503479.62247  21382785.895    21382792.151
       246.000         211.000
  21219751.529    -4917539.29449  -3843474.53047  21219750.542    21219757.129
       240.000         201.000
                   8852181.95248  -7734976.29443
       194.000          74.000
  22551025.187    -2178330.02649  -1706054.54846  22551024.700    22551030.621
       229.000         178.000
  20424005.802      319486.85749    228304.41148  20424005.395    20424011.092
       247.000         214.000
  21847242.670    -4345606.26949  -3390615.22646  21847242.509    21847249.098
       231.000         184.000
  23793301.903    -5933534.72749  -4625875.34145  23793300.821    23793309.783
       221.000         154.000
  24584601.385     8925525.87349   6919473.20445  24584601.574    24584609.492
       214.000         149.000
  21242231.457    -7729060.55249  -6025916.31047  21242230.180    21242237.184
       240.000         204.000
  20955443.297    -3285430.11649  -2571192.70247  20955442.299    20955449.451
       241.000         207.000
 02  7  9 16  6 30.0000000  0 11G22G23G15G30G29G 6G26G21G10G18G17
  23561249.125    -3831285.51749  -2994135.27445  23561249.406    23561255.282
       222.000         158.000
  21393695.449     3295086.94549   2548150.57847  21393694.444    21393701.105
       245.000         211.000
  21212106.750    -4957712.44049  -3874778.27047  21212106.045    21212112.182
       241.000         200.000
                   8952895.69049  -8157108.37743
       203.000          74.000
  22552096.071    -2172702.21649  -1701669.23046  22552094.810    22552100.799
       228.000         178.000
  20429801.931      349945.64049    252038.50748  20429801.493    20429807.225
       247.000         214.000
  21844280.848    -4361169.40349  -3402742.30846  21844281.039    21844287.027
       233.000         185.000
  23777497.855    -6016584.11449  -4690588.99345  23777496.782    23777503.808
       216.000         152.000
  24604595.167     9030591.66949   7001342.57945  24604595.273    24604602.179
       214.000         146.000
  21230599.726    -7790184.62849  -6073545.42647  21230599.312    21230606.175
       241.000         204.000
  20950967.921    -3308948.27449  -2589518.52147  20950967.117    20950973.759
       242.000         207.000
 02  7  9 16  7  0.0000000  0 11G22G23G15G30G29G 6G26G21G10G18G17
  23559134.770    -3842396.85449  -3002793.51745  23559133.711    23559143.188
       219.000         159.000
  21404662.482     3352719.47249   2593059.02547  21404662.021    21404668.525
       245.000         210.000
  21204494.847    -4997713.83249  -3905948.16647  21204494.224    21204500.366
       242.000         201.000
                   9053524.45048  -8078694.88643
       194.000          74.000
  22553269.952    -2166532.43749  -1696861.60546  22553269.486    22553275.245
       230.000         178.000
  20435691.435      380894.95649    276154.84748  20435690.616    20435697.194
       246.000         214.000
  21841438.009    -4376109.02049  -3414383.56446  21841437.657    21841444.327
       232.000         185.000
  23761736.071    -6099414.17949  -4755131.74145  23761735.613    23761743.733
       214.000         153.000
  24624589.652     9135665.77949   7083218.44045  24624587.503    24624596.917
       210.000         144.000
  21219046.299    -7850898.87649  -6120855.19547  21219045.311    21219052.292
       241.000         206.000
  20946521.121    -3332316.76749  -2607727.73847  20946520.416    20946526.661
       242.000         207.000
 02  7  9 16  7 30.0000000  0 11G22G23G15G30G29G 6G26G21G10G18G17
  23557121.480    -3852976.40249  -3011037.33345  23557121.294    23557130.104
       220.000         160.000
  21415687.308     3410654.53449   2638203.20647  21415686.319    21415692.741
       243.000         209.000
  21196915.528    -5037543.39749  -3936984.15247  21196914.691    21196921.829
       242.000         203.000
                   9154065.67849  -8000348.69743
       202.000          74.000
  22554547.511    -2159820.41649  -1691631.45346  22554546.003    22554552.454
       227.000         179.000
  20441674.213      412334.84249    300653.44248  20441673.754    20441679.586
       247.000         214.000
  21838713.959    -4390423.94049  -3425538.01746  21838714.043    21838719.683
       232.000         185.000
  23746016.110    -6182023.45349  -4819502.47545  23746014.017    23746024.307
       212.000         154.000
  24644585.144     9240746.18049   7165099.21245  24644584.409    24644594.623
       212.000         145.000
  21207570.906    -7911202.79349  -6167845.23347  21207570.724    21207577.108
       242.000         206.000
  20942102.738    -3355535.44549  -2625820.20947  20942102.284    20942108.907
       242.000         207.000
 02  7  9 16  8  0.0000000  0 11G22G23G15G30G29G 6G26G21G10G18G17
  23555209.729    -3863023.68849  -3018866.44045  23555209.338    23555216.511
       223.000         160.000
  21426769.024     3468890.44449   2683581.83047  21426767.967    21426774.539
       243.000         207.000
  21189369.052    -5077200.29849  -3967885.60847  21189368.016    21189374.959
       240.000         203.000
                   9254517.52649  -8421495.94443
       202.000          74.000
  22555928.003    -2152565.44849  -1685978.22946  22555927.956    22555932.964
       230.000         178.000
  20447750.431      444265.70049    325534.60348  20447750.157    20447755.839
       248.000         214.000
  21836108.880    -4404112.53549  -3436204.43546  21836108.936    21836115.491
       232.000         185.000
  23730337.547    -6264410.98649  -4883700.39545  23730335.620    23730347.989
       215.000         158.000
  24664582.315     9345831.44749   7246983.76145  24664581.256    24664591.128
       213.000         144.000
  21196174.028    -7971094.48449  -6214514.05247  21196173.125    21196179.500
       241.000         206.000
  20937713.059    -3378603.63649  -2643795.40747  20937712.153    20937718.960
       242.000         208.000
 02  7  9 16  8 30.0000000  0 11G22G23G15G30G29G 6G26G21G10G18G17
  23553399.257    -3872540.15349  -3026281.92345  23553397.302    23553405.250
       215.000         157.000
  21437907.802     3527424.06649   2729192.43347  21437907.505    21437913.713
       244.000         208.000
  21181855.207    -5116685.63149  -3998653.38947  21181854.048    21181860.679
       239.000         201.000
                   9354876.25149  -8343290.41743
       196.000          74.000
  22557411.769    -2144768.47249  -1679902.67346  22557409.950    22557416.924
       227.000         179.000
  20453919.945      476686.45349    350797.50648  20453919.556    20453925.203
       248.000         214.000
  21833623.101    -4417174.58649  -3446382.65046  21833622.398    21833629.811
       231.000         185.000
  23714701.790    -6346576.51749  -4947725.33645  23714700.095    23714712.626
       213.000         160.000
  24684580.188     9450918.66049   7328869.80445  24684579.391    24684587.707
       213.000         143.000
  21184855.201    -8030574.63649  -6260862.17547  21184854.520    21184860.763
       243.000         205.000
  20933351.796    -3401522.33349  -2661654.11147  20933350.743    20933357.367
       242.000         207.000
 02  7  9 16  9  0.0000000  0 11G22G23G15G30G29G 6G26G21G10G18G17
  23551689.341    -3881524.74849  -3033282.91245  23551688.785    23551697.294
       219.000         155.000
  21449103.010     3586254.52749   2775034.33247  21449101.726    21449108.831
       242.000         208.000
  21174374.198    -5155997.95249  -4029286.35147  21174373.146    21174380.391
       240.000         200.000
                   9455141.00949  -8265153.74143
       200.000          74.000
  22558998.798    -2136427.70749  -1673403.39446  22558999.120    22559003.771
       229.000         179.000
  20460182.897      509598.56249    376443.29848  20460182.370    20460188.363
       249.000         214.000
  21831257.084    -4429607.62649  -3456070.71546  21831257.305    21831265.223
       232.000         186.000
  23699108.919    -6428517.65749  -5011575.40345  23699107.349    23699118.097
       215.000         159.000
  24704577.643     9556007.21449   7410756.91645  24704575.638    24704585.876
       206.000         142.000
  21173615.260    -8089641.13149  -6306887.99447  21173615.121    21173620.598
       244.000         207.000
  20929019.283    -3424290.02049  -2679395.14347  20929018.772    20929024.630
       243.000         207.000
 02  7  9 16  9 30.0000000  0 11G22G23G15G30G29G 6G26G21G10G18G17
  23550080.261    -3889979.80649  -3039871.30945  23550079.199    23550089.067
       219.000         158.000
  21460353.518     3645377.29449   2821104.00647  21460352.937    21460359.031
       244.000         208.000
  21166925.834    -5195139.13649  -4059785.94247  21166925.043    21166932.144
       241.000         203.000
                   9555306.74449  -8685554.15543
       199.000          74.000
  22560689.263    -2127545.52549  -1666482.20246  22560688.600    22560694.123
       230.000         179.000
  20466538.957      542999.81049    402470.21848  20466538.750    20466544.452
       248.000         214.000
  21829010.638    -4441412.69849  -3465269.47546  21829010.540    21829017.741
       232.000         186.000
  23683558.191    -6510235.39349  -5075251.43645  23683556.395    23683566.261
       214.000         156.000
  24724573.661     9661093.19749   7492642.02745  24724572.005    24724583.446
       207.000         140.000
  21162454.030    -8148295.15849  -6352592.39347  21162453.009    21162459.074
       242.000         207.000
  20924715.158    -3446908.55549  -2697019.95747  20924714.202    20924720.944
       242.000         208.000
 02  7  9 16 10  0.0000000  0 10G22G23G15G30G29G 6G26G21G18G17
  23548572.639    -3897901.95549  -3046044.45445  23548572.323    23548582.608
       217.000         157.000
  21471660.303     3704793.94149   2867402.67847  21471659.999    21471666.446
       245.000         209.000
  21159510.773    -5234105.49449  -4090149.30747  21159510.186    21159516.726
       241.000         203.000
                   9655374.94249  -8607582.54443
       205.000          74.000
  22562483.246    -2118117.68749  -1659135.84546  22562482.708    22562488.571
       229.000         178.000
  20472988.847      576893.73449    428881.05048  20472988.455    20472994.120
       248.000         214.000
  21826884.752    -4452585.01049  -3473975.16646  21826884.412    21826892.145
       233.000         186.000
  23668051.202    -6591725.40349  -5138750.01745  23668050.050    23668058.732
       218.000         157.000
  21151371.777    -8206532.34349  -6397971.98547  21151371.031    21151376.718
       243.000         206.000
  20920440.052    -3469374.24749  -2714525.67247  20920439.341    20920445.659
       243.000         208.000
 02  7  9 16 10 30.0000000  0 10G22G23G15G30G29G 6G26G21G18G17
  23547165.586    -3905295.61549  -3051805.75045  23547164.107    23547174.040
       217.000         156.000
  21483021.882     3764498.41149   2913925.63847  21483020.724    21483028.420
       243.000         210.000
  21152128.322    -5272900.57949  -4120379.20847  21152127.317    21152134.152
       240.000         202.000
                   9755338.95149  -8529697.87543
       206.000          74.000
  22564380.308    -2108148.42949  -1651367.58846  22564380.005    22564385.279
       229.000         179.000
  20479531.629      611276.17449    455672.55048  20479530.976    20479537.495
       248.000         215.000
  21824878.624    -4463127.59949  -3482190.14546  21824879.280    21824885.884
       235.000         187.000
  23652587.161    -6672990.40249  -5202073.27845  23652585.945    23652595.638
       221.000         159.000
  21140368.252    -8264356.10749  -6443029.42747  21140367.568    21140373.298
       243.000         207.000
  20916193.309    -3491690.91549  -2731915.27347  20916192.181    20916198.810
       242.000         208.000
 02  7  9 16 11  0.0000000  0 10G22G23G15G30G29G 6G26G21G18G17
  23545859.695    -3912159.82349  -3057154.50345  23545860.130    23545866.718
       225.000         161.000
  21494437.718     3824489.89849   2960672.24147  21494436.671    21494442.881
       243.000         208.000
  21144778.705    -5311522.76149  -4150474.40647  21144777.485    21144784.293
       240.000         201.000
                   9855197.61449  -8949145.16643
       200.000          74.000
  22566380.791    -2097636.23149  -1643176.28646  22566379.561    22566386.029
       227.000         178.000
  20486167.570      646148.53649    482845.80248  20486166.822    20486173.370
       248.000         215.000
  21822992.852    -4473037.91449  -3489912.47646  21822992.147    21822999.611
       233.000         187.000
  23637166.294    -6754028.11149  -5265219.39946  23637166.000    23637176.288
       223.000         163.000
  21129443.778    -8321764.29649  -6487763.06347  21129443.401    21129448.428
       242.000         206.000
  20911975.097    -3513856.96049  -2749187.49847  20911973.982    20911981.155
       241.000         207.000
 02  7  9 16 11 30.0000000  0 10G22G23G15G30G29G 6G26G21G18G17
  23544654.192    -3918496.19149  -3062091.94945  23544651.667    23544660.639
       216.000         160.000
  21505907.608     3884764.79549   3007639.66947  21505906.821    21505913.236
       242.000         207.000
  21137461.670    -5349973.42849  -4180435.94547  21137461.470    21137468.157
       242.000         203.000
                   9954947.21348  -8871417.08243
       190.000          74.000
  22568484.142    -2086582.27149  -1634562.80846  22568484.523    22568489.768
       229.000         178.000
  20492896.441      681509.19549    510399.53248  20492895.694    20492902.305
       247.000         215.000
  21821227.164    -4482316.26549  -3497142.36147  21821227.718    21821233.821
       235.000         188.000
  23621788.760    -6834838.73549  -5328188.58946  23621787.397    23621796.344
       224.000         166.000
  21118598.482    -8378757.24649  -6532173.11147  21118597.689    21118603.677
       242.000         206.000
  20907785.469    -3535873.55849  -2766343.28347  20907784.832    20907791.469
       243.000         208.000
 02  7  9 16 12  0.0000000  0 10G22G23G15G30G29G 6G26G21G18G17
  23543548.963    -3924302.92949  -3066616.68145  23543546.392    23543556.976
       217.000         158.000
  21517431.565     3945323.31449   3054828.10947  21517431.202    21517437.656
       243.000         207.000
  21130178.090    -5388249.91749  -4210261.76547  21130177.383    21130184.450
       241.000         204.000
                  10054587.60048  -8793771.31743
       187.000          74.000
  22570691.166    -2074984.15949  -1625525.33846  22570690.186    22570695.479
       228.000         178.000
  20499718.545      717360.40049    538335.52848  20499718.370    20499724.288
       248.000         214.000
  21819582.434    -4490959.50549  -3503877.34547  21819582.787    21819589.311
       235.000         188.000
  23606454.665    -6915418.32349  -5390977.75746  23606452.953    23606461.738
       223.000         163.000
  21107832.592    -8435332.02449  -6576257.31347  21107831.482    21107837.754
       241.000         207.000
  20903624.892    -3557738.17849  -2783380.63147  20903623.982    20903630.571
       242.000         208.000
 02  7  9 16 12 30.0000000  0 10G22G23G15G30G29G 6G26G21G18G17
  23542544.045    -3929581.53749  -3070729.97045  23542543.196    23542550.072
       217.000         156.000
  21529008.873     4006162.00149   3102234.87747  21529008.138    21529014.305
       243.000         207.000
  21122927.122    -5426353.37449  -4239952.73547  21122926.182    21122932.928
       241.000         204.000
                  10154115.33748  -9211957.53843
       183.000          74.000
  22573001.461    -2062843.14549  -1616064.80746  22573000.897    22573006.505
       227.000         177.000
  20506634.009      753700.85849    566652.75248  20506633.983    20506639.780
       249.000         215.000
  21818058.721    -4498967.81949  -3510117.58547  21818058.912    21818065.536
       236.000         188.000
  23591164.547    -6995767.76649  -5453587.58345  23591164.347    23591172.996
       221.000         160.000
  21097146.129    -8491488.98449  -6620015.94647  21097145.410    21097151.169
       241.000         207.000
  20899492.982    -3579451.78349  -2800300.30047  20899492.243    20899498.440
       243.000         207.000
 02  7  9 16 13  0.0000000  0  9G22G23G15G29G 6G26G21G18G17
  23541640.678    -3934329.60449  -3074429.72845  23541639.382    23541649.015
       215.000         156.000
  21540639.494     4067281.69549   3149860.60247  21540638.736    21540644.332
       244.000         207.000
  21115709.732    -5464280.42649  -4269506.24947  21115707.990    21115715.200
       238.000         202.000
  22575415.647    -2050156.22449  -1606178.92746  22575414.856    22575421.065
       228.000         178.000
  20513643.098      790533.24549    595353.28948  20513643.280    20513648.647
       248.000         215.000
  21816656.373    -4506337.38149  -3515860.10947  21816656.303    21816662.726
       235.000         189.000
  23575919.113    -7075882.95549  -5516014.87745  23575917.262    23575927.295
       220.000         159.000
  21086539.930    -8547224.71449  -6663446.36347  21086539.023    21086545.182
       241.000         207.000
  20895390.345    -3601011.42349  -2817100.01547  20895389.493    20895395.957
       242.000         207.000
 02  7  9 16 13 30.0000000  0  9G22G23G15G29G 6G26G21G18G17
  23540838.743    -3938544.67149  -3077714.21845  23540838.696    23540845.315
       221.000         159.000
  21552323.778     4128683.18949   3197705.90747  21552323.267    21552329.487
       244.000         208.000
  21108526.655    -5502028.09149  -4298919.99247  21108526.341    21108532.051
       243.000         201.000
  22577934.433    -2036920.78549  -1595865.60246  22577933.532    22577940.459
       227.000         178.000
  20520746.391      827860.20349    624439.22648  20520745.873    20520752.118
       247.000         216.000
  21815376.314    -4513064.34149  -3521101.90847  21815376.249    21815382.705
       235.000         188.000
  23560718.428    -7155760.07749  -5578256.66245  23560717.335    23560727.112
       220.000         160.000
  21076014.449    -8602535.82149  -6706545.88147  21076013.639    21076020.040
       242.000         208.000
  20891317.482    -3622413.78349  -2833777.15747  20891316.513    20891323.571
       241.000         207.000
 02  7  9 16 14  0.0000000  0  9G22G23G15G29G 6G26G21G18G17
  23540136.273    -3942235.68849  -3080590.36945  23540134.454    23540143.702
       214.000         156.000
  21564059.632     4190355.84749   3245762.52547  21564058.703    21564065.919
       243.000         209.000
  21101376.334    -5539604.42249  -4328200.24047  21101375.692    21101381.950
       242.000         203.000
  22580555.924    -2023144.92149  -1585131.18346  22580555.007    22580561.055
       226.000         179.000
  20527941.959      865673.18449    653903.86248  20527941.582    20527947.514
       247.000         215.000
  21814217.003    -4519156.30349  -3525848.87947  21814216.832    21814223.604
       234.000         188.000
  23545561.904    -7235406.74449  -5640318.85345  23545561.957    23545572.456
       222.000         162.000
  21065568.568    -8657429.86449  -6749320.43447  21065568.510    21065574.120
       244.000         209.000
  20887272.925    -3643667.11849  -2850338.17547  20887272.042    20887279.286
       241.000         208.000
 02  7  9 16 14 30.0000000  0  9G22G23G15G29G 6G26G21G18G17
  23539533.678    -3945402.94849  -3083058.39745  23539534.090    23539541.135
       212.000         154.000
  21575846.755     4252297.72349   3294028.91047  21575846.362    21575852.764
       244.000         209.000
  21094258.446    -5577009.05749  -4357346.67847  21094256.910    21094264.568
       240.000         204.000
  22583280.071    -2008828.61149  -1573975.62246  22583279.431    22583285.563
       228.000         179.000
  20535230.055      903972.26749    683747.27648  20535229.446    20535235.777
       246.000         215.000
  21813178.847    -4524612.16349  -3530100.21047  21813178.591    21813184.651
       234.000         188.000
  23530450.350    -7314821.42049  -5702200.32246  23530450.168    23530458.949
       225.000         165.000
  21055202.210    -8711906.02749  -6791769.35747  21055201.897    21055207.092
       244.000         209.000
  20883256.958    -3664770.89649  -2866782.66247  20883256.053    20883263.479
       242.000         209.000
 02  7  9 16 15  0.0000000  0  9G22G23G15G29G 6G26G21G18G17
  23539030.613    -3948046.88349  -3085118.61145  23539029.569    23539038.460
       211.000         154.000
  21587684.814     4314506.76749   3342503.46647  21587684.417    21587690.349
       243.000         208.000
  21087173.274    -5614241.92849  -4386359.27247  21087172.125    21087179.605
       241.000         204.000
  22586107.204    -1993971.91749  -1562398.98446  22586106.744    22586112.249
       228.000         178.000
  20542610.505      942757.16049    713969.26248  20542610.277    20542616.470
       247.000         215.000
  21812261.883    -4529431.14749  -3533855.25047  21812261.675    21812268.330
       234.000         188.000
  23515382.506    -7394003.41949  -5763900.46046  23515380.771    23515390.069
       219.000         164.000
  21044915.465    -8765963.49049  -6833892.01947  21044914.309    21044920.368
       243.000         209.000
  20879269.638    -3685724.92449  -2883110.47747  20879268.813    20879275.525
       242.000         209.000
 02  7  9 16 15 30.0000000  0  9G22G23G15G29G 6G26G21G18G17
  23538626.920    -3950165.07149  -3086769.17845  23538626.348    23538635.966
       214.000         154.000
  21599573.925     4376983.82749   3391186.85947  21599572.957    21599579.746
       243.000         207.000
  21080121.426    -5651299.38249  -4415235.20347  21080120.556    21080127.249
       242.000         204.000
  22589037.692    -1978571.78049  -1550398.90246  22589037.665    22589044.109
       228.000         178.000
  20550084.022      982030.66049    744571.96748  20550083.743    20550088.938
       247.000         214.000
  21811466.576    -4533609.28849  -3537110.95247  21811467.315    21811473.409
       236.000         188.000
  23500359.441    -7472948.54849  -5825415.99845  23500358.081    23500367.416
       220.000         162.000
  21034708.936    -8819598.58949  -6875685.57647  21034708.534    21034713.860
       244.000         210.000
  20875311.457    -3706525.77649  -2899318.92047  20875310.593    20875317.590
       243.000         208.000
 02  7  9 16 16  0.0000000  0  9G22G23G15G29G 6G26G21G18G17
  23538323.952    -3951759.71749  -3088011.81445  23538323.258    23538332.822
       215.000         152.000
  21611513.146     4439724.96349   3440076.04747  21611512.431    21611519.255
       244.000         207.000
  21073102.731    -5688183.19649  -4443975.83947  21073101.665    21073107.960
       242.000         203.000
  22592071.452    -1962630.12549  -1537976.85146  22592070.455    22592077.337
       227.000         179.000
  20557650.064     1021790.81349    775553.87548  20557649.425    20557655.717
       246.000         214.000
  21810793.370    -4537147.67949  -3539868.15347  21810793.802    21810799.242
       235.000         188.000
  23485381.440    -7551657.69649  -5886747.66646  23485380.060    23485389.378
       221.000         164.000
  21024582.759    -8872812.53949  -6917150.94947  21024582.265    21024587.551
       244.000         210.000
  20871382.110    -3727175.09049  -2915409.28047  20871381.483    20871387.900
       243.000         208.000
 02  7  9 16 16 30.0000000  0  9G22G23G15G29G 6G26G21G18G17
  23538120.553    -3952831.54149  -3088846.99545  23538118.590    23538130.616
       211.000         153.000
  21623502.283     4502728.10649   3489169.39347  21623501.581    21623507.998
       243.000         207.000
  21066117.048    -5724892.91649  -4472580.78947  21066115.961    21066122.594
       240.000         203.000
  22595207.807    -1946147.17749  -1525133.01446  22595207.813    22595213.647
       229.000         179.000
  20565308.672     1062037.43449    806914.87048  20565308.223    20565314.485
       246.000         213.000
  21810242.195    -4540045.48149  -3542126.17547  21810242.184    21810247.845
       234.000         188.000
  23470448.728    -7630129.91149  -5947894.70446  23470448.357    23470456.046
       220.000         163.000
  21014536.696    -8925604.78649  -6958287.72147  21014536.189    21014541.544
       245.000         210.000
  20867481.623    -3747672.39349  -2931381.18647  20867480.944    20867487.153
       242.000         208.000
 02  7  9 16 17  0.0000000  0  9G22G23G15G29G 6G26G21G18G17
  23538015.451    -3953382.02649  -3089275.96545  23538013.782    23538024.031
       212.000         151.000
  21635540.706     4565990.15049   3538464.48147  21635539.777    21635545.956
       244.000         206.000
  21059164.232    -5761429.30649  -4501050.66747  21059163.624    21059170.034
       243.000         205.000
  22598447.183    -1929123.98149  -1511868.20646  22598446.861    22598452.341
       228.000         179.000
  20573059.717     1102769.24449    838653.92948  20573059.058    20573065.563
       245.000         213.000
  21809812.604    -4542303.10049  -3543885.35347  21809812.341    21809818.255
       234.000         188.000
  23455560.825    -7708365.10349  -6008857.07745  23455559.014    23455568.345
       218.000         162.000
  21004570.916    -8977975.64949  -6999096.14447  21004570.009    21004575.622
       244.000         210.000
  20863609.901    -3768018.60949  -2947235.36247  20863608.764    20863615.214
       243.000         207.000
 02  7  9 16 17 30.0000000  0  9G22G23G15G29G 6G26G21G18G17
  23538010.294    -3953408.19249  -3089296.41045  23538009.795    23538016.817
       215.000         149.000
  21647628.588     4629512.72649   3587962.58047  21647627.649    21647633.704
       243.000         205.000
  21052245.408    -5797788.48449  -4529382.47347  21052244.175    21052251.332
       241.000         205.000
  22601789.998    -1911557.25249  -1498179.85146  22601789.487    22601796.043
       228.000         178.000
  20580903.727     1143989.60849    870773.66748  20580903.607    20580909.672
       247.000         213.000
  21809505.625    -4543916.18549  -3545142.31147  21809505.324    21809511.752
       235.000         188.000
  23440718.466    -7786358.78949  -6069631.25346  23440716.859    23440726.848
       220.000         164.000
  20994686.047    -9029920.91349  -7039572.93847  20994685.642    20994690.846
       245.000         211.000
  20859767.692    -3788209.53549  -2962968.54847  20859766.804    20859773.543
       241.000         208.000
 02  7  9 16 18  0.0000000  0  9G22G23G15G29G 6G26G21G18G17
  23538104.949    -3952912.14549  -3088909.81545  23538103.480    23538112.105
       216.000         150.000
  21659765.328     4693292.16149   3637660.83347  21659764.387    21659771.296
       242.000         205.000
  21045359.915    -5833971.44749  -4557576.97247  21045358.841    21045366.179
       242.000         204.000
  22605235.875    -1893448.50849  -1484069.14946  22605236.530    22605239.664
       230.000         177.000
  20588840.428     1185696.58649    903272.58648  20588839.593    20588846.108
       244.000         213.000
  21809321.103    -4544885.50449  -3545897.62247  21809320.921    21809327.859
       234.000         189.000
  23425922.532    -7864111.44349  -6130217.60646  23425922.761    23425930.868
       224.000         167.000
  20984881.945    -9081441.74749  -7079719.00547  20984880.899    20984886.665
       243.000         211.000
  20855954.595    -3808246.56349  -2978581.80447  20855953.654    20855960.670
       242.000         209.000
 02  7  9 16 18 30.0000000  0  9G22G23G15G29G 6G26G21G18G17
  23538298.200    -3951896.50749  -3088118.39345  23538299.035    23538305.753
       213.000         149.000
  21671950.239     4757324.47949   3687556.13647  21671949.392    21671956.591
       243.000         205.000
  21038507.756    -5869979.75449  -4585635.38047  21038506.275    21038514.473
       241.000         205.000
  22608785.126    -1874799.82649  -1469537.71446  22608784.454    22608790.304
       229.000         177.000
  20596869.041     1227887.97549    936148.97948  20596868.575    20596875.300
       246.000         213.000
  21809258.901    -4545212.43049  -3546152.35747  21809259.194    21809264.894
       233.000         189.000
  23411172.635    -7941624.02249  -6190616.86246  23411171.893    23411181.634
       224.000         168.000
  20975158.374    -9132539.01749  -7119535.02247  20975158.000    20975163.100
       245.000         211.000
  20852170.601    -3828131.18549  -2994076.31047  20852169.613    20852176.694
       242.000         209.000
 02  7  9 16 19  0.0000000  0  9G22G23G15G29G 6G26G21G18G17
  23538590.487    -3950361.09349  -3086922.04745  23538587.975    23538597.451
       201.000         139.000
  21684183.113     4821608.33549   3737647.44147  21684182.183    21684188.767
       241.000         204.000
  21031688.737    -5905812.53949  -4613557.00647  21031687.616    21031694.728
       240.000         204.000
  22612436.687    -1855610.76549  -1454585.20546  22612436.016    22612442.036
       229.000         178.000
  20604990.120     1270564.06949    969403.06048  20604989.952    20604995.860
       246.000         213.000
  21809319.139    -4544895.58149  -3545905.46647  21809318.913    21809325.091
       233.000         188.000
  23396468.373    -8018894.80349  -6250827.75346  23396469.052    23396477.075
       225.000         169.000
  20965515.730    -9183211.61149  -7159020.12447  20965514.996    20965520.082
       246.000         211.000
  20848415.940    -3847862.48949  -3009451.34847  20848415.432    20848422.018
       243.000         209.000
 02  7  9 16 19 30.0000000  0  9G22G23G15G29G 6G26G21G18G17
  23538980.771    -3948305.22348  -3085320.22845  23538980.463    23538990.552
       193.000         132.000
  21696463.424     4886142.78649   3787934.00747  21696462.552    21696469.428
       240.000         203.000
  21024903.681    -5941468.22849  -4641340.63447  21024903.013    21024909.556
       243.000         204.000
  22616191.188    -1835880.39849  -1439210.89846  22616190.587    22616196.543
       227.000         179.000
  20613203.582     1313725.71849   1003035.49348  20613202.857    20613209.290
       245.000         213.000
  21809502.249    -4543933.11149  -3545155.47447  21809501.966    21809508.148
       232.000         188.000
  23381810.805    -8095922.12849  -6310848.94746  23381809.350    23381819.077
       220.000         168.000
  20955954.273    -9233457.65149  -7198172.85547  20955953.505    20955958.696
       245.000         211.000
  20844690.748    -3867438.67949  -3024705.50547  20844689.732    20844696.874
       243.000         208.000
 02  7  9 16 20  0.0000000  0  9G22G23G15G29G 6G26G21G18G17
  23539471.083    -3945730.19549  -3083313.71345  23539470.803    23539477.942
       207.000         133.000
  21708791.108     4950925.59949   3838414.11447  21708790.467    21708798.191
       241.000         204.000
  21018152.478    -5976946.42249  -4668985.97047  21018151.836    21018158.751
       243.000         205.000
  22620048.467    -1815609.04149  -1423415.05646  22620047.987    22620054.188
       228.000         178.000
  20621509.180     1357372.44149   1037045.90847  20621509.026    20621514.964
       246.000         212.000
  21809808.020    -4542324.73349  -3543902.19447  21809808.324    21809813.948
       233.000         188.000
  23367199.271    -8172705.02849  -6370679.64946  23367198.395    23367207.026
       221.000         167.000
  20946473.852    -9283277.12749  -7236993.19547  20946473.168    20946478.436
       243.000         210.000
  20840995.046    -3886859.68649  -3039838.75047  20840994.820    20841000.977
       243.000         208.000
 02  7  9 16 20 30.0000000  0  9G22G23G15G29G 6G26G21G18G17
  23540060.249    -3942638.23349  -3080904.36445  23540061.694    23540066.043
       212.000         135.000
  21721165.559     5015953.12649   3889084.88947  21721165.090    21721172.039
       241.000         204.000
  21011434.761    -6012248.30949  -4696493.90847  21011434.057    21011441.050
       242.000         205.000
  22624008.670    -1794798.63349  -1407199.16746  22624009.144    22624013.650
       229.000         177.000
  20629906.884     1401502.17449   1071432.69148  20629906.513    20629912.364
       246.000         213.000
  21810236.687    -4540071.37549  -3542146.32347  21810236.098    21810242.522
       230.000         188.000
  23352634.181    -8249244.07949  -6430320.32846  23352632.559    23352643.167
       223.000         167.000
  20937074.445    -9332670.84049  -7275481.75747  20937073.775    20937079.098
       245.000         211.000
  20837328.671    -3906126.63649  -3054851.94247  20837327.908    20837334.692
       242.000         208.000
 02  7  9 16 21  0.0000000  0  9G22G23G15G29G 6G26G21G18G17
  23540747.480    -3939029.97449  -3078092.81345  23540747.859    23540755.675
       203.000         138.000
  21733586.030     5081223.06049   3939944.56047  21733585.342    21733591.407
       241.000         204.000
  21004750.616    -6047373.84349  -4723864.42447  21004749.225    21004756.526
       242.000         205.000
  22628071.352    -1773449.79749  -1390563.70946  22628070.433    22628076.645
       224.000         176.000
  20638396.235     1446114.33749   1106195.39448  20638395.766    20638401.725
       246.000         213.000
  21810788.050    -4537172.89349  -3539887.75446  21810788.495    21810793.945
       233.000         187.000
  23338115.561    -8325539.09249  -6489770.84946  23338115.439    23338123.596
       227.000         167.000
  20927756.165    -9381638.54349  -7313638.37647  20927755.147    20927760.975
       243.000         211.000
  20833691.615    -3925239.28049  -3069744.90547  20833691.246    20833697.653
       244.000         208.000
 02  7  9 16 21 30.0000000  0  9G22G23G15G29G 6G26G21G18G17
  23541532.344    -3934905.65049  -3074879.08445  23541531.217    23541541.190
       202.000         141.000
  21746052.327     5146734.03549   3990992.06247  21746051.912    21746058.320
       241.000         204.000
  20998100.187    -6082321.85649  -4751096.61547  20998099.378    20998106.363
       242.000         205.000
  22632236.229    -1751561.78349  -1373508.13046  22632236.349    22632242.967
       227.000         177.000
  20646977.466     1491209.33749   1141334.33647  20646976.845    20646983.482
       245.000         212.000
  21811462.557    -4533627.95349  -3537125.46446  21811462.729    21811468.463
       232.000         186.000
  23323644.076    -8401587.76749  -6549029.46646  23323643.528    23323651.527
       225.000         165.000
  20918519.062    -9430178.86149  -7351461.96147  20918517.851    20918523.899
       242.000         210.000
  20830084.314    -3944196.52549  -3084516.77047  20830083.453    20830090.383
       243.000         209.000
 02  7  9 16 22  0.0000000  0  9G22G23G15G29G 6G26G21G18G17
  23542414.691    -3930266.18749  -3071263.91445  23542412.757    23542421.860
       207.000         145.000
  21758564.288     5212483.79549   4042225.62647  21758564.080    21758570.485
       243.000         204.000
  20991483.548    -6117092.20649  -4778190.39247  20991482.749    20991489.836
       241.000         206.000
  22636503.958    -1729135.33849  -1356032.96746  22636503.595    22636509.979
       227.000         177.000
  20655650.607     1536786.53649   1176849.01348  20655650.411    20655656.887
       246.000         213.000
  21812260.306    -4529436.23049  -3533859.18346  21812261.106    21812266.389
       235.000         187.000
  23309219.656    -8477389.39349  -6608095.55546  23309219.433    23309227.728
       229.000         170.000
  20909363.401    -9478291.64749  -7388952.42347  20909362.759    20909368.388
       243.000         209.000
  20826506.472    -3962998.23949  -3099167.43747  20826505.220    20826512.493
       242.000         209.000
 02  7  9 16 22 30.0000000  0  9G22G23G15G29G 6G26G21G18G17
  23543395.041    -3925112.22449  -3067247.92345  23543393.888    23543403.246
       211.000         148.000
  21771121.311     5278470.53749   4093643.84947  21771120.137    21771127.620
       242.000         204.000
  20984900.716    -6151684.53849  -4805145.42147  20984899.996    20984907.056
       242.000         204.000
  22640873.870    -1706170.64449  -1338138.41846  22640872.650    22640881.471
       224.000         176.000
  20664415.430     1582845.64049   1212739.19948  20664415.113    20664421.451
       247.000         214.000
  21813181.470    -4524597.35749  -3530088.63146  21813181.828    21813187.025
       234.000         187.000
  23294842.212    -8552943.22749  -6666968.55746  23294840.218    23294850.655
       226.000         174.000
  20900289.268    -9525976.18349  -7426109.16947  20900288.731    20900294.597
       244.000         210.000
  20822958.261    -3981643.73849  -3113696.39347  20822957.147    20822963.724
       242.000         209.000
 02  7  9 16 23  0.0000000  0  9G22G23G15G29G 6G26G21G18G17
  23544473.825    -3919444.31449  -3062831.40145  23544472.811    23544482.854
       212.000         149.000
  21783722.782     5344692.54849   4145245.40747  21783721.853    21783729.176
       241.000         203.000
  20978352.081    -6186097.85049  -4831960.95447  20978351.240    20978358.089
       242.000         204.000
  22645346.149    -1682667.74749  -1319824.46446  22645345.913    22645352.061
       227.000         176.000
  20673271.903     1629386.53749   1249004.81048  20673271.522    20673278.080
       245.000         213.000
  21814225.677    -4519110.43949  -3525813.10247  21814226.395    21814232.057
       235.000         189.000
  23280511.798    -8628247.95649  -6725647.44646  23280511.487    23280520.043
       226.000         172.000
  20891296.778    -9573231.65549  -7462931.59047  20891296.277    20891301.589
       244.000         210.000
  20819439.833    -4000132.48049  -3128103.20247  20819438.902    20819445.658
       242.000         209.000
 02  7  9 16 23 30.0000000  0  9G22G23G15G29G 6G26G21G18G17
  23545649.678    -3913265.02649  -3058016.35045  23545649.166    23545657.912
       215.000         149.000
  21796368.521     5411145.99849   4197027.28647  21796368.088    21796374.198
       241.000         203.000
  20971837.269    -6220333.61249  -4858638.15847  20971836.300    20971842.984
       242.000         204.000
  22649920.513    -1658628.63549  -1301092.71146  22649920.536    22649926.359
       226.000         175.000
  20682219.680     1676407.07749   1285644.16248  20682219.607    20682225.642
       246.000         213.000
  21815393.185    -4512976.87549  -3521033.69947  21815393.337    21815399.558
       236.000         189.000
  23266229.145    -8703304.30649  -6784132.83546  23266227.906    23266237.012
       224.000         171.000
  20882385.818    -9620059.23749  -7499420.58947  20882384.856    20882390.919
       242.000         210.000
  20815950.995    -4018465.52749  -3142388.67347  20815949.978    20815957.020
       241.000         208.000
 02  7  9 16 24  0.0000000  0  9G22G23G15G29G 6G26G21G18G17
  23546922.952    -3906574.75349  -3052803.14645  23546918.877    23546933.767
       208.000         147.000
  21809057.960     5477829.23449   4248988.23947  21809056.894    21809063.315
       240.000         202.000
  20965356.365    -6254390.94449  -4885176.30747  20965354.997    20965362.937
       241.000         205.000
  22654596.953    -1634053.56449  -1281943.28946  22654596.969    22654603.291
       227.000         177.000
  20691258.680     1723907.07349   1322657.12348  20691258.410    20691264.616
       246.000         214.000
  21816683.463    -4506196.01549  -3515749.90147  21816683.584    21816688.779
       235.000         188.000
  23251993.478    -8778110.85349  -6842423.56546  23251991.361    23252002.166
       217.000         168.000
  20873556.317    -9666458.36149  -7535575.72347  20873555.788    20873561.117
       243.000         210.000
  20812491.996    -4036642.20049  -3156552.31147  20812492.022    20812498.196
       244.000         208.000
 02  7  9 16 24 30.0000000  0  9G22G23G15G29G 6G26G21G18G17
  23548292.038    -3899373.41749  -3047191.69545  23548288.569    23548303.662
       202.000         142.000
  21821790.693     5544741.29449   4301127.50347  21821789.619    21821797.291
       239.000         202.000
  20958909.556    -6288268.42049  -4911574.31147  20958909.129    20958915.795
       243.000         207.000
  22659375.613    -1608941.87949  -1262375.75146  22659375.960    22659381.663
       227.000         175.000
  20700388.989     1771887.04149   1360044.08548  20700388.199    20700394.900
       245.000         213.000
  21818097.343    -4498766.62149  -3509960.75547  21818096.326    21818103.629
       233.000         188.000
  23237805.598    -8852666.12849  -6900518.48046  23237804.103    23237813.699
       223.000         165.000
  20864808.760    -9712427.42849  -7571395.75547  20864808.174    20864813.654
       243.000         211.000
  20809063.395    -4054660.98049  -3170592.91547  20809062.726    20809069.153
       244.000         208.000
 02  7  9 16 25  0.0000000  0  9G22G23G15G29G 6G26G21G18G17
  23549759.245    -3891661.59949  -3041182.52445  23549761.030    23549769.699
       214.000         145.000
  21834566.814     5611880.44849   4353443.71247  21834566.294    21834573.314
       241.000         202.000
  20952497.324    -6321965.51249  -4937831.77147  20952496.598    20952502.868
       243.000         207.000
  22664256.643    -1583293.68649  -1242390.12846  22664256.612    22664262.848
       227.000         175.000
  20709610.540     1820346.80549   1397804.90347  20709610.295    20709616.599
       245.000         212.000
  21819634.710    -4490688.00049  -3503665.72847  21819634.591    21819640.664
       233.000         189.000
  23223666.075    -8926968.84349  -6958416.61846  23223664.901    23223672.246
       223.000         163.000
  20856143.014    -9757965.92649  -7606880.26047  20856141.863    20856147.886
       242.000         210.000
  20805664.810    -4072521.11249  -3184509.87147  20805663.949    20805670.441
       242.000         208.000
 02  7  9 16 25 30.0000000  0  9G22G23G15G29G 6G26G21G18G17
  23551324.582    -3883443.08749  -3034778.54745  23551327.235    23551331.277
       217.000         149.000
  21847385.393     5679241.77549   4405933.03347  21847385.330    21847391.092
       242.000         202.000
  20946118.890    -6355484.59849  -4963950.53347  20946117.854    20946124.892
       243.000         206.000
  22669238.676    -1557112.62249  -1221989.29546  22669238.593    22669244.676
       227.000         174.000
  20718922.688     1869282.66549   1435936.69847  20718922.269    20718928.350
       245.000         212.000
  21821294.894    -4481962.90449  -3496866.94247  21821294.332    21821301.006
       234.000         189.000
  23209574.129    -9001021.32249  -7016119.73346  23209573.427    23209580.270
       226.000         163.000
  20847558.658    -9803076.31449  -7642031.18347  20847557.936    20847563.382
       243.000         210.000
  20802295.724    -4090225.15749  -3198305.21647  20802295.121    20802301.422
       244.000         208.000
 02  7  9 16 26  0.0000000  0  9G22G23G15G29G 6G26G21G18G17
  23552985.749    -3874720.64349  -3027981.93445  23552987.576    23552991.587
       217.000         151.000
  21860245.636     5746821.51549   4458592.54247  21860244.658    21860251.416
       239.000         202.000
  20939773.970    -6388826.93849  -4989931.55147  20939773.167    20939780.318
       243.000         206.000
  22674322.095    -1530400.67449  -1201174.79946  22674320.914    22674328.139
       225.000         174.000
  20728325.114     1918692.41049   1474437.77748  20728324.929    20728331.556
       246.000         213.000
  21823078.031    -4472592.86749  -3489565.60647  21823077.318    21823084.473
       233.000         189.000
  23195530.245    -9074824.19249  -7073628.33746  23195529.139    23195538.201
       227.000         166.000
  20839055.643    -9847759.88649  -7676849.52947  20839055.162    20839060.821
       243.000         211.000
  20798956.331    -4107774.25149  -3211979.83547  20798955.553    20798962.403
       242.000         209.000
 02  7  9 16 26 30.0000000  0  9G22G23G15G29G 6G26G21G18G17
  23554742.274    -3865492.36449  -3020791.12745  23554741.092    23554747.239
       212.000         151.000
  21873146.911     5814620.20149   4511422.68347  21873145.746    21873153.049
       238.000         201.000
  20933463.487    -6421989.18749  -5015772.23747  20933462.925    20933469.599
       244.000         207.000
  22679506.450    -1503155.80949  -1179945.00946  22679506.095    22679511.903
       226.000         174.000
  20737818.210     1968578.10349   1513309.70948  20737818.187    20737824.515
       245.000         213.000
  21824984.346    -4462574.92049  -3481759.41047  21824983.788    21824990.341
       234.000         189.000
  23181534.105    -9148374.07549  -7130939.80746  23181532.849    23181541.702
       225.000         169.000
  20830634.454    -9892013.27249  -7711332.65247  20830633.483    20830639.733
       242.000         211.000
  20795646.747    -4125165.32649  -3225531.31547  20795645.754    20795653.145
       242.000         209.000
 02  7  9 16 27  0.0000000  0  9G22G23G15G29G 6G26G21G18G17
  23556594.740    -3855757.88049  -3013205.85245  23556592.400    23556599.811
       209.000         149.000
  21886090.019     5882637.48349   4564423.12947  21886090.005    21886096.171
       240.000         201.000
  20927187.622    -6454969.49349  -5041471.14447  20927186.380    20927193.877
       242.000         206.000
  22684792.611    -1475376.81549  -1158299.05246  22684792.275    22684798.840
       227.000         175.000
  20747401.855     2018940.76249   1552553.30647  20747401.173    20747407.688
       244.000         212.000
  21827014.224    -4451907.38349  -3473447.03347  21827013.983    21827020.465
       233.000         189.000
  23167586.545    -9221668.52849  -7188052.25546  23167585.664    23167595.738
       224.000         170.000
  20822295.484    -9935834.80549  -7745479.27747  20822295.235    20822300.482
       244.000         211.000
  20792367.934    -4142396.17349  -3238957.94247  20792367.793    20792373.985
       244.000         209.000
 02  7  9 16 27 30.0000000  0  9G22G23G15G29G 6G26G21G18G17
  23558542.155    -3845517.33949  -3005226.22445  23558538.233    23558551.620
       197.000         147.000
  21899074.719     5950872.02849   4617592.88547  21899073.837    21899080.710
       238.000         200.000
  20920946.473    -6487766.54149  -5067027.27147  20920945.901    20920952.670
       244.000         207.000
  22690180.226    -1447063.75249  -1136236.93046  22690179.935    22690186.428
       227.000         176.000
  20757076.142     2069780.58049   1592168.71047  20757075.476    20757082.216
       244.000         211.000
  21829167.868    -4440589.35649  -3464627.79047  21829167.332    21829173.944
       232.000         189.000
  23153687.594    -9294705.98749  -7244964.51646  23153686.027    23153695.229
       221.000         169.000
  20814038.961    -9979223.46449  -7779288.59747  20814038.501    20814044.063
       244.000         212.000
  20789119.851    -4159465.56749  -3252258.76147  20789118.673    20789125.775
       241.000         209.000
 02  7  9 16 28  0.0000000  0  9G22G23G15G29G 6G26G21G18G17
  23560585.959    -3834771.41249  -2996852.84845  23560583.418    23560596.004
       201.000         143.000
  21912100.211     6019322.24549   4670930.68347  21912099.819    21912106.431
       237.000         200.000
  20914740.504    -6520379.62849  -5092440.06347  20914739.357    20914746.376
       242.000         207.000
  22695669.819    -1418216.72749  -1113758.73546  22695669.615    22695674.571
       227.000         175.000
  20766841.345     2121097.30049   1632155.73647  20766841.365    20766847.279
       245.000         211.000
  21831445.337    -4428620.39549  -3455301.32847  21831445.485    21831451.600
       231.000         189.000
  23139837.678    -9367485.72849  -7301675.89746  23139837.174    23139845.488
       227.000         169.000
  20805864.925   -10022178.41749  -7812759.96247  20805864.120    20805870.078
       244.000         212.000
  20785902.242    -4176372.91649  -3265433.30847  20785901.300    20785908.084
       242.000         208.000
 02  7  9 16 28 30.0000000  0  9G22G23G15G29G 6G26G21G18G17
  23562725.860    -3823525.65649  -2988089.90245  23562723.816    23562735.757
       208.000         143.000
  21925165.627     6087981.69049   4724431.54047  21925165.554    21925172.246
       239.000         200.000
  20908568.583    -6552812.68449  -5117712.55147  20908567.740    20908574.992
       243.000         207.000
  22701259.859    -1388840.87849  -1090868.44746  22701259.425    22701266.476
       227.000         174.000
  20776696.494     2172885.85549   1672510.42747  20776695.903    20776703.182
       244.000         211.000
  21833846.038    -4416004.89449  -3445471.05447  21833846.133    21833852.282
       233.000         188.000
  23126036.925    -9440010.96349  -7358188.98746  23126037.218    23126045.129
       229.000         174.000
  20797772.601   -10064703.95349  -7845896.71048  20797771.792    20797777.669
       244.000         213.000
  20782715.088    -4193121.82149  -3278484.38947  20782714.776    20782720.950
       243.000         208.000
 02  7  9 16 29  0.0000000  0  9G22G23G15G29G 6G26G21G18G17
  23564961.035    -3811780.78549  -2978938.07445  23564963.385    23564970.578
       211.000         145.000
  21938270.838     6156848.67749   4778094.10247  21938271.011    21938277.325
       239.000         200.000
  20902431.107    -6585065.02049  -5142844.22547  20902430.538    20902436.832
       244.000         207.000
  22706950.579    -1358936.43249  -1067566.29046  22706950.116    22706956.474
       225.000         174.000
  20786641.140     2225145.71149   1713232.35747  20786641.218    20786647.468
       245.000         211.000
  21836369.992    -4402742.70649  -3435136.87047  21836370.565    21836375.926
       235.000         188.000
  23112284.674    -9512280.62549  -7414502.94146  23112284.748    23112292.983
       228.000         175.000
  20789762.074   -10106799.52049  -7878698.43047  20789761.787    20789766.884
       245.000         212.000
  20779558.160    -4209711.66349  -3291411.52647  20779557.422    20779563.751
       243.000         208.000
 02  7  9 16 29 30.0000000  0  9G22G23G15G29G 6G26G21G18G17
  23567290.671    -3799538.38249  -2969398.51445  23567290.464    23567301.963
       214.000         145.000
  21951415.047     6225920.73049   4831916.44547  21951414.062    21951420.985
       237.000         198.000
  20896328.094    -6617136.55349  -5167835.01747  20896327.304    20896333.329
       243.000         206.000
  22712741.492    -1328504.51949  -1043853.10046  22712740.757    22712747.572
       227.000         174.000
  20796675.495     2277875.74549   1754320.65747  20796674.852    20796681.452
       244.000         211.000
  21839017.035    -4388834.02049  -3424298.91047  21839015.904    21839022.958
       232.000         188.000
  23098580.835    -9584294.35449  -7470617.44546  23098580.426    23098588.536
       230.000         175.000
  20781833.518   -10148465.03849  -7911165.05148  20781833.086    20781838.062
       245.000         213.000
  20776431.391    -4226142.31949  -3304214.62547  20776430.137    20776437.264
       240.000         207.000
 02  7  9 16 30  0.0000000  0  9G22G23G15G29G 6G26G21G18G17
  23569715.777    -3786797.97749  -2959470.91745  23569716.505    23569726.660
       214.000         149.000
  21964597.825     6295197.37949   4885898.24347  21964597.406    21964604.369
       238.000         197.000
  20890259.887    -6649025.16449  -5192683.26347  20890259.025    20890265.356
       242.000         205.000
  22718632.816    -1297544.44149  -1019728.38046  22718632.848    22718639.019
       226.000         175.000
  20806799.174     2331076.71449   1795775.92447  20806799.023    20806805.752
       245.000         211.000
  21841786.984    -4374277.53249  -3412956.17547  21841787.335    21841792.170
       234.000         188.000
  23084925.933    -9656050.23749  -7526531.00946  23084924.759    23084933.001
       229.000         176.000
  20773986.978   -10189698.83449  -7943295.25448  20773986.558    20773991.355
       245.000         213.000
  20773335.211    -4242411.87149  -3316892.17447  20773335.169    20773341.323
       243.000         208.000
 02  7  9 16 30 30.0000000  0  9G22G23G15G29G 6G26G21G18G17
  23572234.717    -3773560.83849  -2949156.32945  23572233.382    23572243.591
       213.000         150.000
  21977819.415     6364676.66549   4940037.90747  21977819.272    21977825.723
       238.000         197.000
  20884226.534    -6680730.42549  -5217388.64147  20884225.731    20884232.812
       243.000         206.000
  22724624.720    -1266056.87749   -995192.63146  22724623.840    22724630.927
       228.000         176.000
  20817012.573     2384747.87649   1837597.57847  20817011.843    20817018.409
       243.000         211.000
  21844680.273    -4359073.38149  -3401108.78246  21844679.043    21844685.648
       231.000         187.000
  23071320.526    -9727546.90549  -7582242.59746  23071320.027    23071328.797
       228.000         177.000
  20766222.547   -10230500.93349  -7975089.06547  20766221.904    20766226.918
       244.000         212.000
  20770270.223    -4258519.64149  -3329443.68447  20770269.462    20770276.192
       243.000         210.000
 02  7  9 16 31  0.0000000  0  9G22G23G15G29G 6G26G21G18G17
  23574847.997    -3759828.26449  -2938455.64145  23574848.772    23574857.677
       220.000         154.000
  21991079.261     6434356.44149   4994333.80447  21991078.313    21991084.660
       238.000         197.000
  20878228.268    -6712252.05949  -5241950.93847  20878227.544    20878234.417
       243.000         207.000
  22730716.817    -1234042.72549   -970246.54546  22730716.822    22730724.009
       228.000         177.000
  20827315.185     2438888.41049   1879784.97447  20827315.170    20827321.501
       245.000         210.000
  21847696.558    -4343221.67449  -3388756.80446  21847696.604    21847701.960
       234.000         187.000
  23057764.283    -9798784.08449  -7637752.03746  23057762.903    23057772.300
       221.000         174.000
  20758540.362   -10270871.01849  -8006546.25647  20758539.812    20758544.713
       244.000         212.000
  20767235.825    -4274465.54849  -3341869.05947  20767235.382    20767241.948
       243.000         209.000
 02  7  9 16 31 30.0000000  0  9G22G23G15G29G 6G26G21G18G17
  23577555.553    -3745601.54649  -2927369.94545  23577556.138    23577563.637
       218.000         156.000
  22004376.648     6504234.47049   5048784.19647  22004375.997    22004382.175
       239.000         196.000
  20872264.901    -6743589.82649  -5266369.96847  20872263.862    20872270.760
       244.000         207.000
  22736908.994    -1201502.80849   -944890.80446  22736908.526    22736915.190
       224.000         175.000
  20837706.984     2493497.39049   1922337.39847  20837706.966    20837713.777
       245.000         211.000
  21850836.115    -4326722.91349  -3375900.62746  21850835.671    21850841.836
       233.000         186.000
  23044257.542    -9869761.43049  -7693058.99346  23044257.073    23044265.941
       220.000         170.000
  20750940.423   -10310809.22149  -8037666.88948  20750939.923    20750945.063
       244.000         213.000
  20764232.386    -4290248.89949  -3354167.76847  20764231.402    20764238.419
       242.000         210.000
 02  7  9 16 32  0.0000000  0  9G22G23G15G29G 6G26G21G18G17
  23580356.203    -3730885.06749  -2915902.57945  23580355.330    23580364.595
       215.000         155.000
  22017710.656     6574305.68149   5103385.11647  22017710.646    22017716.710
       239.000         196.000
  20866336.057    -6774746.48949  -5290647.86647  20866335.077    20866341.943
       244.000         207.000
  22743200.563    -1168441.11049   -919128.46846  22743201.050    22743206.922
       228.000         175.000
  20848187.112     2548570.70749   1965251.64447  20848186.811    20848193.482
       244.000         211.000
  21854098.160    -4309580.22749  -3362542.68746  21854098.373    21854103.675
       232.000         186.000
  23030799.832    -9940481.43049  -7748165.43346  23030799.569    23030807.665
       223.000         171.000
  20743422.093   -10350318.25249  -8068453.13348  20743421.278    20743426.567
       244.000         214.000
  20761259.173    -4305872.38349  -3366341.89747  20761258.390    20761265.423
       242.000         209.000
 02  7  9 16 32 30.0000000  0  9G22G23G15G29G 6G26G21G18G17
  23583250.154    -3715676.46849  -2904051.74445  23583250.066    23583258.103
       216.000         152.000
  22031082.006     6644571.70149   5158137.83647  22031081.570    22031088.346
       238.000         197.000
  20860442.351    -6805717.82149  -5314781.35547  20860441.277    20860447.914
       243.000         207.000
  22749591.995    -1134854.81449   -892957.34046  22749591.456    22749597.122
       228.000         175.000
  20858756.036     2604111.28549   2008529.97747  20858755.874    20858762.179
       243.000         211.000
  21857483.288    -4291790.13949  -3348680.27646  21857482.580    21857488.888
       230.000         186.000
  23017392.019   -10010939.88349  -7803068.06046  23017390.032    23017400.371
       220.000         170.000
  20735985.983   -10389394.46249  -8098902.09648  20735984.926    20735990.696
       243.000         213.000
  20758317.357    -4321331.83449  -3378388.21147  20758316.676    20758323.799
       243.000         209.000
 02  7  9 16 33  0.0000000  0  9G22G23G15G29G 6G26G21G18G17
  23586237.966    -3699977.52849  -2891818.85445  23586238.427    23586246.492
       217.000         153.000
  22044489.800     6715029.83649   5213040.25347  22044489.068    22044495.104
       237.000         196.000
  20854583.851    -6836503.72949  -5338770.35647  20854583.093    20854589.504
       244.000         206.000
  22756083.223    -1100745.47649   -866378.65946  22756082.712    22756088.980
       229.000         176.000
  20869413.640     2660117.55149   2052171.19247  20869413.256    20869419.700
       244.000         209.000
  21860991.557    -4273353.75549  -3334314.26846  21860992.400    21860997.834
       232.000         186.000
  23004033.657   -10081136.67749  -7857766.78446  23004034.189    23004043.312
       227.000         173.000
  20728632.199   -10428038.24649  -8129014.10748  20728631.377    20728637.113
       243.000         213.000
  20755406.690    -4336627.47649  -3390306.87347  20755405.662    20755412.651
       242.000         209.000
 02  7  9 16 33 30.0000000  0  9G22G23G15G29G 6G26G21G18G17
  23589318.182    -3683791.35549  -2879206.30945  23589314.627    23589325.013
       203.000         148.000
  22057933.397     6785676.40949   5268089.50847  22057932.691    22057938.387
       238.000         195.000
  20848760.450    -6867105.64549  -5362615.99047  20848759.294    20848766.172
       242.000         205.000
  22762672.997    -1066115.70449   -839394.42446  22762672.090    22762677.381
       226.000         175.000
  20880159.513     2716586.91249   2096173.26147  20880159.856    20880165.750
       245.000         210.000
  21864622.459    -4254273.15349  -3319446.25846  21864622.617    21864628.305
       233.000         187.000
  22990725.646   -10151072.70549  -7912262.31046  22990724.363    22990733.074
       224.000         172.000
  20721360.425   -10466251.30949  -8158790.50147  20721359.941    20721365.451
       243.000         212.000
  20752526.893    -4351760.47049  -3402098.81047  20752526.245    20752533.057
       242.000         208.000
 02  7  9 16 34  0.0000000  0  9G22G23G15G29G 6G26G21G18G17
  23592490.778    -3667116.76349  -2866213.18445  23592490.089    23592501.496
       206.000         146.000
  22071413.073     6856512.07449   5323286.09247  22071413.099    22071419.171
       238.000         195.000
  20842972.657    -6897520.36449  -5386315.75547  20842971.741    20842978.707
       243.000         206.000
  22769362.074    -1030963.55349   -812003.17746  22769361.839    22769368.056
       226.000         177.000
  20890993.842     2773521.05049   2140537.49647  20890993.696    20890999.916
       245.000         210.000
  21868376.612    -4234545.83649  -3304074.32646  21868376.588    21868382.818
       232.000         187.000
  22977467.410   -10220744.52949  -7966551.98846  22977466.581    22977475.480
       226.000         171.000
  20714171.283   -10504030.94949  -8188229.15947  20714170.558    20714175.770
       243.000         212.000
  20749678.800    -4366727.64349  -3413761.54647  20749678.067    20749685.126
       241.000         208.000
 02  7  9 16 34 30.0000000  0  9G22G23G15G29G 6G26G21G18G17
  23595756.080    -3649955.51749  -2852840.87445  23595755.728    23595762.911
       209.000         144.000
  22084928.299     6927534.19749   5378627.97647  22084927.353    22084934.535
       236.000         196.000
  20837220.480    -6927748.15549  -5409869.85647  20837219.473    20837226.869
       243.000         208.000
  22776150.271     -995290.91149   -784206.33146  22776149.500    22776156.283
       225.000         176.000
  20901916.255     2830918.33649   2185262.62147  20901916.215    20901922.593
       245.000         210.000
  21872253.392    -4214172.86549  -3288199.29046  21872253.654    21872259.384
       231.000         186.000
  22964259.879   -10290152.35349  -8020635.92446  22964258.685    22964268.703
       225.000         173.000
  20707064.439   -10541377.55549  -8217330.39848  20707064.098    20707068.953
       245.000         213.000
  20746862.165    -4381529.15449  -3425295.18747  20746861.876    20746868.436
       243.000         208.000
 02  7  9 16 35  0.0000000  0  9G22G23G15G29G 6G26G21G18G17
  23599113.641    -3632309.94549  -2839091.07945  23599112.115    23599122.815
       209.000         144.000
  22098478.097     6998740.07749   5434113.06347  22098477.612    22098484.403
       237.000         196.000
  20831503.717    -6957789.32149  -5433278.54747  20831502.671    20831509.502
       243.000         207.000
  22783037.182     -959099.10549   -756004.98246  22783036.722    22783043.788
       226.000         176.000
  20912926.529     2888777.07849   2230347.31347  20912926.392    20912932.528
       245.000         210.000
  21876252.913    -4193155.37349  -3271822.04446  21876252.316    21876258.812
       232.000         186.000
  22951102.069   -10359296.52349  -8074514.41646  22951101.153    22951109.601
       228.000         174.000
  20700040.003   -10578291.92349  -8246094.82448  20700039.721    20700044.431
       245.000         213.000
  20744077.220    -4396165.13249  -3436699.84347  20744076.774    20744083.010
       243.000         209.000
 02  7  9 16 35 30.0000000  0  9G22G23G15G29G 6G26G21G18G17
  23602563.164    -3614181.55249  -2824965.10145  23602561.557    23602571.752
       205.000         141.000
  22112062.689     7070127.27749   5489739.42047  22112061.838    22112068.681
       238.000         196.000
  20825822.633    -6987643.43349  -5456541.48447  20825821.963    20825828.666
       244.000         207.000
  22790022.554     -922389.71449   -727400.28846  22790021.796    22790028.748
       224.000         176.000
  20924024.338     2947095.92649   2275790.53247  20924024.499    20924030.641
       246.000         211.000
  21880374.853    -4171494.17949  -3254943.19646  21880374.972    21880380.756
       234.000         186.000
  22937994.260   -10428177.06349  -8128187.50546  22937993.328    22938002.788
       230.000         176.000
  20693097.751   -10614774.44249  -8274522.75448  20693097.457    20693102.388
       244.000         214.000
  20741323.603    -4410635.47249  -3447975.43747  20741322.401    20741329.239
       242.000         208.000
 02  7  9 16 36  0.0000000  0  9G22G23G15G29G 6G26G21G18G17
  23606104.210    -3595570.95349  -2810463.36345  23606104.834    23606112.492
       210.000         139.000
  22125681.654     7141694.64749   5545506.16447  22125680.600    22125687.650
       237.000         195.000
  20820177.527    -7017309.25649  -5479657.67947  20820176.662    20820183.856
       244.000         207.000
  22797106.473     -885162.68549   -698392.27146  22797104.843    22797113.225
       224.000         175.000
  20935209.731     3005874.97849   2321592.36647  20935209.696    20935215.702
       245.000         211.000
  21884619.540    -4149188.71949  -3237562.33646  21884618.654    21884626.496
       231.000         186.000
  22924937.377   -10496792.10649  -8181653.70246  22924937.126    22924945.535
       231.000         180.000
  20686237.639   -10650824.29749  -8302613.52748  20686236.916    20686242.249
       243.000         213.000
  20738601.621    -4424938.53949  -3459120.66847  20738600.646    20738607.994
       242.000         209.000
 02  7  9 16 36 30.0000000  0  9G22G23G15G29G 6G26G21G18G17
  23609737.455    -3576482.44249  -2795589.19445  23609739.008    23609746.744
       211.000         143.000
  22139333.771     7213437.49749   5601409.64747  22139332.669    22139339.837
       236.000         195.000
  20814567.669    -7046789.25549  -5502629.08747  20814567.335    20814573.495
       245.000         207.000
  22804288.287     -847421.86249   -668983.85546  22804287.720    22804294.935
       226.000         175.000
  20946481.960     3065110.36149   2367749.78047  20946481.533    20946487.768
       245.000         209.000
  21888986.104    -4126242.33749  -3219682.06546  21888986.810    21888992.027
       233.000         186.000
  22911930.501   -10565144.08149  -8234914.92546  22911930.451    22911937.444
       230.000         180.000
  20679459.411   -10686444.07849  -8330369.17748  20679458.609    20679464.124
       243.000         213.000
  20735911.220    -4439076.59349  -3470137.33447  20735910.878    20735917.063
       243.000         209.000
 02  7  9 16 37  0.0000000  0  9G22G23G15G29G 6G26G21G18G17
  23613461.490    -3556917.09049  -2780343.52245  23613464.499    23613469.827
       209.000         141.000
  22153018.966     7285353.93849   5657448.40247  22153018.105    22153025.090
       237.000         195.000
  20808993.353    -7076082.42349  -5525454.92647  20808992.634    20808999.471
       245.000         207.000
  22811567.678     -809168.05849   -639175.72746  22811568.120    22811573.868
       228.000         176.000
  20957840.735     3124801.19349   2414262.07547  20957840.039    20957846.562
       244.000         209.000
  21893474.600    -4102655.53549  -3201302.74046  21893473.803    21893479.929
       230.000         185.000
  22898973.754   -10633231.95949  -8287970.33846  22898973.001    22898981.651
       228.000         179.000
  20672763.025   -10721633.34949  -8357789.36748  20672762.264    20672767.556
       243.000         214.000
  20733252.414    -4453049.14249  -3481025.03647  20733251.359    20733258.379
       242.000         208.000
 02  7  9 16 37 30.0000000  0  9G22G23G15G29G 6G26G21G18G17
  23617276.137    -3536876.19149  -2764727.30845  23617274.711    23617282.729
       202.000         136.000
  22166736.813     7357442.43849   5713621.22847  22166735.828    22166742.937
       235.000         194.000
  20803454.739    -7105187.91749  -5548134.51147  20803453.849    20803460.837
       244.000         208.000
  22818944.860     -770402.03349   -608968.45346  22818945.293    22818951.569
       229.000         176.000
  20969285.920     3184946.81249   2461128.74747  20969285.516    20969292.526
       243.000         209.000
  21898084.724    -4078428.24949  -3182424.35946  21898084.881    21898091.436
       232.000         186.000
  22886067.221   -10701055.11449  -8340819.49746  22886066.366    22886075.866
       227.000         178.000
  20666148.550   -10756392.19349  -8384874.16548  20666147.704    20666153.173
       244.000         214.000
  20730625.101    -4466855.25649  -3491783.03747  20730624.487    20730631.112
       242.000         208.000
 02  7  9 16 38  0.0000000  0  9G22G23G15G29G 6G26G21G18G17
  23621180.461    -3516360.54049  -2748741.15645  23621179.987    23621188.578
       210.000         140.000
  22180487.086     7429701.58149   5769927.03747  22180486.409    22180493.183
       237.000         195.000
  20797951.987    -7134104.81049  -5570667.14047  20797951.338    20797958.053
       245.000         209.000
  22826419.244     -731124.32049   -578362.47246  22826418.459    22826425.214
       225.000         174.000
  20980817.625     3245546.73849   2508349.43147  20980817.602    20980824.099
       245.000         209.000
  21902816.813    -4053560.67249  -3163047.03246  21902816.266    21902823.541
       231.000         186.000
  22873211.633   -10768612.26149  -8393461.37546  22873210.096    22873220.154
       225.000         176.000
  20659616.238   -10790719.85649  -8411622.97548  20659615.975    20659620.974
       245.000         215.000
  20728029.920    -4480493.55449  -3502410.29147  20728029.154    20728035.623
       243.000         208.000
 02  7  9 16 38 30.0000000  0  9G22G23G15G29G 6G26G21G18G17
  23625174.829    -3495369.69649  -2732384.68245  23625174.542    23625182.805
       212.000         146.000
  22194270.413     7502131.57149   5826365.95547  22194270.176    22194277.034
       238.000         194.000
  20792485.724    -7162830.47649  -5593050.77547  20792484.562    20792491.490
       244.000         209.000
  22833991.018     -691333.65949   -547356.79846  22833991.127    22833997.857
       227.000         174.000
  20992436.028     3306602.12849   2555925.02947  20992435.279    20992442.626
       244.000         209.000
  21907670.987    -4028051.05749  -3143169.44646  21907670.625    21907677.162
       231.000         185.000
  22860406.524   -10835900.68949  -8445893.81846  22860405.960    22860414.880
       228.000         175.000
  20653166.388   -10824614.08449  -8438034.05048  20653165.581    20653171.043
       245.000         215.000
  20725467.019    -4493961.33949  -3512904.66547  20725466.048    20725473.214
       242.000         208.000
 02  7  9 16 39  0.0000000  0  9G22G23G15G29G 6G26G21G18G17
  23629258.836    -3473906.89149  -2715660.43645  23629255.767    23629267.535
       206.000         146.000
  22208085.257     7574728.55149   5882935.00347  22208084.463    22208091.142
       236.000         194.000
  20787055.377    -7191366.14049  -5615286.34447  20787054.032    20787061.535
       243.000         208.000
  22841659.890     -651033.18649   -515953.87746  22841659.248    22841666.291
       226.000         174.000
  21004140.415     3368110.00449   2603853.20647  21004140.376    21004147.042
       243.000         208.000
  21912646.817    -4001901.87749  -3122793.47446  21912646.161    21912653.859
       230.000         186.000
  22847653.060   -10902921.94949  -8498118.08446  22847652.909    22847659.664
       230.000         175.000
  20646798.523   -10858076.83349  -8464108.90948  20646797.809    20646802.929
       243.000         214.000
  20722936.338    -4507259.94649  -3523267.21147  20722936.070    20722942.477
       244.000         208.000
 02  7  9 16 39 30.0000000  0  9G22G23G15G29G 6G26G21G18G17
  23633431.905    -3451974.58349  -2698570.39645  23633429.957    23633439.138
       201.000         141.000
  22221931.235     7647489.68649   5939631.95347  22221930.678    22221936.662
       236.000         193.000
  20781661.333    -7219712.04449  -5637374.03947  20781660.586    20781666.806
       245.000         207.000
  22849425.473     -610224.90549   -484155.27446  22849425.312    22849432.088
       224.000         174.000
  21015930.853     3430068.24849   2652132.31547  21015931.214    21015937.297
       244.000         208.000
  21917743.980    -3975114.92649  -3101920.55946  21917744.431    21917750.827
       231.000         185.000
  22834950.301   -10969676.20749  -8550134.34546  22834950.463    22834958.046
       228.000         176.000
  20640512.567   -10891109.37649  -8489848.53948  20640512.091    20640517.479
       244.000         214.000
  20720437.906    -4520389.67549  -3533498.17447  20720437.180    20720443.952
       244.000         209.000
 02  7  9 16 40  0.0000000  0  9G22G23G15G29G 6G26G21G18G17
  23637694.195    -3429572.80448  -2681114.48844  23637687.310    23637697.141
       190.000         131.000
  22235808.660     7720414.63649   5996456.54547  22235807.681    22235814.868
       237.000         193.000
  20776303.806    -7247866.15649  -5659312.28647  20776302.725    20776309.703
       245.000         206.000
  22857287.742     -568908.45049   -451960.67446  22857287.939    22857293.934
       227.000         175.000
  21027806.980     3492477.44049   2700762.80847  21027806.652    21027813.680
       243.000         207.000
  21922963.051    -3947689.31949  -3080549.97946  21922963.848    21922970.042
       232.000         185.000
  22822298.246   -11036161.77049  -8601941.19546  22822297.722    22822306.871
       227.000         176.000
  20634308.837   -10923710.30349  -8515251.84748  20634308.665    20634313.579
       245.000         215.000
  20717971.783    -4533348.54549  -3543595.98847  20717971.567    20717978.030
       245.000         209.000
 02  7  9 16 40 30.0000000  0  9G22G23G15G29G 6G26G21G18G17
  23642045.275    -3406702.00449  -2663293.18544  23642045.932    23642053.759
       200.000         125.000
  22249716.740     7793502.66149   6053408.23147  22249716.282    22249723.355
       237.000         193.000
  20770982.996    -7275826.87149  -5681099.83947  20770982.098    20770989.307
       244.000         207.000
  22865246.825     -527083.74349   -419370.02946  22865246.919    22865254.265
       226.000         175.000
  21039768.888     3555337.59449   2749744.71547  21039768.311    21039775.240
       243.000         208.000
  21928304.032    -3919624.63149  -3058681.41246  21928304.531    21928309.740
       234.000         186.000
  22809698.039   -11102376.90149  -8653537.37046  22809697.595    22809706.150
       227.000         176.000
  20628187.542   -10955878.26249  -8540317.77548  20628187.053    20628192.167
       246.000         215.000
  20715538.750    -4546134.71249  -3553559.23047  20715538.331    20715544.863
       245.000         209.000
 02  7  9 16 41  0.0000000  0  9G22G23G15G29G 6G26G21G18G17
  23646486.257    -3383367.49449  -2645110.48544  23646485.409    23646492.211
       201.000         122.000
  22263655.081     7866748.00049   6110482.48247  22263654.383    22263661.512
       236.000         193.000
  20765698.457    -7303597.38949  -5702739.18047  20765697.237    20765704.369
       244.000         207.000
  22873301.724     -484755.69449   -386387.16746  22873301.233    22873308.288
       226.000         175.000
  21051815.551     3618643.79249   2799074.19147  21051815.441    21051821.861
       243.000         207.000
  21933765.392    -3890925.21849  -3036318.25946  21933765.820    21933771.389
       234.000         185.000
  22797148.379   -11168324.85549  -8704925.31346  22797147.683    22797156.022
       229.000         178.000
  20622147.842   -10987617.36649  -8565049.53948  20622147.464    20622152.254
       246.000         214.000
  20713137.963    -4558751.12149  -3563390.19547  20713137.114    20713143.587
       244.000         208.000
 02  7  9 16 41 30.0000000  0  9G22G23G15G29G 6G26G21G18G17
  23651014.675    -3359569.52949  -2626566.63344  23651015.663    23651021.145
       202.000         121.000
  22277622.897     7940150.02849   6167678.83747  22277622.673    22277629.063
       238.000         193.000
  20760450.484    -7331175.76049  -5724228.81747  20760450.509    20760456.613
       247.000         208.000
  22881452.205     -441924.39049   -353012.16546  22881451.870    22881459.724
       226.000         173.000
  21063947.199     3682396.18549   2848751.33947  21063946.693    21063954.356
       241.000         207.000
  21939347.621    -3861590.56349  -3013460.09946  21939347.266    21939353.062
       230.000         184.000
  22784650.135   -11234003.74249  -8756103.60446  22784649.335    22784657.564
       230.000         179.000
  20616189.981   -11018926.14749  -8589445.97548  20616189.179    20616194.564
       245.000         215.000
  20710769.695    -4571196.10949  -3573087.58847  20710769.323    20710775.600
       245.000         208.000
 02  7  9 16 42  0.0000000  0  9G22G23G15G29G 6G26G21G18G17
  23655632.048    -3335310.14349  -2607663.29844  23655633.636    23655638.706
       202.000         125.000
  22291620.395     8013706.42049   6224995.46947  22291619.083    22291626.183
       235.000         192.000
  20755239.289    -7358561.96649  -5745568.72147  20755238.527    20755245.268
       246.000         210.000
  22889698.504     -398591.17449   -319246.04346  22889698.022    22889703.779
       224.000         170.000
  21076163.367     3746593.23449   2898774.95647  21076163.146    21076170.249
       241.000         206.000
  21945050.314    -3831621.98649  -2990108.00246  21945051.087    21945056.567
       233.000         183.000
  22772203.175   -11299413.32149  -8807072.07646  22772203.392    22772210.742
       233.000         180.000
  20610313.838   -11049805.06149  -8613507.45248  20610313.157    20610318.566
       244.000         214.000
  20708434.390    -4583469.28849  -3582651.10447  20708433.700    20708440.475
       244.000         209.000
 02  7  9 16 42 30.0000000  0  9G22G23G15G29G 6G26G21G18G17
  23660335.677    -3310592.54149  -2588402.93144  23660331.593    23660341.130
       202.000         131.000
  22305646.070     8087413.79949   6282429.74647  22305645.743    22305652.865
       236.000         192.000
  20750064.205    -7385756.80949  -5766759.50047  20750062.880    20750070.054
       244.000         209.000
  22898039.237     -354758.90149   -285091.04946  22898037.528    22898045.515
       220.000         166.000
  21088463.913     3811232.27349   2949143.00147  21088464.320    21088470.090
       245.000         206.000
  21950873.736    -3801021.76849  -2966263.67946  21950872.997    21950879.608
       231.000         184.000
  22759807.586   -11364554.96849  -8857831.72746  22759806.944    22759813.655
       230.000         180.000
  20604519.209   -11080256.06649  -8637235.49048  20604519.158    20604524.119
       247.000         215.000
  20706131.412    -4595571.55549  -3592081.43447  20706130.694    20706136.831
       244.000         208.000
 02  7  9 16 43  0.0000000  0  9G22G23G15G29G 6G26G21G18G17
  23665126.407    -3285414.94849  -2568784.11645  23665125.994    23665135.836
       212.000         141.000
  22319701.290     8161273.84849   6339982.99947  22319700.253    22319707.742
       235.000         192.000
  20744926.236    -7412756.06749  -5787797.86147  20744925.727    20744932.409
       246.000         209.000
  22906475.529     -310425.43749   -250545.53346  22906475.427    22906480.894
       222.000         165.000
  21100849.139     3876315.47049   2999857.15847  21100848.477    21100855.729
       242.000         206.000
  21956817.449    -3769787.34949  -2941925.22046  21956817.911    21956822.185
       233.000         184.000
  22747463.052   -11429424.80149  -8908379.59546  22747461.730    22747469.759
       230.000         178.000
  20598806.788   -11110275.93449  -8660627.58348  20598806.133    20598811.290
       245.000         215.000
  20703861.744    -4607498.89049  -3601375.46147  20703861.415    20703868.004
       245.000         209.000
 02  7  9 16 43 30.0000000  0  9G22G23G15G29G 6G26G21G18G17
  23670004.723    -3259780.08149  -2548808.95045  23670004.877    23670013.458
       218.000         148.000
  22333784.755     8235283.44249   6397652.78047  22333784.263    22333791.456
       235.000         191.000
  20739825.696    -7439560.35249  -5808684.29747  20739824.998    20739831.447
       247.000         209.000
  22915006.894     -265593.12849   -215611.27846  22915006.501    22915012.963
       221.000         165.000
  21113318.102     3941840.45649   3050915.55347  21113317.924    21113324.701
       242.000         205.000
  21962881.527    -3737920.61649  -2917094.00246  21962881.394    21962888.261
       233.000         185.000
  22735170.318   -11494023.20449  -8958715.95346  22735169.220    22735178.444
       230.000         180.000
  20593175.996   -11139865.83049  -8683684.63448  20593175.701    20593179.925
       246.000         215.000
  20701625.284    -4619251.65149  -3610533.45247  20701624.364    20701631.091
       245.000         209.000
 02  7  9 16 44  0.0000000  0  9G22G23G15G29G 6G26G21G18G17
  23674969.623    -3233691.22049  -2528480.03845  23674970.129    23674978.362
       220.000         151.000
  22347896.223     8309439.16549   6455436.42947  22347895.824    22347902.428
       236.000         191.000
  20734762.059    -7466170.63149  -5829419.56647  20734760.964    20734767.454
       246.000         208.000
  22923632.460     -220264.65249   -180290.42546  22923632.489    22923639.705
       223.000         168.000
  21125870.647     4007804.47049   3102316.03547  21125870.654    21125876.494
       241.000         205.000
  21969065.567    -3705424.03549  -2891772.01946  21969065.243    21969070.285
       234.000         185.000
  22722928.743   -11558351.13449  -9008841.53446  22722928.484    22722936.010
       233.000         181.000
  20587626.817   -11169027.19849  -8706407.75648  20587626.003    20587631.128
       245.000         214.000
  20699421.739    -4630830.67149  -3619556.05647  20699421.069    20699427.531
       244.000         209.000
 02  7  9 16 44 30.0000000  0  9G22G23G15G29G 6G26G21G18G17
  23680020.599    -3207149.42649  -2507798.18945  23680019.743    23680029.514
       218.000         151.000
  22362035.119     8383739.78549   6513332.98247  22362034.276    22362042.048
       235.000         191.000
  20729735.125    -7492585.60549  -5850002.65247  20729734.074    20729741.154
       245.000         208.000
  22932352.569     -174440.76449   -144583.53046  22932353.542    22932358.289
       226.000         172.000
  21138506.594     4074206.90949   3154058.16447  21138506.007    21138513.020
       241.000         204.000
  21975369.342    -3672297.87549  -2865959.43846  21975369.368    21975374.754
       233.000         183.000
  22710739.157   -11622408.21449  -9058756.10746  22710738.833    22710746.640
       235.000         183.000
  20582159.135   -11197759.81049  -8728796.78848  20582158.628    20582163.611
       246.000         214.000
  20697251.559    -4642234.58649  -3628442.22247  20697250.721    20697257.390
       245.000         209.000
 02  7  9 16 45  0.0000000  0  9G22G23G15G29G 6G26G21G18G17
  23685157.439    -3180158.17649  -2486766.05445  23685157.257    23685166.244
       218.000         152.000
  22376200.875     8458181.71849   6571339.64447  22376200.519    22376207.281
       233.000         189.000
  20724745.450    -7518806.52349  -5870434.52147  20724744.838    20724751.730
       246.000         210.000
  22941166.446     -128124.50449   -108492.95546  22941166.421    22941172.387
       225.000         173.000
  21151225.355     4141044.91249   3206139.67047  21151225.152    21151232.272
       240.000         204.000
  21981792.400    -3638544.89649  -2839658.44146  21981792.602    21981797.965
       235.000         184.000
  22698601.196   -11686195.11749  -9108460.10146  22698601.555    22698608.750
       235.000         184.000
  20576772.675   -11226065.70249  -8750853.30148  20576771.957    20576776.857
       245.000         214.000
  20695114.394    -4653464.59649  -3637192.88447  20695113.981    20695120.480
       245.000         209.000
 02  7  9 16 45 30.0000000  0  9G22G23G15G29G 6G26G21G18G17
  23690379.165    -3152718.13849  -2465384.26945  23690375.894    23690388.364
       210.000         153.000
  22390393.304     8532764.24049   6629455.86647  22390393.233    22390399.687
       234.000         189.000
  20719792.917    -7544831.69849  -5890713.86247  20719792.026    20719799.408
       244.000         210.000
  22950073.734      -81316.27549    -72019.02946  22950074.514    22950081.401
       226.000         174.000
  21164026.963     4208317.99349   3258560.21247  21164027.189    21164034.292
       241.000         204.000
  21988334.766    -3604165.13549  -2812869.03146  21988334.223    21988340.172
       235.000         184.000
  22686514.683   -11749711.03649  -9157952.98346  22686513.324    22686521.646
       234.000         184.000
  20571467.528   -11253944.08449  -8772576.70448  20571466.710    20571471.577
       245.000         214.000
  20693010.817    -4664519.05449  -3645806.74047  20693010.427    20693016.499
       243.000         208.000
 02  7  9 16 46  0.0000000  0  9G22G23G15G29G 6G26G21G18G17
  23695685.934    -3124828.97349  -2443652.50845  23695684.229    23695697.252
       210.000         153.000
  22404612.993     8607487.57449   6687681.81947  22404613.139    22404619.678
       237.000         189.000
  20714878.305    -7570658.31149  -5910838.49047  20714877.619    20714884.079
       244.000         210.000
  22959074.822      -34015.07049    -35160.98146  22959075.633    22959082.105
       225.000         174.000
  21176911.768     4276027.23849   3311320.62047  21176911.609    21176918.292
       240.000         203.000
  21994996.604    -3569157.21449  -2785590.13246  21994996.241    21995002.839
       234.000         185.000
  22674480.060   -11812952.94449  -9207232.31346  22674479.295    22674487.660
       234.000         184.000
  20566243.977   -11281392.89149  -8793965.36648  20566243.456    20566248.574
       245.000         214.000
  20690941.221    -4675394.89349  -3654281.41347  20690940.270    20690947.276
       243.000         208.000
 02  7  9 16 46 30.0000000  0  9G22G23G15G29G 6G26G21G18G17
  23701077.315    -3096493.86449  -2421573.22945  23701075.007    23701086.091
       205.000         150.000
  22418858.781     8682348.30549   6746014.82947  22418857.838    22418865.090
       235.000         189.000
  20710001.260    -7596287.29749  -5930809.12047  20710000.895    20710007.844
       245.000         210.000
  22968169.303       13776.04249      2078.80646  22968168.098    22968175.993
       221.000         171.000
  21189878.909     4344169.62249   3364418.54147  21189878.952    21189885.695
       242.000         203.000
  22001777.065    -3533523.87149  -2757823.92546  22001776.647    22001782.508
       234.000         184.000
  22662497.337   -11875922.11149  -9256299.15446  22662496.620    22662503.949
       233.000         183.000
  20561102.010   -11308413.82249  -8815020.62448  20561101.805    20561106.386
       246.000         214.000
  20688905.277    -4686093.01949  -3662617.61347  20688904.439    20688911.563
       241.000         207.000
 02  7  9 16 47  0.0000000  0  9G22G23G15G29G 6G26G21G18G17
  23706553.271    -3067715.91949  -2399148.88345  23706550.656    23706564.634
       203.000         145.000
  22433129.945     8757343.53949   6804452.63847  22433129.278    22433136.336
       235.000         189.000
  20705161.872    -7621719.13949  -5950626.11647  20705161.135    20705168.285
       244.000         210.000
  22977356.826       62054.58749     39698.43546  22977356.947    22977362.683
       224.000         169.000
  21202928.018     4412742.74349   3417852.09847  21202927.719    21202934.454
       240.000         203.000
  22008676.501    -3497267.46049  -2729572.19046  22008677.240    22008683.132
       233.000         184.000
  22650566.421   -11938619.42349  -9305154.12946  22650565.989    22650573.336
       234.000         184.000
  20556041.309   -11335008.43049  -8835743.68048  20556040.829    20556045.923
       245.000         215.000
  20686903.256    -4696613.98049  -3670815.75947  20686902.785    20686909.588
       243.000         208.000
 02  7  9 16 47 30.0000000  0  9G22G23G15G29G 6G26G21G18G17
  23712114.372    -3038497.04849  -2376381.05645  23712112.586    23712123.885
       195.000         140.000
  22447426.374     8832471.28449   6862993.70747  22447425.481    22447431.770
       235.000         189.000
  20700359.924    -7646953.32349  -5970289.10447  20700359.359    20700365.842
       245.000         209.000
  22986636.514      110818.97349     77696.63746  22986635.433    22986642.936
       222.000         168.000
  21216058.721     4481744.97449   3471620.03047  21216058.988    21216065.110
       241.000         203.000
  22015694.297    -3460388.98949  -2700835.73546  22015693.852    22015699.701
       232.000         182.000
  22638687.461   -12001044.52649  -9353797.02046  22638686.563    22638693.373
       232.000         182.000
  20551061.497   -11361177.23049  -8856134.94148  20551060.857    20551066.505
       245.000         215.000
  20684935.120    -4706957.24149  -3678875.44447  20684934.618    20684941.308
       242.000         209.000
 02  7  9 16 48  0.0000000  0  9G22G23G15G29G 6G26G21G18G17
  23717758.043    -3008837.47849  -2353269.81245  23717758.128    23717764.984
       202.000         135.000
  22461747.970     8907731.16249   6921637.74347  22461748.185    22461753.958
       236.000         188.000
  20695596.160    -7671987.84449  -5989796.50047  20695595.447    20695601.819
       245.000         209.000
  22996008.365      160069.26349    116073.43346  22996008.624    22996014.055
       224.000         170.000
  21229271.030     4551176.34449   3525722.34647  21229271.051    21229277.563
       239.000         202.000
  22022830.523    -3422888.30649  -2671614.44046  22022831.011    22022835.783
       234.000         183.000
  22626860.211   -12063196.11949  -9402226.75846  22626859.301    22626867.368
       231.000         182.000
  20546162.943   -11386919.20049  -8876193.60648  20546162.668    20546167.921
       246.000         215.000
  20683001.134    -4717120.62149  -3686794.95847  20683000.806    20683006.886
       244.000         209.000
 02  7  9 16 48 30.0000000  0  9G22G23G15G29G 6G26G21G18G17
  23723486.022    -2978739.66449  -2329817.04245  23723485.273    23723493.563
       204.000         137.000
  22476094.279     8983121.03949   6980383.07147  22476093.344    22476099.962
       234.000         189.000
  20690870.382    -7696822.05549  -6009147.82947  20690869.279    20690876.310
       243.000         209.000
  23005472.362      209803.68849    154827.52846  23005472.593    23005478.271
       224.000         171.000
  21242564.806     4621035.17249   3580157.75547  21242564.629    21242571.853
       240.000         202.000
  22030084.736    -3384766.91949  -2641909.48146  22030084.010    22030090.106
       233.000         183.000
  22615085.128   -12125073.83149  -9450443.09346  22615084.143    22615091.796
       231.000         182.000
  20541345.770   -11412234.48549  -8895919.78848  20541345.063    20541350.742
       246.000         216.000
  20681101.508    -4727103.71749  -3694573.99447  20681101.112    20681107.540
       243.000         209.000
 02  7  9 16 49  0.0000000  0 10G22G23G15G29G 6G26G21G 3G18G17
  23729296.442    -2948205.25249  -2306024.04945  23729295.551    23729302.731
       214.000         141.000
  22490464.845     9058639.15049   7039228.32447  22490464.226    22490470.825
       235.000         189.000
  20686182.681    -7721455.32449  -6028342.57247  20686181.934    20686188.881
       245.000         210.000
  23015028.388      260020.82049    193957.72746  23015028.567    23015034.035
       227.000         173.000
  21255939.766     4691320.42549   3634925.42547  21255940.529    21255946.835
       242.000         204.000
  22037456.768    -3346025.64849  -2611721.49646  22037456.716    22037463.223
       232.000         184.000
  22603362.578   -12186676.89749  -9498445.44446  22603361.658    22603369.811
       233.000         183.000
                   -557069.80549   -434509.32344                  24603094.301
       208.000         117.000
  20536609.448   -11437123.62549  -8915313.90748  20536608.642    20536613.919
       245.000         215.000
  20679236.351    -4736905.65649  -3702211.86147  20679236.013    20679242.293
       244.000         209.000
 02  7  9 16 49 30.0000000  0 10G22G23G15G29G 6G26G21G 3G18G17
  23735189.598    -2917238.33049  -2281894.02245  23735188.601    23735197.259
       217.000         144.000
  22504859.094     9134281.42349   7098170.33247  22504857.681    22504864.568
       231.000         188.000
  20681533.084    -7745889.20449  -6047381.95247  20681532.453    20681538.571
       245.000         211.000
  23024675.651      310717.15249    233461.37146  23024675.919    23024683.513
       229.000         175.000
  21269395.290     4762028.30149   3690022.43547  21269395.454    21269402.126
       243.000         204.000
  22044946.235    -3306668.14949  -2581053.32846  22044946.131    22044952.064
       231.000         184.000
  22591691.516   -12248007.55449  -9546235.49146  22591690.468    22591698.372
       231.000         183.000
  24583941.169     -657679.70649   -512906.56945  24583938.613    24583948.615
       210.000         134.000
  20531953.781   -11461589.24549  -8934378.01948  20531952.955    20531958.379
       244.000         215.000
  20677405.310    -4746528.02449  -3709709.79147  20677404.221    20677411.134
       242.000         209.000
 02  7  9 16 50  0.0000000  0 10G22G23G15G29G 6G26G21G 3G18G17
  23741164.262    -2885841.05949  -2257428.66945  23741163.435    23741171.413
       217.000         147.000
  22519276.188     9210045.86649   7157207.53146  22519274.970    22519282.194
       232.000         187.000
  20676921.579    -7770123.32449  -6066265.67947  20676921.345    20676927.510
       246.000         211.000
  23034413.779      361890.62749    273336.79046  23034413.747    23034419.621
       226.000         176.000
  21282930.811     4833157.22349   3745447.53147  21282930.484    21282937.734
       241.000         204.000
  22052552.765    -3266695.87249  -2549906.13246  22052552.496    22052559.507
       231.000         184.000
  22580072.442   -12309065.75349  -9593813.29846  22580071.532    22580080.106
       232.000         182.000
  24564820.298     -758159.43049   -591202.38245  24564817.491    24564826.673
       212.000         140.000
  20527378.599   -11485631.84949  -8953112.50548  20527377.942    20527383.384
       244.000         215.000
  20675608.341    -4755970.27449  -3717067.40047  20675607.775    20675613.958
       242.000         208.000
 02  7  9 16 50 30.0000000  0 10G22G23G15G29G 6G26G21G 3G18G17
  23747220.998    -2854014.42549  -2232628.77645  23747220.831    23747228.976
       216.000         149.000
  22533716.700     9285931.60849   7216339.24446  22533716.962    22533723.075
       234.000         187.000
  20672348.383    -7794156.29149  -6084992.65247  20672347.472    20672354.130
       244.000         211.000
  23044242.361      413540.94749    313583.75346  23044241.903    23044248.793
       224.000         175.000
  21296546.224     4904706.39449   3801200.08647  21296546.038    21296552.413
       241.000         204.000
  22060276.248    -3226109.06049  -2518280.06046  22060275.719    22060282.307
       231.000         183.000
  22568505.538   -12369850.00449  -9641177.56346  22568504.579    22568513.439
       234.000         186.000
  24545724.308     -858505.56049   -669394.08045  24545721.551    24545732.132
       209.000         143.000
  20522884.050   -11509250.86149  -8971516.91748  20522883.663    20522888.598
       244.000         215.000
  20673846.007    -4765230.82849  -3724283.41747  20673845.295    20673851.473
       242.000         208.000
 02  7  9 16 51  0.0000000  0 10G22G23G15G29G 6G26G21G 3G18G17
  23753359.613    -2821759.28249  -2207495.05045  23753358.062    23753365.522
       212.000         145.000
  22548180.525     9361937.85949   7275564.86346  22548179.940    22548186.501
       233.000         187.000
  20667813.753    -7817986.20549  -6103561.39747  20667813.201    20667819.322
       247.000         210.000
  23054161.879      465667.30049    354201.68246  23054161.826    23054168.723
       224.000         175.000
  21310241.447     4976675.46449   3857279.83647  21310240.707    21310248.200
       239.000         202.000
  22068116.394    -3184908.16749  -2486175.49046  22068117.060    22068122.809
       233.000         183.000
  22556990.888   -12430359.37149  -9688327.67146  22556989.821    22556997.343
       233.000         186.000
  24526654.287     -958714.96649   -747479.28145  24526652.682    24526663.263
       211.000         144.000
  20518470.262   -11532445.62049  -8989590.74248  20518469.759    20518475.005
       244.000         216.000
  20672118.597    -4774307.89849  -3731356.45747  20672118.010    20672124.686
       242.000         208.000
 02  7  9 16 51 30.0000000  0 10G22G23G15G29G 6G26G21G 3G18G17
  23759578.838    -2789077.20949  -2182028.62745  23759577.257    23759587.506
       210.000         145.000
  22562666.697     9438063.09649   7334883.20647  22562666.061    22562672.927
       233.000         188.000
  20663317.878    -7841612.13049  -6121971.19447  20663316.883    20663323.223
       244.000         210.000
  23064171.555      518268.71949    395189.76346  23064171.117    23064177.089
       218.000         171.000
  21324016.293     5049063.42849   3913685.97247  21324015.931    21324023.033
       239.000         201.000
  22076073.563    -3143094.12149  -2453593.11846  22076073.432    22076080.009
       232.000         183.000
  22545528.801   -12490592.89549  -9735262.83446  22545527.616    22545536.505
       232.000         187.000
  24507611.136    -1058784.99749   -825455.86045  24507610.974    24507619.220
       214.000         146.000
  20514137.043   -11555216.34449  -9007334.14748  20514136.379    20514142.033
       243.000         216.000
  20670426.444    -4783200.37049  -3738285.65047  20670426.312    20670432.883
       243.000         208.000
 02  7  9 16 52  0.0000000  0 10G22G23G15G29G 6G26G21G 3G18G17
  23765878.816    -2755970.56049  -2156231.30445  23765875.507    23765888.674
       215.000         146.000
  22577175.302     9514305.50049   7394292.83947  22577174.757    22577182.343
       234.000         188.000
  20658860.704    -7865033.64249  -6140221.70247  20658859.929    20658866.476
       245.000         210.000
  23074271.329      571343.39949    436546.59346  23074272.024    23074278.187
       222.000         170.000
  21337870.693     5121868.50549   3970417.15247  21337870.420    21337877.253
       239.000         200.000
  22084146.769    -3100668.48349  -2420534.20546  22084146.993    22084153.351
       231.000         182.000
  22534118.652   -12550550.77049  -9781983.19046  22534117.035    22534126.081
       228.000         183.000
  24488595.399    -1158713.00049   -903321.74945  24488594.719    24488602.772
       213.000         148.000
  20509884.521   -11577563.51349  -9024747.50948  20509883.643    20509889.425
       243.000         216.000
  20668769.689    -4791907.54149  -3745070.45747  20668769.269    20668775.502
       244.000         209.000
 02  7  9 16 52 30.0000000  0 10G22G23G15G29G 6G26G21G 3G18G17
  23772258.932    -2722440.76949  -2130104.27945  23772257.609    23772269.301
       214.000         147.000
  22591705.924     9590663.49849   7453792.54847  22591704.828    22591712.224
       231.000         188.000
  20654442.877    -7888249.73749  -6158312.15647  20654442.637    20654448.470
       248.000         211.000
  23084461.084      624890.01749    478271.22346  23084460.051    23084467.115
       219.000         169.000
  21351804.265     5195089.77249   4027472.63947  21351804.024    21351810.839
       241.000         202.000
  22092336.289    -3057632.13049  -2386999.39146  22092336.214    22092342.723
       230.000         182.000
  22522761.307   -12610232.52749  -9828488.42446  22522760.447    22522769.715
       227.000         183.000
  24469607.050    -1258496.31149   -981074.88445  24469606.284    24469615.034
       217.000         148.000
  20505712.460   -11599487.23849  -9041830.91248  20505711.911    20505717.049
       244.000         215.000
  20667148.304    -4800428.58949  -3751710.22847  20667147.661    20667154.046
       244.000         209.000
 02  7  9 16 53  0.0000000  0 10G22G23G15G29G 6G26G21G 3G18G17
  23778718.924    -2688490.88949  -2103649.84645  23778717.836    23778726.525
       210.000         143.000
  22606257.543     9667134.62749   7513380.42147  22606256.065    22606264.008
       232.000         188.000
  20650064.258    -7911260.36249  -6176242.51447  20650063.509    20650070.032
       246.000         212.000
  23094739.815      678906.27849    520361.77046  23094739.095    23094745.445
       221.000         167.000
  21365816.567     5268724.65249   4084850.41347  21365815.903    21365823.155
       239.000         201.000
  22100641.448    -3013987.52449  -2352990.62546  22100641.484    22100647.912
       229.000         181.000
  22511456.485   -12669639.03449  -9874779.17446  22511456.053    22511463.911
       230.000         184.000
  24450646.639    -1358133.43349  -1058714.15445  24450645.850    24450655.255
       212.000         149.000
  20501620.799   -11620988.81049  -9058585.37648  20501619.924    20501625.499
       243.000         215.000
  20665562.273    -4808763.45549  -3758204.93647  20665561.759    20665567.965
       244.000         209.000
 02  7  9 16 53 30.0000000  0 10G22G23G15G29G 6G26G21G 3G18G17
  23785258.775    -2654122.96249  -2076869.68845  23785256.490    23785271.485
       203.000         136.000
  22620830.681     9743717.05849   7573055.00647  22620830.355    22620837.592
       234.000         188.000
  20645724.604    -7934065.27449  -6194012.55847  20645724.133    20645730.533
       246.000         212.000
  23105107.931      733390.23049    562816.77546  23105106.997    23105113.386
       223.000         168.000
  21379907.307     5342771.43949   4142549.14847  21379907.318    21379913.622
       240.000         201.000
  22109062.439    -2969736.10949  -2318509.03746  22109062.864    22109068.837
       231.000         181.000
  22500204.123   -12728769.76749  -9920855.02946  22500203.044    22500212.593
       229.000         184.000
  24431714.171    -1457622.02249  -1136237.66345  24431713.717    24431724.342
       214.000         150.000
  20497609.294   -11642068.81849  -9075011.33648  20497608.581    20497614.155
       242.000         214.000
  20664011.723    -4816911.58549  -3764554.12247  20664010.933    20664017.535
       242.000         209.000
 02  7  9 16 54  0.0000000  0 10G22G23G15G29G 6G26G21G 3G18G17
  23791877.448    -2619340.93249  -2049766.85144  23791876.147    23791886.457
       205.000         131.000
  22635424.636     9820406.98849   7632813.35847  22635423.832    22635430.700
       234.000         188.000
  20641424.021    -7956665.53349  -6211623.13847  20641423.160    20641429.224
       246.000         212.000
  23115564.278      788338.47549    605633.57846  23115564.927    23115569.175
       228.000         168.000
  21394075.673     5417226.65949   4200566.16047  21394075.390    21394082.163
       238.000         201.000
  22117597.974    -2924881.43349  -2283557.34946  22117598.585    22117603.750
       232.000         180.000
  22489004.069   -12787626.37949  -9966717.27146  22489003.637    22489012.619
       229.000         186.000
  24412810.277    -1556961.53549  -1213645.00345  24412810.243    24412820.108
       217.000         153.000
  20493677.568   -11662729.80549  -9091110.78148  20493677.282    20493682.713
       244.000         214.000
  20662496.416    -4824874.09949  -3770758.67547  20662495.932    20662502.640
       243.000         209.000
 02  7  9 16 54 30.0000000  0 10G22G23G15G29G 6G26G21G 3G18G17
  23798574.573    -2584147.27449  -2022343.25244  23798574.020    23798586.985
       202.000         123.000
  22650038.330     9897202.33549   7692653.86346  22650037.635    22650043.507
       233.000         187.000
  20637162.260    -7979060.61949  -6229073.85247  20637161.430    20637167.917
       246.000         211.000
  23126108.709      843748.85449    648810.47546  23126108.118    23126115.227
       226.000         168.000
  21408321.379     5492088.49049   4258899.97847  21408321.198    21408327.952
       237.000         199.000
  22126248.253    -2879425.04049  -2248136.81446  22126248.077    22126254.668
       229.000         181.000
  22477856.137   -12846208.98749 -10012366.01347  22477856.124    22477864.863
       232.000         188.000
  24393935.605    -1656149.77749  -1290934.46445  24393936.269    24393944.492
       219.000         156.000
  20489825.656   -11682972.19549  -9106884.05948  20489825.819    20489830.558
       245.000         216.000
  20661016.720    -4832650.44149  -3776818.15247  20661016.126    20661022.816
       243.000         210.000
 02  7  9 16 55  0.0000000  0 10G22G23G15G29G 6G26G21G 3G18G17
  23805350.040    -2548541.29349  -1994598.41744  23805350.739    23805361.075
       205.000         119.000
  22664672.222     9974104.03449   7752577.24547  22664671.734    22664677.992
       233.000         188.000
  20632940.229    -8001247.45649  -6246362.28147  20632939.093    20632945.764
       246.000         211.000
  23136741.141      899622.48349    692348.34046  23136741.637    23136745.307
       226.000         168.000
  21422644.662     5567357.81549   4317551.33747  21422644.712    21422651.139
       238.000         198.000
  22135012.856    -2833365.98649  -2212246.65546  22135013.469    22135018.660
       232.000         181.000
  22466761.132   -12904514.59149 -10057798.93547  22466760.176    22466768.875
       231.000         189.000
  24375090.762    -1755181.70249  -1368102.10645  24375090.026    24375099.842
       216.000         157.000
  20486053.941   -11702793.91249  -9122329.54848  20486053.470    20486058.445
       243.000         216.000
  20659572.850    -4840237.37049  -3782730.05547  20659572.416    20659579.008
       243.000         209.000
 02  7  9 16 55 30.0000000  0 10G22G23G15G29G 6G26G21G 3G18G17
  23812204.232    -2512527.05549  -1966535.39644  23812204.234    23812217.283
       200.000         112.000
  22679325.475    10051108.30649   7812580.54146  22679323.881    22679331.525
       231.000         187.000
  20628757.520    -8023227.03649  -6263489.20247  20628756.419    20628763.114
       244.000         210.000
  23147460.972      955955.71649    736244.37046  23147460.656    23147466.731
       224.000         166.000
  21437045.150     5643031.17349   4376517.52147  21437045.482    21437051.774
       240.000         199.000
  22143891.794    -2786707.71449  -2175889.57046  22143891.133    22143897.693
       231.000         181.000
  22455718.140   -12962545.40149 -10103017.68747  22455717.710    22455726.657
       232.000         188.000
  24356275.458    -1854056.64449  -1445147.45345  24356274.872    24356285.225
       217.000         157.000
  20482361.464   -11722197.57149  -9137449.26248  20482360.927    20482365.929
       243.000         215.000
  20658165.002    -4847636.18049  -3788495.36147  20658164.260    20658170.798
       243.000         209.000
 02  7  9 16 56  0.0000000  0 10G22G23G15G29G 6G26G21G 3G18G17
  23819135.260    -2476106.13049  -1938155.55344                  23819139.003
       205.000         108.000
  22693998.078    10128214.12749   7872662.95446  22693997.732    22694004.947
       233.000         187.000
  20624614.472    -8044998.21049  -6280453.73947  20624614.127    20624620.502
       247.000         211.000
  23158267.827     1012747.37749    780497.59346  23158266.975    23158274.502
       220.000         167.000
  21451522.185     5719107.34649   4435797.59047  21451521.171    21451528.568
       239.000         199.000
  22152884.528    -2739451.19349  -2139066.31546  22152884.547    22152889.843
       230.000         179.000
  22444727.681   -13020300.87649 -10148021.89346  22444727.588    22444735.368
       231.000         187.000
  24337490.803    -1952771.54649  -1522068.09245  24337489.906    24337500.080
       217.000         157.000
  20478748.580   -11741183.43149  -9152243.42448  20478748.248    20478752.930
       244.000         215.000
  20656793.060    -4854845.37449  -3794112.90647  20656792.410    20656798.731
       242.000         209.000
 02  7  9 16 56 30.0000000  0 10G22G23G15G29G 6G26G21G 3G18G17
                  -2439281.12748  -1909460.78444
       192.000         106.000
  22708689.810    10205419.16349   7932822.69346  22708689.122    22708696.816
       231.000         187.000
  20620511.308    -8066560.93149  -6297255.84647  20620510.418    20620516.978
       245.000         211.000
  23169161.575     1069995.35949    825106.35546  23169162.303    23169168.379
       223.000         167.000
  21466075.254     5795584.26649   4495389.93947  21466074.716    21466081.066
       241.000         200.000
  22161990.410    -2691598.64949  -2101778.63446  22161989.604    22161997.058
       228.000         178.000
  22433789.737   -13077780.79749 -10192811.42647  22433788.971    22433797.290
       233.000         189.000
  24318736.766    -2051324.57249  -1598862.58245  24318736.449    24318744.024
       216.000         158.000
  20475215.117   -11759752.13949  -9166712.53748  20475214.504    20475219.537
       243.000         215.000
  20655457.246    -4861864.68149  -3799582.49947  20655456.715    20655462.672
       243.000         208.000
 02  7  9 16 57  0.0000000  0 10G22G23G15G29G 6G26G21G 3G18G17
                  -2402053.63048  -1880452.48044
       185.000          96.000
  22723400.034    10282722.40449   7993058.97246  22723399.068    22723406.030
       232.000         186.000
  20616447.933    -8087913.42249  -6313894.13347  20616446.971    20616454.089
       244.000         211.000
  23180142.431     1127698.46149    870069.76246  23180142.171    23180148.948
       221.000         166.000
  21480704.390     5872461.03649   4555293.86247  21480703.359    21480710.992
       239.000         199.000
  22171209.645    -2643150.80549  -2064027.10446  22171209.421    22171215.561
       228.000         178.000
  22422904.194   -13134984.72849 -10237385.86447  22422904.526    22422911.108
       235.000         189.000
  24300013.664    -2149712.44749  -1675528.36445  24300012.551    24300021.179
       213.000         157.000
  20471760.913   -11777903.78349  -9180856.66248  20471760.175    20471765.335
       242.000         215.000
  20654157.968    -4868692.61449  -3804902.95647  20654157.175    20654163.689
       243.000         208.000
 02  7  9 16 57 30.0000000  0 10G22G23G15G29G 6G26G21G 3G18G17
                  -2364423.66448  -1851130.66443
       183.000          87.000
  22738128.893    10360123.87949   8053371.78246  22738127.812    22738135.929
       230.000         185.000
  20612425.106    -8109053.41749  -6330366.85047  20612424.895    20612431.059
       247.000         212.000
  23191209.532     1185856.70949    915387.83846  23191208.980    23191216.339
       218.000         166.000
  21495409.590     5949737.83749   4615509.48347  21495410.067    21495416.419
       241.000         199.000
  22180542.252    -2594107.74249  -2025811.75446  22180541.870    22180548.793
       228.000         178.000
  22412071.631   -13191910.37049 -10281743.47847  22412070.536    22412078.483
       233.000         188.000
  24281322.700    -2247930.99349  -1752062.22045  24281322.590    24281331.600
       210.000         155.000
  20468386.325   -11795637.05349  -9194674.77648  20468386.131    20468391.202
       243.000         215.000
  20652895.537    -4875326.71749  -3810072.38947  20652894.838    20652901.636
       242.000         208.000
 02  7  9 16 58  0.0000000  0 10G22G23G15G29G 6G26G21G 3G18G17
                  -2326394.91348 -16561327.04943
       180.000          74.000
  22752875.968    10437620.80249   8113758.97446  22752876.941    22752882.117
       233.000         185.000
  20608442.837    -8129981.24249  -6346674.24247  20608441.853    20608448.387
       245.000         212.000
  23202362.659     1244467.03249    961058.18046  23202362.489    23202368.702
       220.000         166.000
  21510190.794     6027411.79749   4676034.58247  21510190.225    21510197.045
       239.000         199.000
  22189987.558    -2544472.14949  -1987134.68646  22189987.281    22189993.668
       229.000         179.000
  22401291.648   -13248559.15349 -10325885.31647  22401291.139    22401298.653
       233.000         188.000
  24262664.454    -2345978.95649  -1828463.14045  24262664.377    24262674.871
       214.000         155.000
  20465091.109   -11812953.72349  -9208168.27348  20465090.782    20465095.870
       243.000         216.000
  20651669.918    -4881767.31649  -3815091.03847  20651669.647    20651675.901
       244.000         209.000
 02  7  9 16 58 30.0000000  0 10G22G23G15G29G 6G26G21G 3G18G17
                  -2287971.60148 -16531305.82243
       187.000          74.000
  22767640.905    10515209.21449   8174217.45446  22767640.460    22767647.516
       231.000         185.000
  20604500.350    -8150698.48449  -6362817.52347  20604498.982    20604506.360
       244.000         211.000
  23213601.450     1303525.76649   1007077.89846  23213600.988    23213607.201
       219.000         167.000
  21525046.271     6105478.87549   4736865.99647  21525046.141    21525053.316
       239.000         198.000
  22199544.792    -2494248.17249  -1947999.14146  22199543.916    22199552.143
       227.000         179.000
  22390563.958   -13304933.23249 -10369813.12647  22390563.066    22390571.675
       234.000         188.000
  24244039.549    -2443855.80449  -1904730.71745  24244039.441    24244050.204
       215.000         156.000
  20461874.657   -11829856.62849  -9221339.36348  20461874.249    20461879.059
       243.000         216.000
  20650480.892    -4888015.78449  -3819959.97547  20650480.310    20650487.182
       243.000         209.000
 02  7  9 16 59  0.0000000  0 10G22G23G15G29G 6G26G21G 3G18G17
                  -2249157.28648 -16500950.38443
       190.000          74.000
  22782422.569    10592886.25149   8234744.98846  22782422.357    22782428.858
       233.000         184.000
  20600597.873    -8171205.56549  -6378797.05547  20600597.063    20600603.766
       245.000         210.000
  23224924.596     1363029.62549   1053444.49246  23224925.349    23224931.690
       224.000         169.000
  21539976.265     6183936.10949   4798001.42647  21539976.644    21539982.548
       240.000         200.000
  22209213.267    -2443438.53149  -1908407.24046  22209212.852    22209219.279
       227.000         180.000
  22379888.458   -13361033.65149 -10413527.70247  22379888.296    22379894.670
       235.000         190.000
  24225447.561    -2541560.59849  -1980864.19545  24225446.882    24225456.916
       213.000         156.000
  20458736.525   -11846347.51649  -9234189.39748  20458736.172    20458741.001
       243.000         216.000
  20649328.336    -4894072.57249  -3824679.54447  20649327.968    20649334.634
       243.000         209.000
 02  7  9 16 59 30.0000000  0 10G22G23G15G29G 6G26G21G 3G18G17
                  -2209951.93158 -16811793.37743
       170.000          74.000
  22797221.266    10670652.54049   8295342.06446  22797220.293    22797228.101
       231.000         184.000
  20596736.001    -8191499.84049  -6394610.75647  20596735.527    20596742.075
       246.000         211.000
  23236332.678     1422979.13649   1100158.36846  23236331.403    23236338.823
       220.000         168.000
  21554980.558     6262784.29749   4859441.50847  21554980.328    21554987.498
       240.000         200.000
  22218993.419    -2392042.70849  -1868358.54646  22218993.461    22218999.781
       228.000         178.000
  22369265.622   -13416857.97449 -10457027.13947  22369265.150    22369273.275
       235.000         189.000
  24206888.554    -2639088.33049  -2056859.72245  24206888.170    24206896.841
       210.000         154.000
  20455677.046   -11862425.01749  -9246717.29048  20455676.520    20455681.718
       244.000         216.000
  20648212.793    -4899934.62249  -3829247.37647  20648212.410    20648218.162
       243.000         209.000
 02  7  9 17  0  0.0000000  0  9G23G15G29G 6G26G21G 3G18G17
  22812038.534    10748518.40749   8356016.74246  22812037.715    22812044.992
       230.000         183.000
  20592917.109    -8211568.32549  -6410248.52647  20592916.051    20592922.782
       245.000         211.000
  23247827.240     1483384.51649   1147227.46146  23247827.454    23247834.127
       225.000         168.000
  21570061.040     6342033.46149   4921194.03747  21570060.158    21570067.774
       238.000         198.000
  22228887.243    -2340050.56849  -1827845.24046  22228887.511    22228894.023
       225.000         178.000
  22358697.332   -13472394.00749 -10500301.90446  22358696.207    22358703.841
       233.000         187.000
  24188365.557    -2736424.53749  -2132706.02845  24188364.474    24188373.600
       212.000         152.000
  20452698.509   -11878077.45849  -9258913.99448  20452698.531    20452702.903
       245.000         217.000
  20647136.911    -4905589.14649  -3833653.48947  20647136.245    20647142.934
       243.000         209.000
 02  7  9 17  0 30.0000000  0  9G23G15G29G 6G26G21G 3G18G17
  22826871.818    10826467.57049   8416756.30846  22826871.506    22826877.799
       232.000         183.000
  20589138.287    -8231424.75649  -6425721.04647  20589137.317    20589144.439
       245.000         210.000
  23259405.903     1544229.43049   1194639.03246  23259404.869    23259411.959
       223.000         170.000
  21585214.841     6421667.50249   4983246.47647  21585214.457    21585221.884
       239.000         198.000
  22238891.263    -2287478.21349  -1786879.78746  22238891.945    22238898.478
       228.000         179.000
  22348181.212   -13527655.95449 -10543363.11646  22348180.926    22348188.335
       235.000         185.000
  24169877.646    -2833581.12449  -2208412.36045  24169876.303    24169884.591
       211.000         150.000
  20449798.060   -11893319.88449  -9270791.19748  20449797.050    20449802.240
       242.000         217.000
  20646097.664    -4911049.89149  -3837908.60247  20646097.044    20646104.074
       242.000         209.000
 02  7  9 17  1  0.0000000  0  9G23G15G29G 6G26G21G 3G18G17
  22841720.330    10904496.34949   8477557.92846  22841719.597    22841725.980
       231.000         183.000
  20585399.829    -8251070.42849  -6441029.34647  20585399.834    20585406.157
       246.000         211.000
  23271067.023     1605510.10949   1242390.17746  23271068.025    23271074.315
       225.000         170.000
  21600441.149     6501682.44949   5045595.71947  21600441.186    21600448.359
       239.000         199.000
  22249005.315    -2234329.67449  -1745465.37246  22249005.624    22249011.481
       229.000         180.000
  22337717.064   -13582646.21249 -10586212.60446  22337717.150    22337723.265
       234.000         183.000
  24151423.385    -2930557.71349  -2283978.44145  24151422.728    24151430.363
       208.000         149.000
  20446974.777   -11908155.15249  -9282351.11948  20446974.144    20446979.526
       243.000         216.000
  20645095.213    -4916317.87549  -3842013.52047  20645094.538    20645100.890
       243.000         209.000
 02  7  9 17  1 30.0000000  0  9G23G15G29G 6G26G21G 3G18G17
  22856583.978    10982606.30049   8538422.80146  22856582.467    22856590.461
       230.000         182.000
  20581702.462    -8270501.43249  -6456170.38347  20581701.684    20581708.291
       245.000         212.000
  23282811.777     1667227.61849   1290481.72846  23282811.795    23282817.666
       224.000         169.000
  21615740.257     6582079.78549   5108242.91447  21615740.015    21615747.359
       236.000         198.000
  22259229.231    -2180603.37449  -1703600.74346  22259229.266    22259236.913
       230.000         181.000
  22327305.189   -13637361.51149 -10628847.84146  22327303.859    22327312.339
       231.000         183.000
  24133004.349    -3027348.63849  -2359399.83445  24133004.049    24133011.040
       212.000         147.000
  20444229.666   -11922580.77549  -9293591.85548  20444229.634    20444233.783
       244.000         215.000
  20644130.182    -4921389.00349  -3845965.04747  20644129.656    20644136.191
       243.000         209.000
 02  7  9 17  2  0.0000000  0  9G23G15G29G 6G26G21G 3G18G17
  22871462.355    11060794.46549   8599348.61746  22871461.617    22871469.143
       229.000         182.000
  20578045.570    -8289718.40649  -6471144.62947  20578044.696    20578051.368
       246.000         212.000
  23294638.680     1729378.80649   1338911.19346  23294638.487    23294645.017
       223.000         167.000
  21631111.534     6662856.47349   5171185.72747  21631111.993    21631119.039
       240.000         198.000
  22269562.497    -2126302.68349  -1661288.53746  22269562.693    22269569.212
       230.000         182.000
  22316945.213   -13691802.64949 -10671269.44346  22316945.100    22316952.459
       233.000         183.000
  24114621.345    -3123952.61749  -2434675.52945  24114619.726    24114628.588
       212.000         147.000
  20441562.165   -11936598.81549  -9304514.98848  20441561.421    20441566.118
       242.000         215.000
  20643202.554    -4926264.01649  -3849763.75247  20643201.829    20643208.219
       243.000         209.000
 02  7  9 17  2 30.0000000  0 10G23G15G29G 6G26G21G 2G 3G18G17
  22886355.880    11139061.28449   8660335.70446  22886355.696    22886362.041
       230.000         181.000
  20574430.020    -8308718.45949  -6485949.85247  20574429.349    20574435.667
       246.000         212.000
  23306548.195     1791963.83349   1387678.69246  23306548.612    23306555.184
       220.000         164.000
  21646555.215     6744012.39449   5234424.04247  21646555.322    21646562.347
       239.000         199.000
  22280005.023    -2071427.55449  -1618528.73046  22280005.003    22280011.104
       230.000         182.000
  22306637.617   -13745968.46449 -10713476.49146  22306636.557    22306645.972
       233.000         183.000
                    -44879.75749    -53313.58643
       207.000          74.000
  24096274.661    -3220365.31949  -2509802.21145  24096273.297    24096282.289
       211.000         147.000
  20438972.259   -11950208.19749  -9315119.69148  20438972.054    20438976.886
       243.000         214.000
  20642312.772    -4930940.22549  -3853407.55447  20642311.925    20642318.762
       243.000         209.000
 02  7  9 17  3  0.0000000  0  9G23G15G29G 6G26G21G 3G18G17
  22901264.510    11217406.41149   8721383.80546  22901264.255    22901271.121
       229.000         181.000
  20570856.237    -8327499.26449  -6500584.24147  20570855.493    20570861.618
       247.000         212.000
  23318540.358     1854982.02949   1436783.75145  23318540.011    23318545.642
       216.000         160.000
  21662070.917     6825547.25449   5297957.62447  21662071.200    21662078.039
       239.000         199.000
  22290556.506    -2015978.38549  -1575321.60146  22290556.229    22290563.304
       228.000         182.000
  22296382.825   -13799857.03349 -10755467.49846  22296380.507    22296391.010
       229.000         185.000
  24077964.688    -3316582.80149  -2584776.78845  24077965.002    24077974.201
       213.000         148.000
  20436460.427   -11963408.04649  -9325405.27048  20436459.553    20436465.002
       241.000         214.000
  20641461.064    -4935415.30149  -3856894.62047  20641460.544    20641466.720
       243.000         209.000
 02  7  9 17  3 30.0000000  0  9G23G15G29G 6G26G21G 3G18G17
  22916187.158    11295826.59549   8782490.41946  22916186.184    22916194.527
       229.000         181.000
  20567323.983    -8346061.77349  -6515048.51647  20567323.518    20567329.321
       246.000         212.000
  23330613.686     1918430.09349   1486223.77145  23330613.612    23330619.279
       216.000         157.000
  21677657.823     6907457.58249   5361783.79647  21677658.040    21677665.233
       238.000         198.000
  22301216.682    -1959958.68749  -1531669.90846  22301216.609    22301223.167
       229.000         182.000
  22286180.513   -13853469.72349 -10797243.56146  22286180.638    22286188.786
       235.000         185.000
  24059693.079    -3412604.06449  -2659598.43445  24059692.412    24059700.299
       215.000         148.000
  20434025.924   -11976200.55149  -9335373.43748  20434025.568    20434030.782
       242.000         215.000
  20640647.700    -4939689.82649  -3860225.42347  20640647.477    20640653.301
       244.000         209.000
 02  7  9 17  4  0.0000000  0  9G23G15G29G 6G26G21G 3G18G17
  22931123.907    11374319.91849   8843654.01446  22931123.943    22931131.186
       231.000         182.000
  20563833.134    -8364405.74849  -6529342.48547  20563832.045    20563838.613
       245.000         211.000
  23342768.972     1982305.56249   1535996.80645  23342768.608    23342775.141
       213.000         156.000
  21693316.058     6989741.31749   5425900.91447  21693316.080    21693322.285
       238.000         197.000
  22311984.933    -1903370.86249  -1487575.53446  22311984.884    22311991.835
       228.000         180.000
  22276031.063   -13906807.45649 -10838805.36546  22276030.985    22276038.317
       235.000         185.000
  24041459.115    -3508427.14849  -2734265.60745  24041457.116    24041466.644
       212.000         147.000
  20431668.850   -11988586.91449  -9345025.13148  20431668.180    20431673.690
       241.000         215.000
  20639872.554    -4943763.59449  -3863399.77647  20639871.644    20639878.542
       243.000         209.000
 02  7  9 17  4 30.0000000  0  9G23G15G29G 6G26G21G 3G18G17
  22946074.406    11452884.82849   8904873.37946  22946073.754    22946082.294
       229.000         181.000
  20560384.014    -8382530.43449  -6543465.59747  20560383.083    20560389.253
       245.000         210.000
  23355004.993     2046606.63749   1586101.47645  23355003.737    23355011.098
       213.000         157.000
  21709044.664     7072396.61849   5490307.59147  21709044.931    21709051.566
       237.000         195.000
  22322861.021    -1846216.93349  -1443040.01546  22322861.205    22322867.415
       228.000         180.000
  22265933.492   -13959870.30849 -10880153.00846  22265932.895    22265940.074
       234.000         185.000
  24023261.980    -3604049.29449  -2808776.24845  24023260.283    24023269.567
       208.000         145.000
  20429388.856   -12000567.90649  -9354360.94648  20429388.619    20429393.891
       242.000         215.000
  20639135.744    -4947635.52149  -3866416.84547  20639135.354    20639141.794
       244.000         210.000
 02  7  9 17  5  0.0000000  0  9G23G15G29G 6G26G21G 3G18G17
  22961038.498    11531522.00949   8966149.07046  22961038.074    22961045.572
       230.000         180.000
  20556977.159    -8400432.54049  -6557415.28447  20556976.481    20556982.745
       245.000         210.000
  23367321.967     2111333.43349   1636537.89145  23367322.509    23367328.235
       214.000         160.000
  21724844.389     7155423.84949   5555004.06347  21724844.953    21724851.932
       237.000         195.000
  22333844.959    -1788496.41249  -1398063.01446  22333844.221    22333850.966
       227.000         178.000
  22255888.888   -14012655.48449 -10921284.26046  22255888.199    22255896.965
       235.000         187.000
  24005104.386    -3699465.70649  -2883126.61145  24005103.503    24005113.208
       210.000         145.000
  20427186.435   -12012142.00449  -9363379.72548  20427186.583    20427191.478
       244.000         216.000
  20638437.931    -4951302.50349  -3869274.23347  20638436.957    20638443.996
       243.000         209.000
 02  7  9 17  5 30.0000000  0  9G23G15G29G 6G26G21G 3G18G17
  22976016.189    11610228.29249   9027478.60146  22976016.065    22976023.018
       230.000         180.000
  20553612.686    -8418112.82649  -6571192.12547  20553611.881    20553618.968
       245.000         211.000
  23379719.422     2176482.59649   1687303.44046  23379719.227    23379726.962
       217.000         163.000
  21740714.125     7238819.57049   5619987.67947  21740713.597    21740721.693
       235.000         194.000
  22344935.752    -1730212.95249  -1352647.34746  22344936.512    22344941.844
       229.000         177.000
  22245896.544   -14065165.04349 -10962200.75446  22245895.517    22245903.748
       234.000         187.000
  23986986.662    -3794675.60349  -2957316.04145  23986986.835    23986995.920
       215.000         146.000
  20425061.091   -12023311.44849  -9372083.17948  20425060.515    20425065.879
       242.000         216.000
  20637778.938    -4954765.22149  -3871972.45747  20637778.193    20637784.858
       243.000         209.000
 02  7  9 17  6  0.0000000  0  9G23G15G29G 6G26G21G 3G18G17
  22991006.261    11689001.09949   9088859.97546  22991005.808    22991012.854
       231.000         179.000
  20550290.298    -8435571.79549  -6584796.49747  20550289.401    20550296.634
       245.000         212.000
  23392196.765     2242051.10849   1738395.72846  23392196.349    23392203.281
       219.000         164.000
  21756653.252     7322580.92849   5685256.21547  21756653.232    21756660.760
       236.000         193.000
  22356133.133    -1671369.59149  -1306795.40146  22356133.011    22356140.093
       226.000         177.000
  22235956.387   -14117399.60749 -11002902.96146  22235955.448    22235963.802
       234.000         185.000
  23968908.428    -3889677.18849  -3031343.16845  23968907.431    23968915.953
       215.000         145.000
  20423012.246   -12034077.75349  -9380472.48748  20423012.063    20423017.434
       243.000         216.000
  20637158.723    -4958023.97249  -3874511.73747  20637158.313    20637164.692
       243.000         209.000
 02  7  9 17  6 30.0000000  0  9G23G15G29G 6G26G21G 3G18G17
  23006009.089    11767840.47849   9150293.21946  23006008.772    23006015.913
       229.000         177.000
  20547010.516    -8452806.85249  -6598226.39647  20547010.151    20547016.313
       246.000         212.000
  23404754.122     2308038.78349   1789814.64746  23404754.865    23404761.206
       224.000         168.000
  21772662.138     7406707.71549   5750809.50347  21772662.090    21772669.260
       235.000         192.000
  22367436.998    -1611966.56149  -1260507.35646  22367437.915    22367443.416
       229.000         178.000
  22226069.065   -14169357.38649 -11043389.51446  22226068.803    22226077.235
       237.000         186.000
  23950870.546    -3984466.32449  -3105204.77645  23950870.747    23950877.360
       220.000         144.000
  20421040.359   -12044440.40949  -9388547.26848  20421039.698    20421044.966
       242.000         216.000
  20636577.906    -4961076.12649  -3876890.03947  20636577.375    20636583.893
       243.000         209.000
 02  7  9 17  7  0.0000000  0  9G23G15G29G 6G26G21G 3G18G17
  23021023.651    11846742.47149   9211775.27546  23021023.997    23021030.997
       231.000         176.000
  20543773.262    -8469819.42449  -6611482.93447  20543772.812    20543778.944
       246.000         212.000
  23417390.313     2374440.93749   1841556.54246  23417390.308    23417396.533
       222.000         170.000
  21788739.817     7491195.59749   5816644.15547  21788739.599    21788747.045
       234.000         191.000
  22378847.064    -1552008.52349  -1213786.80746  22378847.386    22378853.500
       230.000         177.000
  22216234.100   -14221041.08149 -11083662.49846  22216233.781    22216241.357
       235.000         187.000
  23932873.378    -4079042.90349  -3178900.74045  23932872.887    23932881.144
       219.000         143.000
  20419144.658   -12054402.35149  -9396309.80448  20419144.470    20419149.067
       243.000         216.000
  20636036.125    -4963923.13849  -3879108.47947  20636035.830    20636041.778
       243.000         208.000
 02  7  9 17  7 30.0000000  0  9G23G15G29G 6G26G21G 3G18G17
  23036050.297    11925706.24049   9273305.43946  23036050.164    23036056.740
       230.000         174.000
  20540578.361    -8486608.20949  -6624565.08447  20540577.564    20540584.039
       245.000         212.000
  23430104.834     2441256.18049   1893620.34946  23430104.716    23430111.187
       225.000         171.000
  21804885.763     7576043.21349   5882759.11947  21804885.312    21804892.491
       233.000         190.000
  22390362.239    -1491496.83149  -1166634.87546  22390363.614    22390368.452
       229.000         176.000
  22206451.157   -14272450.29649 -11123721.56946  22206450.774    22206457.977
       233.000         187.000
  23914916.958    -4173403.82949  -3252428.67345  23914916.728    23914925.884
       218.000         146.000
  20417325.116   -12063964.01749  -9403760.44248  20417324.610    20417329.860
       241.000         216.000
  20635533.713    -4966563.66049  -3881166.02447  20635532.898    20635539.468
       243.000         208.000
 02  7  9 17  8  0.0000000  0  9G23G15G29G 6G26G21G 3G18G17
  23051088.663    12004731.73849   9334883.71246  23051088.264    23051094.938
       229.000         174.000
  20537426.542    -8503171.11949  -6637471.23047  20537426.326    20537432.743
       246.000         212.000
  23442898.101     2508484.17449   1946005.75646  23442897.430    23442904.942
       223.000         171.000
  21821100.126     7661250.22249   5949154.13447  21821100.337    21821107.809
       234.000         191.000
  22401982.708    -1430432.11549  -1119051.97546  22401982.940    22401987.254
       229.000         175.000
  22196720.721   -14323583.51149 -11163565.58846  22196720.380    22196727.998
       234.000         187.000
  23897001.989    -4267544.87649  -3325785.28345  23897001.220    23897010.705
       221.000         151.000
  20415581.762   -12073124.66649  -9410898.57248  20415581.257    20415586.425
       242.000         215.000
  20635070.904    -4968995.27349  -3883060.77347  20635070.198    20635076.839
       243.000         208.000
 02  7  9 17  8 30.0000000  0  9G23G15G29G 6G26G21G 3G18G17
  23066138.062    12083815.95049   9396507.72946  23066137.126    23066144.284
       228.000         172.000
  20534317.839    -8519508.33649  -6650201.52247  20534317.448    20534323.412
       247.000         212.000
  23455769.256     2576121.54049   1998710.16846  23455769.169    23455775.813
       225.000         171.000
  21837382.355     7746813.22449   6015826.53847  21837382.814    21837389.411
       236.000         193.000
  22413707.571    -1368817.97449  -1071040.98746  22413707.014    22413713.080
       226.000         174.000
  22187042.668   -14374442.13149 -11203195.64246  22187041.461    22187050.014
       231.000         187.000
  23879129.796    -4361464.82149  -3398969.58745  23879129.992    23879138.804
       222.000         155.000
  20413914.477   -12081886.38249  -9417725.87548  20413914.141    20413918.986
       242.000         215.000
  20634647.780    -4971218.40249  -3884793.07847  20634647.641    20634653.855
       243.000         209.000
 02  7  9 17  9  0.0000000  0  9G23G15G29G 6G26G21G 3G18G17
  23081198.195    12162957.73349   9458176.61446  23081197.410    23081203.895
       227.000         170.000
  20531252.146    -8535618.85549  -6662755.15147  20531250.901    20531257.982
       245.000         211.000
  23468717.922     2644166.37949   2051732.07246  23468716.666    23468724.209
       223.000         171.000
  21853731.978     7832730.65449   6082775.12847  21853731.876    21853739.972
       234.000         193.000
  22425536.582    -1306656.05749  -1022603.15246  22425537.753    22425542.555
       226.000         174.000
  22177416.656   -14425025.94349 -11242611.53046  22177416.564    22177424.834
       233.000         187.000
  23861300.321    -4455161.04849  -3471979.53745  23861299.506    23861306.927
       221.000         156.000
  20412322.959   -12090249.97849  -9424242.94448  20412322.333    20412327.556
       241.000         215.000
  20634264.738    -4973231.97949  -3886362.09447  20634264.416    20634270.572
       244.000         209.000
 02  7  9 17  9 30.0000000  0 10G23G15G29G 6G26G21G 2G 3G18G17
  23096269.241    12242155.95949   9519889.48646  23096268.816    23096274.535
       228.000         170.000
  20528229.581    -8551501.38349  -6675131.13947  20528228.663    20528235.393
       244.000         211.000
  23481743.497     2712617.08249   2105070.23946  23481743.247    23481750.094
       221.000         170.000
  21870148.706     7919000.80349   6149998.53747  21870148.991    21870155.932
       235.000         193.000
  22437469.400    -1243948.24249   -973739.96646  22437469.373    22437476.431
       226.000         174.000
  22167843.284   -14475334.67449 -11281813.09347  22167842.512    22167851.234
       231.000         188.000
                  -1601255.93549  -1267240.30943
       207.000          74.000
  23843513.244    -4548630.46749  -3544812.75445  23843514.528    23843520.665
       218.000         157.000
  20410807.095   -12098215.48049  -9430449.80848  20410807.062    20410811.584
       243.000         215.000
  20633921.656    -4975034.75949  -3887766.85447  20633921.124    20633927.395
       243.000         209.000
 02  7  9 17 10  0.0000000  0  9G23G15G29G 6G26G21G 3G18G17
  23111350.134    12321407.28149   9581643.72646  23111349.276    23111356.262
       225.000         171.000
  20525250.328    -8567157.06249  -6687330.36047  20525249.865    20525256.459
       246.000         212.000
  23494845.543     2781469.61549   2158721.53646  23494845.017    23494852.567
       218.000         167.000
  21886631.912     8005619.67349   6217493.69247  21886632.390    21886638.724
       237.000         193.000
  22449505.437    -1180698.63549   -924454.59646  22449505.171    22449511.579
       226.000         174.000
  22158321.604   -14525370.23949 -11320801.78347  22158321.433    22158329.367
       233.000         189.000
  23825769.991    -4641872.48549  -3617468.76045  23825769.963    23825777.728
       221.000         159.000
  20409366.571   -12105785.93849  -9436348.85748  20409365.780    20409370.974
       242.000         214.000
  20633618.516    -4976627.60649  -3889008.02547  20633617.854    20633624.330
       243.000         209.000
 02  7  9 17 10 30.0000000  0 10G23G15G29G 6G26G21G 2G 3G18G17
  23126440.787    12400711.79949   9643439.40546  23126440.378    23126447.206
       228.000         172.000
  20522314.783    -8582583.62449  -6699351.04647  20522314.447    20522320.654
       246.000         212.000
  23508023.920     2850723.59749   2212685.61346  23508022.095    23508031.803
       213.000         164.000
  21903181.545     8092587.07649   6285260.44247  21903181.623    21903188.565
       235.000         193.000
  22461644.701    -1116907.79049   -874747.46546  22461644.457    22461650.925
       229.000         176.000
  22148852.375   -14575130.91349 -11359576.26047  22148851.499    22148860.029
       234.000         190.000
                  -1603860.43749  -1269275.22743
       209.000          74.000
  23808071.076    -4734882.82549  -3689944.24545  23808069.526    23808078.855
       215.000         159.000
  20408001.195   -12112960.61049  -9441939.48348  20408000.675    20408006.157
       242.000         214.000
  20633355.927    -4978007.95849  -3890083.62147  20633355.415    20633361.885
       243.000         209.000
 02  7  9 17 11  0.0000000  0 10G23G15G29G 6G26G21G 2G 3G18G17
  23141542.095    12480068.67049   9705275.87846  23141541.464    23141548.178
       225.000         172.000
  20519423.169    -8597779.34849  -6711191.85147  20519422.320    20519428.801
       245.000         212.000
  23521277.972     2920377.76449   2266961.55445  23521278.887    23521286.330
       214.000         160.000
  21919796.839     8179901.77649   6353297.80147  21919796.750    21919803.866
       236.000         193.000
  22473886.131    -1052577.19349   -824619.75546  22473886.212    22473892.340
       229.000         175.000
  22139435.616   -14624616.80949 -11398136.64947  22139434.868    22139442.411
       234.000         190.000
                  -1604546.39449  -1513580.77543
       207.000          74.000
  23790415.970    -4827658.12849  -3762236.58645  23790414.329    23790423.814
       213.000         158.000
  20406711.227   -12119739.45449  -9447221.67748  20406710.998    20406715.977
       243.000         216.000
  20633133.877    -4979174.21149  -3890992.38547  20633133.539    20633139.869
       244.000         209.000
 02  7  9 17 11 30.0000000  0 10G23G15G29G 6G26G21G 2G 3G18G17
  23156652.386    12559475.78949   9767151.53346  23156651.484    23156659.399
       225.000         172.000
  20516575.438    -8612744.02749  -6722852.62547  20516575.041    20516581.613
       246.000         212.000
  23534608.429     2990429.09149   2321546.94845  23534608.200    23534615.280
       211.000         156.000
  21936477.923     8267561.09149   6421603.69847  21936477.832    21936484.472
       235.000         192.000
  22486230.046     -987709.66049   -774073.65346  22486229.567    22486236.641
       232.000         176.000
  22130070.894   -14673828.43649 -11436483.31047  22130070.731    22130077.462
       235.000         190.000
                  -1604822.85449  -1513795.87843
       205.000          74.000
  23772806.195    -4920196.74149  -3834344.49045  23772804.820    23772814.251
       215.000         158.000
  20405496.341   -12126124.08649  -9452196.70548  20405495.909    20405500.574
       243.000         216.000
  20632952.871    -4980126.14149  -3891734.14647  20632952.464    20632958.999
       243.000         209.000
 02  7  9 17 12  0.0000000  0 10G23G15G29G 6G26G21G 2G 3G18G17
  23171771.858    12638929.61449   9829063.58346  23171771.486    23171778.949
       226.000         172.000
  20513771.547    -8627478.97549  -6734334.39048  20513770.992    20513777.437
       246.000         213.000
  23548013.096     3060873.43549   2376438.60045  23548014.139    23548021.815
       212.000         153.000
  21953223.594     8355560.70449   6490174.79347  21953223.070    21953231.021
       235.000         190.000
  22498675.519     -922309.73949   -723112.68146  22498675.841    22498681.274
       231.000         176.000
  22120757.885   -14722768.00449 -11474617.96347  22120757.049    22120764.348
       234.000         189.000
                  -1604692.96249  -1513694.72343
       206.000          74.000
  23755241.488    -5012498.24349  -3906267.64845  23755239.860    23755248.599
       212.000         157.000
  20404355.797   -12132117.67949  -9456867.02548  20404355.619    20404360.345
       244.000         216.000
  20632812.280    -4980865.03349  -3892309.90947  20632811.412    20632818.100
       242.000         209.000
 02  7  9 17 12 30.0000000  0 10G23G15G29G 6G26G21G 2G 3G18G17
  23186900.031    12718428.43049   9891010.66446  23186899.344    23186907.118
       225.000         171.000
  20511011.357    -8641983.49249  -6745636.59147  20511010.923    20511017.468
       246.000         212.000
  23561493.029     3131708.55049   2431634.76545  23561494.067    23561500.552
       213.000         154.000
  21970033.588     8443898.36149   6559009.26447  21970033.932    21970041.932
       234.000         190.000
  22511221.375     -856379.86749   -671738.76646  22511221.406    22511228.614
       228.000         176.000
  22111496.721   -14771435.69049 -11512540.79347  22111496.130    22111503.905
       236.000         189.000
                  -1604157.94549  -1513277.84945                  24829614.904
       209.000         133.000
  23737721.924    -5104560.27649  -3978004.20745  23737720.198    23737729.618
       210.000         155.000
  20403289.542   -12137721.26749  -9461233.44448  20403288.957    20403294.504
       242.000         217.000
  20632712.185    -4981390.30949  -3892719.21547  20632711.821    20632718.381
       243.000         209.000
 02  7  9 17 13  0.0000000  0 10G23G15G29G 6G26G21G 2G 3G18G17
  23202036.968    12797973.33249   9952993.64446  23202036.614    23202043.676
       223.000         173.000
  20508295.748    -8656254.47649  -6756756.82947  20508295.373    20508301.164
       246.000         212.000
  23575047.091     3202934.61649   2487135.56145  23575047.144    23575053.336
       213.000         153.000
  21986908.310     8532574.55849   6628107.54647  21986908.470    21986915.708
       234.000         189.000
  22523868.135     -789919.73149   -619951.66046  22523868.840    22523873.562
       230.000         176.000
  22102287.805   -14819829.11149 -11550249.90747  22102287.884    22102293.784
       235.000         189.000
  24829782.328    -1603215.85749  -1512543.80645  24829778.472    24829790.562
       203.000         138.000
  23720249.634    -5196377.61049  -4049550.06445  23720248.564    23720258.560
       211.000         155.000
  20402297.676   -12142933.24849  -9465294.70948  20402297.393    20402302.427
       243.000         216.000
  20632653.693    -4981698.26449  -3892959.18847  20632652.972    20632659.768
       242.000         209.000
 02  7  9 17 13 30.0000000  0 10G23G15G29G 6G26G21G 2G 3G18G17
  23217182.293    12877563.57249  10015011.97046  23217181.440    23217189.045
       224.000         173.000
  20505624.852    -8670290.17649  -6767693.73847  20505623.802    20505631.045
       245.000         212.000
  23588674.922     3274550.55849   2542940.12645  23588676.189    23588681.740
       217.000         154.000
  22003847.133     8621588.07249   6697468.66547  22003846.864    22003854.265
       234.000         188.000
  22536615.772     -722931.08049   -567752.75046  22536614.337    22536624.185
       227.000         176.000
  22093131.192   -14867947.97049 -11587745.06047  22093130.664    22093138.401
       235.000         189.000
  24830038.519    -1601866.71649  -1511492.62545  24830038.032    24830049.371
       201.000         135.000
  23702824.318    -5287947.04649  -4120902.75445  23702822.617    23702833.062
       208.000         155.000
  20401380.393   -12147753.80149  -9469050.98148  20401379.789    20401385.288
       242.000         216.000
  20632636.707    -4981787.38549  -3893028.62547  20632636.303    20632642.780
       243.000         209.000
 02  7  9 17 14  0.0000000  0 10G23G15G29G 6G26G21G 2G 3G18G17
  23232336.251    12957196.99849  10077063.93146  23232335.799    23232343.302
       223.000         172.000
  20502998.556    -8684090.71749  -6778447.39147  20502998.100    20503005.059
       246.000         212.000
  23602376.699     3346553.10649   2599046.00045  23602376.675    23602382.942
       217.000         156.000
  22020849.590     8710935.86249   6767090.23347  22020850.133    22020856.866
       235.000         188.000
  22549463.037     -655416.91849   -515144.36346  22549463.052    22549469.268
       226.000         175.000
  22084026.449   -14915793.05749 -11625026.87847  22084025.547    22084032.840
       235.000         191.000
  24830371.766    -1600112.33248  -1510125.65444  24830370.322    24830382.234
       194.000         131.000
  23685446.079    -5379266.66649  -4192060.81845  23685446.317    23685454.980
       212.000         156.000
  20400537.047   -12152184.89749  -9472503.77448  20400536.353    20400541.819
       241.000         216.000
  20632661.427    -4981657.60149  -3892927.48847  20632660.946    20632667.287
       243.000         209.000
 02  7  9 17 14 30.0000000  0 10G23G15G29G 6G26G21G 2G 3G18G17
  23247497.959    13036871.37049  10139147.82246  23247497.442    23247504.552
       220.000         170.000
  20500417.407    -8697655.78649  -6789017.56447  20500417.097    20500422.579
       247.000         212.000
  23616151.395     3418939.49449   2655450.94045  23616152.108    23616159.609
       219.000         158.000
  22037915.202     8800615.29149   6836970.25446  22037914.679    22037922.065
       230.000         187.000
  22562410.176     -587380.32049   -462128.89046  22562409.919    22562416.826
       223.000         175.000
  22074973.563   -14963365.24949 -11662096.07447  22074973.104    22074979.351
       235.000         190.000
  24830782.111    -1597954.40249  -1508444.23244  24830784.546    24830792.136
       205.000         126.000
  23668116.421    -5470334.87049  -4263022.92945  23668117.173    23668126.006
       217.000         158.000
  20399767.644   -12156227.89649  -9475654.15048  20399767.325    20399772.220
       242.000         215.000
  20632727.838    -4981308.66549  -3892655.59547  20632727.440    20632733.727
       243.000         209.000
 02  7  9 17 15  0.0000000  0 10G23G15G29G 6G26G21G 2G 3G18G17
  23262666.898    13116584.46649  10201261.87346  23262666.401    23262673.759
       221.000         169.000
  20497880.991    -8710985.43449  -6799404.30148  20497880.283    20497886.463
       248.000         213.000
  23629998.881     3491706.82549   2712152.70245  23629999.642    23630006.652
       220.000         160.000
  22055042.932     8890623.52049   6907106.48246  22055042.931    22055050.439
       232.000         186.000
  22575455.692     -518824.41649   -408708.74346  22575456.737    22575463.672
       224.000         177.000
  22065972.533   -15010665.68049 -11698953.49947  22065971.896    22065979.421
       237.000         192.000
  24831270.741    -1595394.43949  -1506449.47744  24831269.160    24831277.689
       207.000         119.000
  23650835.436    -5561149.84949  -4333787.76245  23650835.847    23650844.301
       218.000         161.000
  20399071.812   -12159884.50149  -9478503.44848  20399071.477    20399076.603
       242.000         215.000
  20632835.925    -4980740.41749  -3892212.80547  20632835.275    20632841.450
       244.000         208.000
 02  7  9 17 15 30.0000000  0 10G23G15G29G 6G26G21G 2G 3G18G17
  23277843.059    13196334.33649  10263404.58846  23277842.495    23277850.444
       220.000         170.000
  20495389.292    -8724079.30849  -6809607.30048  20495388.318    20495394.668
       247.000         213.000
  23643918.385     3564852.23549   2769149.08145  23643918.526    23643924.408
       223.000         161.000
  22072232.911     8980957.86749   6977496.79246  22072231.682    22072240.419
       224.000         184.000
  22588599.707     -449752.32849   -354886.38546  22588598.978    22588606.761
       221.000         177.000
  22057022.940   -15057695.41449 -11735600.00147  22057023.121    22057029.715
       238.000         194.000
  24831834.800    -1592434.14949  -1504142.72944  24831835.168    24831841.806
       205.000         119.000
  23633602.511    -5651709.79249  -4404353.88345  23633602.727    23633610.547
       219.000         162.000
  20398449.179   -12163156.38949  -9481052.95348  20398449.078    20398453.821
       243.000         215.000
  20632985.762    -4979952.61849  -3891598.92947  20632985.232    20632991.816
       243.000         208.000
 02  7  9 17 16  0.0000000  0 10G23G15G29G 6G26G21G 2G 3G18G17
  23293026.189    13276121.44449  10325576.31546  23293025.094    23293033.485
       218.000         168.000
  20492942.828    -8736934.69349  -6819624.47548  20492942.071    20492948.819
       246.000         213.000
  23657909.453     3638375.39949   2826439.81346  23657909.810    23657916.488
       222.000         163.000
  22089484.542     9071618.07649   7048141.00746  22089484.438    22089491.483
       228.000         182.000
  22601841.791     -380164.34349   -300662.02746  22601842.040    22601848.796
       226.000         177.000
  22048125.623   -15104452.18049 -11772033.79847  22048125.670    22048132.371
       240.000         195.000
  24832474.378    -1589072.46249  -1501523.20544  24832473.996    24832483.596
       210.000         127.000
  23616419.283    -5742010.06749  -4474717.65245  23616419.283    23616427.174
       221.000         161.000
  20397900.020   -12166042.64449  -9483301.96848  20397899.498    20397904.401
       242.000         215.000
  20633177.976    -4978942.49649  -3890811.82247  20633177.698    20633184.418
       244.000         209.000
 02  7  9 17 16 30.0000000  0 10G23G15G29G 6G26G21G 2G 3G18G17
  23308215.399    13355942.63749  10387774.61446  23308214.319    23308222.308
       215.000         165.000
  20490541.703    -8749552.42749  -6829456.46348  20490541.363    20490547.574
       246.000         213.000
  23671971.735     3712272.45049   2884021.87946  23671972.145    23671979.555
       224.000         167.000
  22106798.049     9162600.20549   7119036.11446  22106798.592    22106805.819
       229.000         182.000
  22615181.657     -310064.79049   -246039.03646  22615181.695    22615188.566
       227.000         178.000
  22039279.855   -15150938.15749 -11808256.58747  22039279.364    22039286.679
       239.000         197.000
  24833190.082    -1585312.05649  -1498593.07745  24833187.802    24833201.547
       196.000         132.000
  23599285.465    -5832049.63249  -4544878.26845  23599284.855    23599292.740
       218.000         160.000
  20397423.530   -12168546.07949  -9485252.68648  20397423.008    20397428.085
       242.000         215.000
  20633412.424    -4977710.54949  -3889851.86447  20633411.536    20633418.307
       242.000         209.000
 02  7  9 17 17  0.0000000  0 10G23G15G29G 6G26G21G 2G 3G18G17
  23323411.136    13435798.70749  10450000.08546  23323411.968    23323418.007
       223.000         167.000
  20488186.495    -8761929.54449  -6839100.97447  20488185.594    20488192.476
       245.000         212.000
  23686105.090     3786543.30049   2941895.24446  23686104.841    23686112.177
       224.000         168.000
  22124172.875     9253904.25349   7190182.03746  22124173.963    22124180.053
       231.000         183.000
  22628618.448     -239453.93349   -191017.63846  22628618.663    22628626.116
       228.000         178.000
  22030485.710   -15197151.46149 -11844266.89647  22030485.522    22030492.971
       240.000         197.000
  24833980.191    -1581151.91848  -1495351.51645  24833976.286    24833991.568
       191.000         132.000
  23582201.454    -5921824.01049  -4614832.25045  23582200.133    23582209.324
       218.000         158.000
  20397020.233   -12170665.57949  -9486904.22748  20397020.207    20397024.973
       243.000         215.000
  20633689.526    -4976253.87149  -3888716.79747  20633689.204    20633695.258
       244.000         208.000
 02  7  9 17 17 30.0000000  0 10G23G15G29G 6G26G21G 2G 3G18G17
  23338613.704    13515685.63049  10512249.59946  23338614.084    23338620.369
       222.000         169.000
  20485876.570    -8774067.65349  -6848559.23847  20485876.083    20485882.883
       246.000         212.000
  23700308.641     3861183.10049   3000056.06046  23700308.408    23700315.499
       223.000         168.000
  22141608.229     9345525.51749   7261575.14546  22141607.704    22141615.550
       228.000         183.000
  22642151.658     -168336.75149   -135601.70846  22642151.115    22642158.222
       226.000         177.000
  22021743.031   -15243095.01749 -11880067.02147  22021742.675    22021749.682
       240.000         197.000
  24834846.850    -1576595.72449  -1491801.26844  24834845.324    24834858.882
       197.000         130.000
  23565168.231    -6011333.21249  -4684579.62345  23565167.544    23565176.489
       220.000         159.000
  20396689.357   -12172404.63649  -9488259.33048  20396688.876    20396694.043
       242.000         215.000
  20634009.321    -4974574.27149  -3887408.01247  20634008.663    20634015.578
       243.000         209.000
 02  7  9 17 18  0.0000000  0 10G23G15G29G 6G26G21G 2G 3G18G17
  23353821.636    13595602.99249  10574522.82946  23353821.086    23353828.816
       221.000         170.000
  20483612.694    -8785965.02849  -6857829.92147  20483612.200    20483618.233
       246.000         212.000
  23714581.993     3936190.46449   3058503.30446  23714581.257    23714590.020
       224.000         168.000
  22159103.323     9437462.78849   7333214.49346  22159102.962    22159111.276
       229.000         183.000
  22655780.818      -96714.83549    -79792.45246  22655782.258    22655787.443
       228.000         176.000
  22013051.559   -15288768.38449 -11915656.61547  22013050.372    22013058.508
       238.000         196.000
  24835790.182    -1571643.37648  -1487942.33444  24835789.641    24835802.097
       190.000         127.000
  23548186.381    -6100573.88549  -4754117.73145  23548185.351    23548194.678
       220.000         160.000
  20396430.727   -12173763.37349  -9489318.07348  20396430.305    20396435.534
       242.000         215.000
  20634371.645    -4972669.79949  -3885924.00647  20634371.082    20634377.712
       241.000         208.000
 02  7  9 17 18 30.0000000  0 10G23G15G29G 6G26G21G 2G 3G18G17
  23369034.898    13675549.80549  10636819.00046  23369034.354    23369042.432
       224.000         171.000
  20481394.831    -8797620.28449  -6866911.93747  20481393.736    20481400.260
       246.000         212.000
  23728925.177     4011563.78349   3117235.71646  23728925.307    23728932.101
       220.000         167.000
  22176658.217     9529714.27049   7405098.68446  22176658.659    22176666.685
       231.000         183.000
  22669505.893      -24590.16449    -23591.41946  22669505.708    22669512.588
       226.000         173.000
  22004411.537   -15334171.00749 -11951035.24047  22004411.013    22004419.312
       238.000         195.000
  24836808.159    -1566295.56449  -1483775.34544  24836806.057    24836818.910
       196.000         122.000
  23531255.900    -6189542.85149  -4823444.11245  23531254.781    23531265.032
       220.000         159.000
  20396244.551   -12174742.24349  -9490080.81848  20396244.344    20396248.997
       243.000         216.000
  20634777.049    -4970539.11349  -3884263.73247  20634776.282    20634782.973
       243.000         208.000
 02  7  9 17 19  0.0000000  0 10G23G15G29G 6G26G21G 2G 3G18G17
  23384253.654    13755524.25849  10699136.70846  23384253.258    23384260.171
       225.000         172.000
  20479222.844    -8809033.11249  -6875805.04547  20479221.650    20479228.571
       245.000         212.000
  23743337.135     4087300.23949   3176251.08446  23743336.570    23743344.572
       220.000         165.000
  22194272.345     9622277.32449   7477225.67046  22194272.485    22194279.972
       230.000         182.000
  22683325.698       48034.08549     32998.85746  22683326.800    22683332.292
       228.000         171.000
  21995823.036   -15379303.90749 -11986203.70147  21995822.079    21995829.554
       239.000         197.000
  24837901.376    -1560554.09449  -1479301.48744  24837903.147    24837911.749
       208.000         125.000
  23514378.020    -6278237.98049  -4892557.11245  23514376.796    23514384.462
       219.000         157.000
  20396130.297   -12175342.85349  -9490548.82148  20396129.553    20396134.848
       242.000         216.000
  20635225.640    -4968181.70549  -3882426.79447  20635225.760    20635231.522
       245.000         209.000
 02  7  9 17 19 30.0000000  0 10G23G15G29G 6G26G21G 2G 3G18G17
  23399477.218    13835525.73749  10761475.48946  23399476.839    23399483.736
       226.000         173.000
  20477097.383    -8820202.07449  -6884508.11848  20477097.350    20477103.470
       248.000         213.000
  23757818.023     4163398.13949   3235548.07846  23757817.145    23757825.665
       217.000         164.000
  22211945.732     9715150.35849   7549594.16846  22211946.659    22211953.306
       231.000         181.000
  22697240.809      121156.25649     89977.14846  22697239.118    22697247.544
       223.000         168.000
  21987285.885   -15424166.63349 -12021161.61647  21987285.399    21987293.105
       238.000         196.000
  24839068.765    -1554419.07249  -1474520.98444  24839070.120    24839081.193
       204.000         129.000
  23497552.567    -6366656.07449  -4961454.24645  23497550.344    23497558.704
       212.000         153.000
  20396087.703   -12175565.75649  -9490722.50448  20396087.343    20396092.483
       242.000         215.000
  20635717.867    -4965596.03649  -3880411.97947  20635717.150    20635723.823
       243.000         209.000
 02  7  9 17 20  0.0000000  0 10G23G15G29G 6G26G21G 2G 3G18G17
  23414705.821    13915552.48849  10823833.96546  23414706.026    23414713.345
       226.000         173.000
  20475018.747    -8831126.50349  -6893020.65648  20475017.930    20475024.545
       246.000         214.000
  23772367.195     4239854.92049   3295124.74845  23772366.583    23772374.340
       217.000         162.000
  22229677.738     9808330.98849   7622202.37746  22229677.794    22229685.794
       227.000         179.000
  22711249.588      194773.51349    147341.20246  22711250.788    22711254.706
       224.000         164.000
  21978799.992   -15468759.72849 -12055909.42947  21978799.684    21978806.972
       239.000         197.000
  24840311.596    -1547892.03449  -1469434.99244  24840310.061    24840319.674
       203.000         127.000
  23480779.474    -6454794.85249  -5030133.73045  23480779.145    23480788.037
       212.000         151.000
  20396116.987   -12175412.26549  -9490602.89848  20396116.482    20396121.953
       243.000         216.000
  20636253.496    -4962781.33849  -3878218.71247  20636252.879    20636259.376
       244.000         208.000
 02  7  9 17 20 30.0000000  0 10G23G15G29G 6G26G21G 2G 3G18G17
  23429938.955    13995603.15349  10886211.04946  23429937.732    23429946.466
       224.000         174.000
  20472986.474    -8841805.70149  -6901342.10748  20472985.787    20472992.594
       246.000         214.000
  23786984.570     4316668.33649   3354979.29345  23786984.164    23786992.684
       217.000         161.000
  22247467.473     9901816.86749   7695048.42646  22247467.629    22247475.342
       227.000         178.000
  22725352.227      268883.11449    205088.92445  22725351.946    22725357.732
       220.000         162.000
  21970365.484   -15513083.44649 -12090447.35747  21970364.903    21970372.182
       240.000         197.000
  24841628.031    -1540974.01748  -1464044.40244  24841627.019    24841636.078
       193.000         121.000
  23464060.805    -6542651.97349  -5098593.71545  23464061.188    23464068.555
       217.000         152.000
  20396217.595   -12174883.46049  -9490190.83648  20396216.973    20396222.043
       242.000         216.000
  20636832.768    -4959736.78849  -3875846.33547  20636831.809    20636838.335
       243.000         208.000
 02  7  9 17 21  0.0000000  0 10G23G15G29G 6G26G21G 2G 3G18G17
  23445175.995    14075676.09249  10948605.48746  23445175.163    23445183.480
       223.000         174.000
  20471001.114    -8852238.95049  -6909471.91148  20471000.201    20471006.946
       246.000         213.000
  23801668.871     4393835.92149   3415109.80345  23801667.399    23801677.588
       213.000         159.000
  22265314.758     9995605.44649   7768130.37446  22265315.413    22265322.571
       230.000         178.000
  22739547.817      343482.22649    263218.06646  22739546.969    22739553.668
       219.000         163.000
  21961982.048   -15557138.64749 -12124776.02747  21961981.267    21961989.119
       239.000         196.000
  24843016.800    -1533666.25858  -1458350.10444  24843011.281    24843025.826
       175.000         114.000
  23447396.357    -6630225.13849  -5166832.45845  23447395.006    23447405.200
       210.000         152.000
  20396389.364   -12173980.71749  -9489487.39348  20396388.994    20396394.018
       242.000         215.000
  20637455.818    -4956461.93949  -3873294.50547  20637455.557    20637461.605
       244.000         207.000
 02  7  9 17 21 30.0000000  0 10G23G15G29G 6G26G21G 2G 3G18G17
  23460417.880    14155771.72449  11011017.60846  23460417.721    23460426.118
       226.000         174.000
  20469062.898    -8862423.69549  -6917408.08248  20469062.313    20469068.708
       246.000         213.000
  23816420.854     4471356.89849   3475515.69445  23816421.355    23816428.408
       217.000         158.000
  22283219.879    10089696.29949   7841447.82746  22283218.779    22283228.392
       227.000         177.000
  22753836.571      418570.04149    321727.96646  22753838.585    22753844.086
       222.000         165.000
  21953649.887   -15600923.82149 -12158894.30547  21953649.405    21953657.212
       241.000         197.000
  24844481.293    -1525968.92048  -1452352.19744                  24844488.808
       187.000         107.000
  23430785.731    -6717510.30749  -5234846.81545  23430784.585    23430793.052
       206.000         150.000
  20396632.373   -12172703.56149  -9488492.20548  20396632.125    20396636.655
       242.000         215.000
  20638123.399    -4952953.93349  -3870560.99847  20638122.595    20638130.173
       242.000         208.000
 02  7  9 17 22  0.0000000  0 10G23G15G29G 6G26G21G 2G 3G18G17
  23475663.104    14235884.32749  11073442.94346  23475662.497    23475671.446
       227.000         174.000
  20467171.433    -8872363.50049  -6925153.38248  20467170.623    20467177.271
       245.000         213.000
  23831239.197     4549224.48049   3536191.66445  23831238.537    23831246.069
       214.000         158.000
  22301181.207    10184082.71849   7914995.59046  22301181.593    22301188.571
       227.000         175.000
  22768217.138      494139.50949    380613.25346  22768217.471    22768224.886
       223.000         168.000
  21945368.376   -15644443.54549 -12192805.76447  21945367.698    21945374.366
       242.000         197.000
  24846022.098    -1517887.05048  -1446054.59544                  24846036.877
       180.000         106.000
  23414230.343    -6804509.42649  -5302638.24945  23414230.645    23414238.162
       215.000         153.000
  20396945.589   -12171057.39549  -9487209.45948  20396944.989    20396950.250
       242.000         215.000
  20638834.630    -4949216.33649  -3867648.58047  20638834.512    20638841.140
       245.000         209.000
 02  7  9 17 22 30.0000000  0  9G23G15G29G 6G26G21G 3G18G17
  23490912.313    14316019.82049  11135886.12346  23490912.160    23490920.990
       225.000         173.000
  20465328.070    -8882050.11649  -6932701.38947  20465327.619    20465333.620
       248.000         212.000
  23846123.648     4627443.73649   3597141.66345  23846122.453    23846130.825
       213.000         155.000
  22319199.602    10278769.80249   7988777.65446  22319199.150    22319207.489
       225.000         173.000
  22782690.221      570195.49449    439877.60146  22782690.641    22782697.078
       225.000         171.000
  21937138.534   -15687691.11849 -12226505.11147  21937137.556    21937145.772
       241.000         197.000
  23397731.621    -6891212.40749  -5370198.94445  23397732.077    23397739.157
       219.000         157.000
  20397330.284   -12169035.88349  -9485634.25048  20397329.862    20397335.029
       242.000         215.000
  20639591.282    -4945240.77149  -3864550.74447  20639590.859    20639596.532
       244.000         208.000
 02  7  9 17 23  0.0000000  0  9G23G15G29G 6G26G21G 3G18G17
  23506165.424    14396173.73849  11198343.65046  23506165.900    23506172.945
       226.000         170.000
  20463532.671    -8891485.74549  -6940053.83747  20463532.072    20463538.589
       248.000         212.000
  23861074.218     4706009.34649   3658361.53645  23861073.223    23861081.732
       211.000         156.000
  22337274.279    10373752.10549   8062789.75646  22337274.597    22337280.783
       227.000         172.000
  22797254.872      646732.06449    499516.41746  22797254.769    22797262.701
       225.000         172.000
  21928959.750   -15730670.05549 -12259995.16647  21928958.978    21928966.508
       242.000         198.000
  23381289.117    -6977619.93949  -5437529.41445  23381290.110    23381296.623
       223.000         161.000
  20397785.565   -12166643.37749  -9483769.95448  20397785.097    20397790.428
       242.000         215.000
  20640392.668    -4941029.63149  -3861269.33147  20640392.054    20640398.265
       244.000         207.000
 02  7  9 17 23 30.0000000  0  9G23G15G29G 6G26G21G 3G18G17
  23521420.592    14476339.83249  11260810.70846  23521420.360    23521427.886
       222.000         166.000
  20461784.127    -8900674.51849  -6947213.91448  20461783.532    20461790.240
       248.000         213.000
  23876089.001     4784913.75749   3719845.42845  23876089.137    23876096.361
       215.000         156.000
  22355403.740    10469022.40949   8137026.27446  22355403.466    22355412.027
       226.000         170.000
  22811909.570      723741.70449    559523.87246  22811908.804    22811916.849
       225.000         175.000
  21920831.205   -15773385.24849 -12293279.68647  21920830.915    21920838.265
       243.000         199.000
  23364902.665    -7063734.50549  -5504631.56546  23364902.824    23364909.926
       225.000         164.000
  20398310.361   -12163885.90749  -9481621.27048  20398310.214    20398315.134
       243.000         215.000
  20641238.047    -4936586.89049  -3857807.47147  20641237.529    20641244.535
       244.000         208.000
 02  7  9 17 24  0.0000000  0  9G23G15G29G 6G26G21G 3G18G17
  23536678.159    14556518.86649  11323287.80446  23536677.577    23536685.049
       220.000         164.000
  20460082.998    -8909613.66749  -6954179.48848  20460082.390    20460088.895
       248.000         213.000
  23891168.829     4864156.87349   3781593.24645  23891168.878    23891175.177
       215.000         155.000
  22373587.558    10564580.46649   8211487.02146  22373588.997    22373595.108
       226.000         170.000
  22826653.722      801223.68549    619899.39646  22826654.186    22826661.279
       226.000         175.000
  21912753.309   -15815835.11049 -12326357.47847  21912753.157    21912760.863
       244.000         199.000
  23348572.333    -7149551.35949  -5571501.77746  23348571.870    23348579.076
       223.000         165.000
  20398904.694   -12160762.73849  -9479187.64748  20398904.133    20398908.827
       241.000         215.000
  20642128.049    -4931909.54949  -3854162.78947  20642127.433    20642134.285
       245.000         208.000
 02  7  9 17 24 30.0000000  0  9G23G15G29G 6G26G21G 3G18G17
  23551937.941    14636710.40449  11385774.61945  23551937.223    23551945.326
       215.000         161.000
  20458429.808    -8918301.52649  -6960949.24748  20458429.334    20458435.572
       248.000         213.000
  23906312.370     4943737.09849   3843603.76245  23906311.665    23906317.929
       214.000         154.000
  22391826.349    10660424.80149   8286170.82246  22391826.661    22391833.273
       225.000         169.000
  22841487.788      879176.01749    680641.43646  22841487.317    22841494.864
       227.000         176.000
  21904726.041   -15858019.49749 -12359228.39647  21904725.374    21904732.845
       243.000         200.000
  23332299.201    -7235067.58449  -5638137.70846  23332298.296    23332306.059
       227.000         165.000
  20399568.395   -12157274.19349  -9476469.29748  20399568.083    20399573.277
       243.000         215.000
  20643063.171    -4926995.99049  -3850334.05047  20643063.385    20643068.698
       245.000         208.000
 02  7  9 17 25  0.0000000  0  9G23G15G29G 6G26G21G 3G18G17
  23567198.880    14716911.57749  11448268.99645  23567198.458    23567205.944
       215.000         157.000
  20456824.242    -8926738.72249  -6967523.69047  20456823.406    20456829.569
       248.000         212.000
  23921519.889     5023650.56149   3905873.92245  23921519.597    23921526.060
       213.000         153.000
  22410119.090    10756551.69949   8361074.82446  22410119.637    22410127.701
       227.000         169.000
  22856410.456      957594.71749    741746.86346  22856410.356    22856416.912
       226.000         178.000
  21896748.719   -15899940.44649 -12391894.04147  21896748.017    21896755.328
       242.000         201.000
  23316083.292    -7320282.12849  -5704538.57446  23316082.732    23316090.383
       226.000         168.000
  20400301.358   -12153422.64849  -9473468.08848  20400300.986    20400306.423
       244.000         215.000
  20644043.155    -4921846.62949  -3846321.56347  20644042.177    20644049.253
       245.000         208.000
 02  7  9 17 25 30.0000000  0  9G23G15G29G 6G26G21G 3G18G17
  23582462.592    14797123.90949  11510772.05145  23582462.841    23582470.683
       215.000         154.000
  20455267.101    -8934921.56649  -6973899.91948  20455266.704    20455273.148
       248.000         213.000
  23936790.547     5103897.61149   3968404.02845  23936789.645    23936797.024
       211.000         153.000
  22428465.575    10852961.64749   8436199.37146  22428465.017    22428473.940
       223.000         167.000
  22871421.274     1036479.68449    803215.64046  22871420.545    22871428.439
       222.000         177.000
  21888822.046   -15941595.21349 -12424352.25647  21888821.744    21888828.632
       243.000         200.000
  23299925.689    -7405189.35349  -5770700.02246  23299924.848    23299934.144
       225.000         170.000
  20401103.519   -12149206.83249  -9470183.03448  20401103.230    20401108.110
       244.000         216.000
  20645068.423    -4916457.80549  -3842122.48747  20645068.187    20645074.731
       245.000         209.000
 02  7  9 17 26  0.0000000  0  9G23G15G29G 6G26G21G 3G18G17
  23597728.762    14877346.26149  11573282.92745  23597729.981    23597737.787
       220.000         155.000
  20453758.585    -8942849.01349  -6980077.15448  20453758.118    20453764.609
       248.000         213.000
  23952123.854     5184475.78049   4031192.12645  23952123.880    23952131.306
       214.000         153.000
  22446865.229    10949652.28349   8511542.65546  22446865.289    22446872.502
       222.000         163.000
  22886520.625     1115828.58049    865045.87246  22886521.181    22886527.262
       225.000         174.000
  21880945.973   -15982984.04049 -12456603.25547  21880945.297    21880952.570
       239.000         199.000
  23283827.430    -7489786.98649  -5836620.19246  23283827.851    23283833.828
       227.000         171.000
  20401974.967   -12144627.82549  -9466614.98848  20401974.967    20401979.526
       245.000         216.000
  20646139.705    -4910828.50949  -3837736.02747  20646139.555    20646146.317
       244.000         209.000
 02  7  9 17 26 30.0000000  0  9G23G15G29G 6G26G21G 3G18G17
  23612996.458    14957576.11149  11635799.63945  23612998.231    23613004.659
       219.000         158.000
  20452298.554    -8950521.53049  -6986055.74048  20452297.769    20452304.306
       247.000         213.000
  23967519.722     5265381.65349   4094235.60045  23967520.891    23967527.044
       218.000         154.000
  22465317.715    11046620.05549   8587101.87645  22465316.585    22465323.702
       218.000         158.000
  22901707.883     1195637.12149    927234.27946  22901707.348    22901715.311
       219.000         172.000
  21873119.992   -16024109.01149 -12488648.62547  21873119.544    21873127.363
       240.000         198.000
  23267788.396    -7574073.87849  -5902298.22846  23267788.115    23267795.052
       223.000         170.000
  20402915.109   -12139688.01849  -9462765.77848  20402914.576    20402920.150
       244.000         216.000
  20647256.656    -4904959.12249  -3833162.49647  20647256.432    20647262.199
       243.000         209.000
 02  7  9 17 27  0.0000000  0  9G23G15G29G 6G26G21G 3G18G17
  23628265.201    15037812.75149  11698321.63345  23628264.383    23628272.373
       216.000         157.000
  20450887.115    -8957938.04549  -6991834.84748  20450886.706    20450892.968
       248.000         213.000
  23982977.836     5346613.35549   4157532.97245  23982976.751    23982984.592
       219.000         155.000
  22483822.284    11143863.14049   8662875.60245  22483820.465    22483828.759
       217.000         157.000
  22916981.820     1275903.16949    989779.20546  22916982.613    22916989.130
       222.000         171.000
  21865344.307   -16064970.19049 -12520488.47847  21865343.947    21865350.739
       240.000         197.000
  23251808.422    -7658046.64449  -5967731.51146  23251807.379    23251816.900
       224.000         167.000
  20403923.487   -12134388.03349  -9458635.91448  20403923.108    20403928.172
       243.000         215.000
  20648419.422    -4898848.12249  -3828400.67747  20648418.877    20648425.470
       243.000         208.000
 02  7  9 17 27 30.0000000  0  9G23G15G29G 6G26G21G 3G18G17
  23643534.688    15118054.98349  11760847.98945  23643535.451    23643542.659
       218.000         158.000
  20449524.918    -8965097.23149  -6997413.44248  20449523.879    20449530.797
       248.000         213.000
  23998497.091     5428168.53949   4221082.41545  23998497.036    23998503.934
       219.000         157.000
  22502378.933    11241379.24549   8738862.10145  22502377.918    22502386.449
       215.000         158.000
  22932342.644     1356624.01849   1052678.50946  22932342.600    22932348.919
       219.000         168.000
  21857619.024   -16105567.65549 -12552122.83247  21857618.596    21857625.476
       240.000         198.000
  23235889.228    -7741703.03149  -6032918.24346  23235889.029    23235895.946
       221.000         166.000
  20405000.345   -12128728.97749  -9454226.27148  20405000.322    20405005.058
       245.000         215.000
  20649628.421    -4892494.64249  -3823449.92647  20649628.330    20649634.594
       243.000         208.000
 02  7  9 17 28  0.0000000  0  9G23G15G29G 6G26G21G 3G18G17
  23658805.255    15198301.77049  11823377.90545  23658805.200    23658813.791
       219.000         162.000
  20448211.618    -8971998.01149  -7002790.67348  20448211.118    20448217.731
       247.000         213.000
  24014077.780     5510044.90949   4284882.12045  24014077.190    24014084.428
       221.000         158.000
  22520987.190    11339166.36649   8815059.73345  22520988.164    22520994.761
       219.000         159.000
  22947789.112     1437797.22749   1115930.31146  22947788.686    22947797.294
       219.000         164.000
  21849943.715   -16145901.62349 -12583551.86747  21849942.949    21849950.660
       238.000         199.000
  23220030.454    -7825040.11949  -6097856.17446  23220029.318    23220037.576
       221.000         164.000
  20406145.481   -12122711.77849  -9449537.55048  20406145.529    20406149.944
       245.000         215.000
  20650884.005    -4885897.35649  -3818309.19547  20650883.351    20650889.957
       243.000         208.000
 02  7  9 17 28 30.0000000  0  9G23G15G29G 6G26G21G 3G18G17
  23674076.055    15278550.98249  11885909.71746  23674076.028    23674084.642
       221.000         165.000
  20446947.724    -8978640.44549  -7007966.59448  20446947.463    20446953.357
       248.000         213.000
  24029718.890     5592239.38749   4348929.70345  24029718.592    24029725.629
       219.000         159.000
  22539646.802    11437221.12349   8891465.91645  22539644.789    22539654.253
       211.000         157.000
  22963321.532     1519419.21549   1179531.79945  22963322.523    22963329.637
       220.000         162.000
  21842318.191   -16185973.56149 -12614776.72147  21842317.998    21842325.325
       240.000         198.000
  23204232.853    -7908056.32049  -6162544.06045  23204231.575    23204239.830
       222.000         162.000
  20407358.272   -12116338.78849  -9444571.57548  20407357.470    20407362.808
       243.000         214.000
  20652185.824    -4879056.11349  -3812978.37547  20652185.529    20652191.821
       241.000         208.000
 02  7  9 17 29  0.0000000  0  9G23G15G29G 6G26G21G 3G18G17
  23689347.907    15358802.14249  11948443.02046  23689347.546    23689355.978
       218.000         165.000
  20445733.156    -8985022.94749  -7012939.97848  20445732.224    20445738.975
       247.000         213.000
  24045419.401     5674749.84249   4413223.50945  24045418.963    24045427.253
       219.000         158.000
  22558355.793    11535541.75049   8968079.31545  22558354.836    22558363.425
       212.000         155.000
  22978938.581     1601487.44849   1243481.03845  22978939.311    22978945.334
       220.000         161.000
  21834742.797   -16225783.50249 -12645797.40847  21834741.853    21834749.937
       238.000         198.000
  23188497.152    -7990748.55849  -6226979.50645  23188496.998    23188504.000
       222.000         162.000
  20408638.557   -12109610.61449  -9439328.83948  20408638.394    20408643.160
       245.000         215.000
  20653534.204    -4871969.73949  -3807456.51947  20653533.906    20653539.824
       243.000         207.000
